<?xml version="1.0" encoding="UTF-8" standalone="no" ?>
<gpx xmlns="http://www.topografix.com/GPX/1/1" xmlns:xsi="http://www.w3.org/2001/XMLSchema-instance" xsi:schemaLocation="http://www.topografix.com/GPX/1/1 http://www.topografix.com/GPX/1/1/gpx.xsd" version="1.1" creator="VisuGPX - https://www.visugpx.com">
  <metadata>
    <name>Mens / Col de Menée A/R</name>
    <desc><![CDATA[Les Déjantés du Trièves 
De Mens au col de Menée, départ par Montvallon, retour par Prébois]]></desc>
  </metadata>
  <wpt lat="44.81501" lon="5.74869">
    <ele>769</ele>
    <name><![CDATA[Col de Menée A/R]]></name>
  </wpt>
  <trk>
    <name><![CDATA[Col de Menée A/R]]></name>
    <trkseg>
      <trkpt lat="44.81501" lon="5.74869">
        <ele>769</ele>
        <time>2018-04-23T08:17:49Z</time>
      </trkpt>
      <trkpt lat="44.81507" lon="5.74872">
        <ele>769</ele>
        <time>2018-04-23T08:18:01Z</time>
      </trkpt>
      <trkpt lat="44.81509" lon="5.7487">
        <ele>769</ele>
        <time>2018-04-23T08:18:11Z</time>
      </trkpt>
      <trkpt lat="44.81515" lon="5.74863">
        <ele>769</ele>
        <time>2018-04-23T08:18:18Z</time>
      </trkpt>
      <trkpt lat="44.8153" lon="5.74851">
        <ele>769</ele>
        <time>2018-04-23T08:18:29Z</time>
      </trkpt>
      <trkpt lat="44.81542" lon="5.74842">
        <ele>770</ele>
        <time>2018-04-23T08:18:42Z</time>
      </trkpt>
      <trkpt lat="44.81566" lon="5.74828">
        <ele>770</ele>
        <time>2018-04-23T08:18:47Z</time>
      </trkpt>
      <trkpt lat="44.81588" lon="5.74816">
        <ele>770</ele>
        <time>2018-04-23T08:18:58Z</time>
      </trkpt>
      <trkpt lat="44.81597" lon="5.74814">
        <ele>770</ele>
        <time>2018-04-23T08:19:14Z</time>
      </trkpt>
      <trkpt lat="44.81642" lon="5.74812">
        <ele>769</ele>
        <time>2018-04-23T08:19:29Z</time>
      </trkpt>
      <trkpt lat="44.81668" lon="5.74808">
        <ele>767</ele>
        <time>2018-04-23T08:19:37Z</time>
      </trkpt>
      <trkpt lat="44.81666" lon="5.74786">
        <ele>769</ele>
        <time>2018-04-23T08:19:52Z</time>
      </trkpt>
      <trkpt lat="44.81652" lon="5.74646">
        <ele>765</ele>
        <time>2018-04-23T08:19:59Z</time>
      </trkpt>
      <trkpt lat="44.81641" lon="5.74498">
        <ele>758</ele>
        <time>2018-04-23T08:20:18Z</time>
      </trkpt>
      <trkpt lat="44.81644" lon="5.74469">
        <ele>757</ele>
        <time>2018-04-23T08:20:23Z</time>
      </trkpt>
      <trkpt lat="44.81649" lon="5.74448">
        <ele>756</ele>
        <time>2018-04-23T08:20:32Z</time>
      </trkpt>
      <trkpt lat="44.8166" lon="5.74425">
        <ele>754</ele>
        <time>2018-04-23T08:20:42Z</time>
      </trkpt>
      <trkpt lat="44.81684" lon="5.74392">
        <ele>750</ele>
        <time>2018-04-23T08:20:56Z</time>
      </trkpt>
      <trkpt lat="44.81707" lon="5.74374">
        <ele>749</ele>
        <time>2018-04-23T08:21:15Z</time>
      </trkpt>
      <trkpt lat="44.81722" lon="5.74367">
        <ele>749</ele>
        <time>2018-04-23T08:21:35Z</time>
      </trkpt>
      <trkpt lat="44.8173" lon="5.74366">
        <ele>749</ele>
        <time>2018-04-23T08:21:54Z</time>
      </trkpt>
      <trkpt lat="44.81742" lon="5.74367">
        <ele>749</ele>
        <time>2018-04-23T08:22:14Z</time>
      </trkpt>
      <trkpt lat="44.81756" lon="5.7437">
        <ele>748</ele>
        <time>2018-04-23T08:22:31Z</time>
      </trkpt>
      <trkpt lat="44.81777" lon="5.74377">
        <ele>748</ele>
        <time>2018-04-23T08:22:42Z</time>
      </trkpt>
      <trkpt lat="44.81819" lon="5.7439">
        <ele>747</ele>
        <time>2018-04-23T08:22:52Z</time>
      </trkpt>
      <trkpt lat="44.81835" lon="5.7439">
        <ele>750</ele>
        <time>2018-04-23T08:23:10Z</time>
      </trkpt>
      <trkpt lat="44.8187" lon="5.74384">
        <ele>751</ele>
        <time>2018-04-23T08:23:25Z</time>
      </trkpt>
      <trkpt lat="44.81889" lon="5.74379">
        <ele>753</ele>
        <time>2018-04-23T08:23:29Z</time>
      </trkpt>
      <trkpt lat="44.819" lon="5.74368">
        <ele>754</ele>
        <time>2018-04-23T08:23:47Z</time>
      </trkpt>
      <trkpt lat="44.81907" lon="5.74352">
        <ele>756</ele>
        <time>2018-04-23T08:23:58Z</time>
      </trkpt>
      <trkpt lat="44.81907" lon="5.74325">
        <ele>758</ele>
        <time>2018-04-23T08:24:15Z</time>
      </trkpt>
      <trkpt lat="44.81898" lon="5.74292">
        <ele>757</ele>
        <time>2018-04-23T08:24:24Z</time>
      </trkpt>
      <trkpt lat="44.81881" lon="5.74245">
        <ele>757</ele>
        <time>2018-04-23T08:24:44Z</time>
      </trkpt>
      <trkpt lat="44.81881" lon="5.74222">
        <ele>757</ele>
        <time>2018-04-23T08:24:59Z</time>
      </trkpt>
      <trkpt lat="44.81891" lon="5.74201">
        <ele>757</ele>
        <time>2018-04-23T08:25:14Z</time>
      </trkpt>
      <trkpt lat="44.81917" lon="5.74166">
        <ele>762</ele>
        <time>2018-04-23T08:25:25Z</time>
      </trkpt>
      <trkpt lat="44.81945" lon="5.74127">
        <ele>766</ele>
        <time>2018-04-23T08:25:38Z</time>
      </trkpt>
      <trkpt lat="44.81959" lon="5.74107">
        <ele>767</ele>
        <time>2018-04-23T08:25:42Z</time>
      </trkpt>
      <trkpt lat="44.81972" lon="5.74078">
        <ele>765</ele>
        <time>2018-04-23T08:25:49Z</time>
      </trkpt>
      <trkpt lat="44.81978" lon="5.74054">
        <ele>765</ele>
        <time>2018-04-23T08:25:55Z</time>
      </trkpt>
      <trkpt lat="44.81983" lon="5.74018">
        <ele>766</ele>
        <time>2018-04-23T08:26:03Z</time>
      </trkpt>
      <trkpt lat="44.8199" lon="5.73959">
        <ele>764</ele>
        <time>2018-04-23T08:26:09Z</time>
      </trkpt>
      <trkpt lat="44.81997" lon="5.73932">
        <ele>766</ele>
        <time>2018-04-23T08:26:21Z</time>
      </trkpt>
      <trkpt lat="44.82005" lon="5.73913">
        <ele>770</ele>
        <time>2018-04-23T08:26:29Z</time>
      </trkpt>
      <trkpt lat="44.82024" lon="5.73885">
        <ele>772</ele>
        <time>2018-04-23T08:26:31Z</time>
      </trkpt>
      <trkpt lat="44.82029" lon="5.73881">
        <ele>772</ele>
        <time>2018-04-23T08:26:45Z</time>
      </trkpt>
      <trkpt lat="44.82034" lon="5.73877">
        <ele>773</ele>
        <time>2018-04-23T08:26:56Z</time>
      </trkpt>
      <trkpt lat="44.82035" lon="5.73873">
        <ele>773</ele>
        <time>2018-04-23T08:27:11Z</time>
      </trkpt>
      <trkpt lat="44.82039" lon="5.73863">
        <ele>773</ele>
        <time>2018-04-23T08:27:18Z</time>
      </trkpt>
      <trkpt lat="44.82051" lon="5.73846">
        <ele>773</ele>
        <time>2018-04-23T08:27:28Z</time>
      </trkpt>
      <trkpt lat="44.82071" lon="5.73818">
        <ele>772</ele>
        <time>2018-04-23T08:27:41Z</time>
      </trkpt>
      <trkpt lat="44.82117" lon="5.73752">
        <ele>771</ele>
        <time>2018-04-23T08:27:49Z</time>
      </trkpt>
      <trkpt lat="44.82131" lon="5.73728">
        <ele>768</ele>
        <time>2018-04-23T08:28:03Z</time>
      </trkpt>
      <trkpt lat="44.82141" lon="5.73709">
        <ele>768</ele>
        <time>2018-04-23T08:28:20Z</time>
      </trkpt>
      <trkpt lat="44.82159" lon="5.73652">
        <ele>767</ele>
        <time>2018-04-23T08:28:23Z</time>
      </trkpt>
      <trkpt lat="44.82189" lon="5.73554">
        <ele>766</ele>
        <time>2018-04-23T08:28:35Z</time>
      </trkpt>
      <trkpt lat="44.82207" lon="5.73496">
        <ele>765</ele>
        <time>2018-04-23T08:28:52Z</time>
      </trkpt>
      <trkpt lat="44.82212" lon="5.73471">
        <ele>766</ele>
        <time>2018-04-23T08:28:56Z</time>
      </trkpt>
      <trkpt lat="44.82218" lon="5.73404">
        <ele>765</ele>
        <time>2018-04-23T08:29:16Z</time>
      </trkpt>
      <trkpt lat="44.82231" lon="5.73274">
        <ele>767</ele>
        <time>2018-04-23T08:29:31Z</time>
      </trkpt>
      <trkpt lat="44.82244" lon="5.73133">
        <ele>767</ele>
        <time>2018-04-23T08:29:39Z</time>
      </trkpt>
      <trkpt lat="44.82244" lon="5.73088">
        <ele>769</ele>
        <time>2018-04-23T08:29:51Z</time>
      </trkpt>
      <trkpt lat="44.82241" lon="5.73045">
        <ele>767</ele>
        <time>2018-04-23T08:30:00Z</time>
      </trkpt>
      <trkpt lat="44.82219" lon="5.72916">
        <ele>774</ele>
        <time>2018-04-23T08:30:18Z</time>
      </trkpt>
      <trkpt lat="44.82211" lon="5.72878">
        <ele>774</ele>
        <time>2018-04-23T08:30:21Z</time>
      </trkpt>
      <trkpt lat="44.82205" lon="5.72864">
        <ele>774</ele>
        <time>2018-04-23T08:30:36Z</time>
      </trkpt>
      <trkpt lat="44.82196" lon="5.72851">
        <ele>774</ele>
        <time>2018-04-23T08:30:52Z</time>
      </trkpt>
      <trkpt lat="44.82173" lon="5.7283">
        <ele>774</ele>
        <time>2018-04-23T08:30:56Z</time>
      </trkpt>
      <trkpt lat="44.82148" lon="5.72815">
        <ele>773</ele>
        <time>2018-04-23T08:31:12Z</time>
      </trkpt>
      <trkpt lat="44.82111" lon="5.72805">
        <ele>773</ele>
        <time>2018-04-23T08:31:27Z</time>
      </trkpt>
      <trkpt lat="44.82085" lon="5.72796">
        <ele>773</ele>
        <time>2018-04-23T08:31:39Z</time>
      </trkpt>
      <trkpt lat="44.82041" lon="5.72777">
        <ele>770</ele>
        <time>2018-04-23T08:31:59Z</time>
      </trkpt>
      <trkpt lat="44.82" lon="5.72757">
        <ele>773</ele>
        <time>2018-04-23T08:32:09Z</time>
      </trkpt>
      <trkpt lat="44.81979" lon="5.7274">
        <ele>775</ele>
        <time>2018-04-23T08:32:15Z</time>
      </trkpt>
      <trkpt lat="44.81953" lon="5.72717">
        <ele>775</ele>
        <time>2018-04-23T08:32:33Z</time>
      </trkpt>
      <trkpt lat="44.81933" lon="5.72689">
        <ele>777</ele>
        <time>2018-04-23T08:32:40Z</time>
      </trkpt>
      <trkpt lat="44.81892" lon="5.72631">
        <ele>781</ele>
        <time>2018-04-23T08:32:54Z</time>
      </trkpt>
      <trkpt lat="44.81862" lon="5.72598">
        <ele>780</ele>
        <time>2018-04-23T08:33:04Z</time>
      </trkpt>
      <trkpt lat="44.8183" lon="5.72567">
        <ele>773</ele>
        <time>2018-04-23T08:33:17Z</time>
      </trkpt>
      <trkpt lat="44.81818" lon="5.72554">
        <ele>771</ele>
        <time>2018-04-23T08:33:34Z</time>
      </trkpt>
      <trkpt lat="44.81811" lon="5.72543">
        <ele>771</ele>
        <time>2018-04-23T08:33:50Z</time>
      </trkpt>
      <trkpt lat="44.81806" lon="5.72531">
        <ele>771</ele>
        <time>2018-04-23T08:33:53Z</time>
      </trkpt>
      <trkpt lat="44.81806" lon="5.72521">
        <ele>772</ele>
        <time>2018-04-23T08:34:06Z</time>
      </trkpt>
      <trkpt lat="44.81815" lon="5.72494">
        <ele>778</ele>
        <time>2018-04-23T08:34:23Z</time>
      </trkpt>
      <trkpt lat="44.81823" lon="5.72452">
        <ele>774</ele>
        <time>2018-04-23T08:34:31Z</time>
      </trkpt>
      <trkpt lat="44.81833" lon="5.72406">
        <ele>777</ele>
        <time>2018-04-23T08:34:41Z</time>
      </trkpt>
      <trkpt lat="44.81844" lon="5.72371">
        <ele>792</ele>
        <time>2018-04-23T08:34:58Z</time>
      </trkpt>
      <trkpt lat="44.81846" lon="5.72362">
        <ele>792</ele>
        <time>2018-04-23T08:35:03Z</time>
      </trkpt>
      <trkpt lat="44.81848" lon="5.72346">
        <ele>790</ele>
        <time>2018-04-23T08:35:17Z</time>
      </trkpt>
      <trkpt lat="44.81846" lon="5.72324">
        <ele>791</ele>
        <time>2018-04-23T08:35:23Z</time>
      </trkpt>
      <trkpt lat="44.81841" lon="5.72294">
        <ele>795</ele>
        <time>2018-04-23T08:35:29Z</time>
      </trkpt>
      <trkpt lat="44.81836" lon="5.7227">
        <ele>795</ele>
        <time>2018-04-23T08:35:41Z</time>
      </trkpt>
      <trkpt lat="44.81828" lon="5.72251">
        <ele>787</ele>
        <time>2018-04-23T08:35:45Z</time>
      </trkpt>
      <trkpt lat="44.81819" lon="5.72232">
        <ele>785</ele>
        <time>2018-04-23T08:36:03Z</time>
      </trkpt>
      <trkpt lat="44.81809" lon="5.72218">
        <ele>783</ele>
        <time>2018-04-23T08:36:19Z</time>
      </trkpt>
      <trkpt lat="44.81797" lon="5.7219">
        <ele>783</ele>
        <time>2018-04-23T08:36:30Z</time>
      </trkpt>
      <trkpt lat="44.81795" lon="5.72167">
        <ele>783</ele>
        <time>2018-04-23T08:36:34Z</time>
      </trkpt>
      <trkpt lat="44.81796" lon="5.72143">
        <ele>795</ele>
        <time>2018-04-23T08:36:40Z</time>
      </trkpt>
      <trkpt lat="44.81794" lon="5.72126">
        <ele>796</ele>
        <time>2018-04-23T08:36:45Z</time>
      </trkpt>
      <trkpt lat="44.81788" lon="5.72114">
        <ele>796</ele>
        <time>2018-04-23T08:36:58Z</time>
      </trkpt>
      <trkpt lat="44.81767" lon="5.72089">
        <ele>793</ele>
        <time>2018-04-23T08:37:09Z</time>
      </trkpt>
      <trkpt lat="44.81744" lon="5.72052">
        <ele>786</ele>
        <time>2018-04-23T08:37:26Z</time>
      </trkpt>
      <trkpt lat="44.81722" lon="5.72018">
        <ele>788</ele>
        <time>2018-04-23T08:37:33Z</time>
      </trkpt>
      <trkpt lat="44.81698" lon="5.71949">
        <ele>796</ele>
        <time>2018-04-23T08:37:52Z</time>
      </trkpt>
      <trkpt lat="44.81692" lon="5.71933">
        <ele>795</ele>
        <time>2018-04-23T08:38:01Z</time>
      </trkpt>
      <trkpt lat="44.81689" lon="5.71917">
        <ele>793</ele>
        <time>2018-04-23T08:38:06Z</time>
      </trkpt>
      <trkpt lat="44.81691" lon="5.71874">
        <ele>797</ele>
        <time>2018-04-23T08:38:19Z</time>
      </trkpt>
      <trkpt lat="44.8171" lon="5.71798">
        <ele>797</ele>
        <time>2018-04-23T08:38:36Z</time>
      </trkpt>
      <trkpt lat="44.8172" lon="5.71751">
        <ele>799</ele>
        <time>2018-04-23T08:38:47Z</time>
      </trkpt>
      <trkpt lat="44.81717" lon="5.71723">
        <ele>801</ele>
        <time>2018-04-23T08:38:56Z</time>
      </trkpt>
      <trkpt lat="44.817" lon="5.71638">
        <ele>807</ele>
        <time>2018-04-23T08:38:59Z</time>
      </trkpt>
      <trkpt lat="44.81686" lon="5.71601">
        <ele>807</ele>
        <time>2018-04-23T08:39:14Z</time>
      </trkpt>
      <trkpt lat="44.81676" lon="5.71588">
        <ele>806</ele>
        <time>2018-04-23T08:39:21Z</time>
      </trkpt>
      <trkpt lat="44.81662" lon="5.71577">
        <ele>803</ele>
        <time>2018-04-23T08:39:40Z</time>
      </trkpt>
      <trkpt lat="44.81643" lon="5.71566">
        <ele>801</ele>
        <time>2018-04-23T08:39:49Z</time>
      </trkpt>
      <trkpt lat="44.81631" lon="5.71557">
        <ele>800</ele>
        <time>2018-04-23T08:40:07Z</time>
      </trkpt>
      <trkpt lat="44.81627" lon="5.71547">
        <ele>799</ele>
        <time>2018-04-23T08:40:19Z</time>
      </trkpt>
      <trkpt lat="44.81627" lon="5.71533">
        <ele>799</ele>
        <time>2018-04-23T08:40:32Z</time>
      </trkpt>
      <trkpt lat="44.81632" lon="5.71514">
        <ele>800</ele>
        <time>2018-04-23T08:40:37Z</time>
      </trkpt>
      <trkpt lat="44.81646" lon="5.71481">
        <ele>797</ele>
        <time>2018-04-23T08:40:52Z</time>
      </trkpt>
      <trkpt lat="44.8166" lon="5.71452">
        <ele>795</ele>
        <time>2018-04-23T08:41:05Z</time>
      </trkpt>
      <trkpt lat="44.8167" lon="5.71436">
        <ele>802</ele>
        <time>2018-04-23T08:41:22Z</time>
      </trkpt>
      <trkpt lat="44.8169" lon="5.71416">
        <ele>799</ele>
        <time>2018-04-23T08:41:39Z</time>
      </trkpt>
      <trkpt lat="44.81698" lon="5.71407">
        <ele>800</ele>
        <time>2018-04-23T08:41:59Z</time>
      </trkpt>
      <trkpt lat="44.81704" lon="5.71394">
        <ele>801</ele>
        <time>2018-04-23T08:42:15Z</time>
      </trkpt>
      <trkpt lat="44.81719" lon="5.71342">
        <ele>801</ele>
        <time>2018-04-23T08:42:30Z</time>
      </trkpt>
      <trkpt lat="44.81722" lon="5.71323">
        <ele>801</ele>
        <time>2018-04-23T08:42:41Z</time>
      </trkpt>
      <trkpt lat="44.81721" lon="5.7131">
        <ele>801</ele>
        <time>2018-04-23T08:42:48Z</time>
      </trkpt>
      <trkpt lat="44.81716" lon="5.71289">
        <ele>801</ele>
        <time>2018-04-23T08:42:51Z</time>
      </trkpt>
      <trkpt lat="44.81707" lon="5.71267">
        <ele>801</ele>
        <time>2018-04-23T08:42:53Z</time>
      </trkpt>
      <trkpt lat="44.81684" lon="5.71232">
        <ele>804</ele>
        <time>2018-04-23T08:42:58Z</time>
      </trkpt>
      <trkpt lat="44.81663" lon="5.71216">
        <ele>798</ele>
        <time>2018-04-23T08:43:10Z</time>
      </trkpt>
      <trkpt lat="44.81618" lon="5.71194">
        <ele>797</ele>
        <time>2018-04-23T08:43:29Z</time>
      </trkpt>
      <trkpt lat="44.81565" lon="5.71166">
        <ele>793</ele>
        <time>2018-04-23T08:43:39Z</time>
      </trkpt>
      <trkpt lat="44.81547" lon="5.7115">
        <ele>789</ele>
        <time>2018-04-23T08:43:53Z</time>
      </trkpt>
      <trkpt lat="44.81536" lon="5.71136">
        <ele>788</ele>
        <time>2018-04-23T08:44:03Z</time>
      </trkpt>
      <trkpt lat="44.81526" lon="5.71117">
        <ele>788</ele>
        <time>2018-04-23T08:44:14Z</time>
      </trkpt>
      <trkpt lat="44.81517" lon="5.71095">
        <ele>788</ele>
        <time>2018-04-23T08:44:28Z</time>
      </trkpt>
      <trkpt lat="44.81512" lon="5.71072">
        <ele>790</ele>
        <time>2018-04-23T08:44:34Z</time>
      </trkpt>
      <trkpt lat="44.8151" lon="5.71042">
        <ele>793</ele>
        <time>2018-04-23T08:44:46Z</time>
      </trkpt>
      <trkpt lat="44.81511" lon="5.71003">
        <ele>790</ele>
        <time>2018-04-23T08:45:04Z</time>
      </trkpt>
      <trkpt lat="44.81513" lon="5.70926">
        <ele>790</ele>
        <time>2018-04-23T08:45:23Z</time>
      </trkpt>
      <trkpt lat="44.81523" lon="5.70815">
        <ele>786</ele>
        <time>2018-04-23T08:45:37Z</time>
      </trkpt>
      <trkpt lat="44.81528" lon="5.70746">
        <ele>783</ele>
        <time>2018-04-23T08:45:44Z</time>
      </trkpt>
      <trkpt lat="44.81525" lon="5.70704">
        <ele>783</ele>
        <time>2018-04-23T08:45:48Z</time>
      </trkpt>
      <trkpt lat="44.81517" lon="5.70674">
        <ele>780</ele>
        <time>2018-04-23T08:46:03Z</time>
      </trkpt>
      <trkpt lat="44.81496" lon="5.7065">
        <ele>768</ele>
        <time>2018-04-23T08:46:16Z</time>
      </trkpt>
      <trkpt lat="44.81475" lon="5.70627">
        <ele>762</ele>
        <time>2018-04-23T08:46:20Z</time>
      </trkpt>
      <trkpt lat="44.81472" lon="5.70615">
        <ele>762</ele>
        <time>2018-04-23T08:46:36Z</time>
      </trkpt>
      <trkpt lat="44.81474" lon="5.70605">
        <ele>762</ele>
        <time>2018-04-23T08:46:50Z</time>
      </trkpt>
      <trkpt lat="44.81485" lon="5.70591">
        <ele>765</ele>
        <time>2018-04-23T08:46:52Z</time>
      </trkpt>
      <trkpt lat="44.81544" lon="5.70542">
        <ele>767</ele>
        <time>2018-04-23T08:47:09Z</time>
      </trkpt>
      <trkpt lat="44.81579" lon="5.70512">
        <ele>766</ele>
        <time>2018-04-23T08:47:24Z</time>
      </trkpt>
      <trkpt lat="44.8159" lon="5.70495">
        <ele>764</ele>
        <time>2018-04-23T08:47:36Z</time>
      </trkpt>
      <trkpt lat="44.81595" lon="5.7048">
        <ele>763</ele>
        <time>2018-04-23T08:47:43Z</time>
      </trkpt>
      <trkpt lat="44.81599" lon="5.70435">
        <ele>761</ele>
        <time>2018-04-23T08:47:55Z</time>
      </trkpt>
      <trkpt lat="44.81593" lon="5.70389">
        <ele>758</ele>
        <time>2018-04-23T08:48:12Z</time>
      </trkpt>
      <trkpt lat="44.81587" lon="5.70361">
        <ele>758</ele>
        <time>2018-04-23T08:48:32Z</time>
      </trkpt>
      <trkpt lat="44.81571" lon="5.70308">
        <ele>752</ele>
        <time>2018-04-23T08:48:48Z</time>
      </trkpt>
      <trkpt lat="44.81562" lon="5.70264">
        <ele>751</ele>
        <time>2018-04-23T08:48:59Z</time>
      </trkpt>
      <trkpt lat="44.81562" lon="5.70231">
        <ele>747</ele>
        <time>2018-04-23T08:49:04Z</time>
      </trkpt>
      <trkpt lat="44.81578" lon="5.70145">
        <ele>740</ele>
        <time>2018-04-23T08:49:11Z</time>
      </trkpt>
      <trkpt lat="44.81582" lon="5.70141">
        <ele>739</ele>
        <time>2018-04-23T08:49:24Z</time>
      </trkpt>
      <trkpt lat="44.81587" lon="5.70141">
        <ele>737</ele>
        <time>2018-04-23T08:49:28Z</time>
      </trkpt>
      <trkpt lat="44.81592" lon="5.70144">
        <ele>737</ele>
        <time>2018-04-23T08:49:48Z</time>
      </trkpt>
      <trkpt lat="44.81603" lon="5.70168">
        <ele>744</ele>
        <time>2018-04-23T08:50:03Z</time>
      </trkpt>
      <trkpt lat="44.81644" lon="5.70268">
        <ele>749</ele>
        <time>2018-04-23T08:50:16Z</time>
      </trkpt>
      <trkpt lat="44.81668" lon="5.70317">
        <ele>742</ele>
        <time>2018-04-23T08:50:29Z</time>
      </trkpt>
      <trkpt lat="44.81687" lon="5.70382">
        <ele>742</ele>
        <time>2018-04-23T08:50:44Z</time>
      </trkpt>
      <trkpt lat="44.81699" lon="5.70427">
        <ele>749</ele>
        <time>2018-04-23T08:50:52Z</time>
      </trkpt>
      <trkpt lat="44.81709" lon="5.70453">
        <ele>748</ele>
        <time>2018-04-23T08:51:09Z</time>
      </trkpt>
      <trkpt lat="44.81718" lon="5.70466">
        <ele>748</ele>
        <time>2018-04-23T08:51:23Z</time>
      </trkpt>
      <trkpt lat="44.81733" lon="5.70473">
        <ele>746</ele>
        <time>2018-04-23T08:51:36Z</time>
      </trkpt>
      <trkpt lat="44.81749" lon="5.70484">
        <ele>745</ele>
        <time>2018-04-23T08:51:50Z</time>
      </trkpt>
      <trkpt lat="44.81763" lon="5.70501">
        <ele>744</ele>
        <time>2018-04-23T08:52:09Z</time>
      </trkpt>
      <trkpt lat="44.81782" lon="5.70518">
        <ele>743</ele>
        <time>2018-04-23T08:52:23Z</time>
      </trkpt>
      <trkpt lat="44.81805" lon="5.70532">
        <ele>742</ele>
        <time>2018-04-23T08:52:32Z</time>
      </trkpt>
      <trkpt lat="44.81819" lon="5.7054">
        <ele>742</ele>
        <time>2018-04-23T08:52:45Z</time>
      </trkpt>
      <trkpt lat="44.81827" lon="5.70542">
        <ele>742</ele>
        <time>2018-04-23T08:52:57Z</time>
      </trkpt>
      <trkpt lat="44.81835" lon="5.70541">
        <ele>736</ele>
        <time>2018-04-23T08:53:17Z</time>
      </trkpt>
      <trkpt lat="44.81843" lon="5.70534">
        <ele>735</ele>
        <time>2018-04-23T08:53:35Z</time>
      </trkpt>
      <trkpt lat="44.81856" lon="5.70515">
        <ele>733</ele>
        <time>2018-04-23T08:53:49Z</time>
      </trkpt>
      <trkpt lat="44.81865" lon="5.70504">
        <ele>732</ele>
        <time>2018-04-23T08:54:09Z</time>
      </trkpt>
      <trkpt lat="44.81878" lon="5.70499">
        <ele>721</ele>
        <time>2018-04-23T08:54:27Z</time>
      </trkpt>
      <trkpt lat="44.81892" lon="5.70498">
        <ele>722</ele>
        <time>2018-04-23T08:54:36Z</time>
      </trkpt>
      <trkpt lat="44.81934" lon="5.70495">
        <ele>724</ele>
        <time>2018-04-23T08:54:51Z</time>
      </trkpt>
      <trkpt lat="44.81981" lon="5.70491">
        <ele>727</ele>
        <time>2018-04-23T08:55:08Z</time>
      </trkpt>
      <trkpt lat="44.81988" lon="5.70487">
        <ele>727</ele>
        <time>2018-04-23T08:55:10Z</time>
      </trkpt>
      <trkpt lat="44.81992" lon="5.70482">
        <ele>727</ele>
        <time>2018-04-23T08:55:27Z</time>
      </trkpt>
      <trkpt lat="44.81994" lon="5.70472">
        <ele>726</ele>
        <time>2018-04-23T08:55:29Z</time>
      </trkpt>
      <trkpt lat="44.81989" lon="5.70445">
        <ele>724</ele>
        <time>2018-04-23T08:55:41Z</time>
      </trkpt>
      <trkpt lat="44.81987" lon="5.70423">
        <ele>724</ele>
        <time>2018-04-23T08:55:55Z</time>
      </trkpt>
      <trkpt lat="44.81987" lon="5.70409">
        <ele>722</ele>
        <time>2018-04-23T08:56:14Z</time>
      </trkpt>
      <trkpt lat="44.81976" lon="5.70378">
        <ele>721</ele>
        <time>2018-04-23T08:56:26Z</time>
      </trkpt>
      <trkpt lat="44.81961" lon="5.70315">
        <ele>721</ele>
        <time>2018-04-23T08:56:39Z</time>
      </trkpt>
      <trkpt lat="44.81952" lon="5.70279">
        <ele>721</ele>
        <time>2018-04-23T08:56:51Z</time>
      </trkpt>
      <trkpt lat="44.81949" lon="5.70258">
        <ele>720</ele>
        <time>2018-04-23T08:57:01Z</time>
      </trkpt>
      <trkpt lat="44.81951" lon="5.70245">
        <ele>720</ele>
        <time>2018-04-23T08:57:05Z</time>
      </trkpt>
      <trkpt lat="44.81971" lon="5.70207">
        <ele>721</ele>
        <time>2018-04-23T08:57:14Z</time>
      </trkpt>
      <trkpt lat="44.81983" lon="5.70175">
        <ele>722</ele>
        <time>2018-04-23T08:57:18Z</time>
      </trkpt>
      <trkpt lat="44.8199" lon="5.70137">
        <ele>719</ele>
        <time>2018-04-23T08:57:28Z</time>
      </trkpt>
      <trkpt lat="44.81994" lon="5.70098">
        <ele>718</ele>
        <time>2018-04-23T08:57:33Z</time>
      </trkpt>
      <trkpt lat="44.82" lon="5.70077">
        <ele>722</ele>
        <time>2018-04-23T08:57:47Z</time>
      </trkpt>
      <trkpt lat="44.82006" lon="5.70061">
        <ele>724</ele>
        <time>2018-04-23T08:57:52Z</time>
      </trkpt>
      <trkpt lat="44.82013" lon="5.7003">
        <ele>724</ele>
        <time>2018-04-23T08:57:58Z</time>
      </trkpt>
      <trkpt lat="44.82012" lon="5.69999">
        <ele>718</ele>
        <time>2018-04-23T08:58:13Z</time>
      </trkpt>
      <trkpt lat="44.82" lon="5.69958">
        <ele>722</ele>
        <time>2018-04-23T08:58:21Z</time>
      </trkpt>
      <trkpt lat="44.81984" lon="5.69922">
        <ele>714</ele>
        <time>2018-04-23T08:58:30Z</time>
      </trkpt>
      <trkpt lat="44.81964" lon="5.6989">
        <ele>718</ele>
        <time>2018-04-23T08:58:48Z</time>
      </trkpt>
      <trkpt lat="44.81936" lon="5.69854">
        <ele>717</ele>
        <time>2018-04-23T08:59:02Z</time>
      </trkpt>
      <trkpt lat="44.81904" lon="5.69827">
        <ele>715</ele>
        <time>2018-04-23T08:59:20Z</time>
      </trkpt>
      <trkpt lat="44.81862" lon="5.698">
        <ele>713</ele>
        <time>2018-04-23T08:59:32Z</time>
      </trkpt>
      <trkpt lat="44.81835" lon="5.69782">
        <ele>712</ele>
        <time>2018-04-23T08:59:48Z</time>
      </trkpt>
      <trkpt lat="44.81823" lon="5.69766">
        <ele>703</ele>
        <time>2018-04-23T08:59:53Z</time>
      </trkpt>
      <trkpt lat="44.81812" lon="5.69732">
        <ele>706</ele>
        <time>2018-04-23T08:59:58Z</time>
      </trkpt>
      <trkpt lat="44.818" lon="5.69702">
        <ele>705</ele>
        <time>2018-04-23T09:00:12Z</time>
      </trkpt>
      <trkpt lat="44.81776" lon="5.69664">
        <ele>704</ele>
        <time>2018-04-23T09:00:17Z</time>
      </trkpt>
      <trkpt lat="44.81762" lon="5.6963">
        <ele>703</ele>
        <time>2018-04-23T09:00:29Z</time>
      </trkpt>
      <trkpt lat="44.81763" lon="5.69611">
        <ele>703</ele>
        <time>2018-04-23T09:00:43Z</time>
      </trkpt>
      <trkpt lat="44.81768" lon="5.69602">
        <ele>703</ele>
        <time>2018-04-23T09:00:45Z</time>
      </trkpt>
      <trkpt lat="44.81791" lon="5.69578">
        <ele>702</ele>
        <time>2018-04-23T09:01:03Z</time>
      </trkpt>
      <trkpt lat="44.81804" lon="5.69568">
        <ele>703</ele>
        <time>2018-04-23T09:01:16Z</time>
      </trkpt>
      <trkpt lat="44.81816" lon="5.69564">
        <ele>704</ele>
        <time>2018-04-23T09:01:28Z</time>
      </trkpt>
      <trkpt lat="44.81845" lon="5.6955">
        <ele>710</ele>
        <time>2018-04-23T09:01:33Z</time>
      </trkpt>
      <trkpt lat="44.81857" lon="5.69542">
        <ele>710</ele>
        <time>2018-04-23T09:01:52Z</time>
      </trkpt>
      <trkpt lat="44.81867" lon="5.69529">
        <ele>710</ele>
        <time>2018-04-23T09:01:58Z</time>
      </trkpt>
      <trkpt lat="44.81881" lon="5.69497">
        <ele>708</ele>
        <time>2018-04-23T09:02:03Z</time>
      </trkpt>
      <trkpt lat="44.81888" lon="5.69446">
        <ele>710</ele>
        <time>2018-04-23T09:02:14Z</time>
      </trkpt>
      <trkpt lat="44.81888" lon="5.69414">
        <ele>714</ele>
        <time>2018-04-23T09:02:25Z</time>
      </trkpt>
      <trkpt lat="44.81881" lon="5.69383">
        <ele>713</ele>
        <time>2018-04-23T09:02:41Z</time>
      </trkpt>
      <trkpt lat="44.81871" lon="5.69341">
        <ele>713</ele>
        <time>2018-04-23T09:02:54Z</time>
      </trkpt>
      <trkpt lat="44.81865" lon="5.69326">
        <ele>716</ele>
        <time>2018-04-23T09:03:13Z</time>
      </trkpt>
      <trkpt lat="44.81859" lon="5.69318">
        <ele>715</ele>
        <time>2018-04-23T09:03:16Z</time>
      </trkpt>
      <trkpt lat="44.81845" lon="5.69308">
        <ele>714</ele>
        <time>2018-04-23T09:03:35Z</time>
      </trkpt>
      <trkpt lat="44.81812" lon="5.69295">
        <ele>699</ele>
        <time>2018-04-23T09:03:53Z</time>
      </trkpt>
      <trkpt lat="44.81785" lon="5.69298">
        <ele>696</ele>
        <time>2018-04-23T09:04:05Z</time>
      </trkpt>
      <trkpt lat="44.81776" lon="5.69297">
        <ele>695</ele>
        <time>2018-04-23T09:04:24Z</time>
      </trkpt>
      <trkpt lat="44.81764" lon="5.69288">
        <ele>695</ele>
        <time>2018-04-23T09:04:37Z</time>
      </trkpt>
      <trkpt lat="44.81749" lon="5.69274">
        <ele>685</ele>
        <time>2018-04-23T09:04:47Z</time>
      </trkpt>
      <trkpt lat="44.8174" lon="5.69261">
        <ele>687</ele>
        <time>2018-04-23T09:05:06Z</time>
      </trkpt>
      <trkpt lat="44.81739" lon="5.69247">
        <ele>686</ele>
        <time>2018-04-23T09:05:18Z</time>
      </trkpt>
      <trkpt lat="44.81741" lon="5.6924">
        <ele>686</ele>
        <time>2018-04-23T09:05:29Z</time>
      </trkpt>
      <trkpt lat="44.81746" lon="5.69236">
        <ele>686</ele>
        <time>2018-04-23T09:05:32Z</time>
      </trkpt>
      <trkpt lat="44.81758" lon="5.6923">
        <ele>693</ele>
        <time>2018-04-23T09:05:49Z</time>
      </trkpt>
      <trkpt lat="44.81776" lon="5.69225">
        <ele>694</ele>
        <time>2018-04-23T09:05:56Z</time>
      </trkpt>
      <trkpt lat="44.81811" lon="5.6921">
        <ele>697</ele>
        <time>2018-04-23T09:06:15Z</time>
      </trkpt>
      <trkpt lat="44.81826" lon="5.69199">
        <ele>697</ele>
        <time>2018-04-23T09:06:35Z</time>
      </trkpt>
      <trkpt lat="44.8184" lon="5.69184">
        <ele>708</ele>
        <time>2018-04-23T09:06:42Z</time>
      </trkpt>
      <trkpt lat="44.8186" lon="5.69144">
        <ele>703</ele>
        <time>2018-04-23T09:07:01Z</time>
      </trkpt>
      <trkpt lat="44.81874" lon="5.69101">
        <ele>702</ele>
        <time>2018-04-23T09:07:21Z</time>
      </trkpt>
      <trkpt lat="44.81877" lon="5.69064">
        <ele>696</ele>
        <time>2018-04-23T09:07:37Z</time>
      </trkpt>
      <trkpt lat="44.81873" lon="5.68992">
        <ele>690</ele>
        <time>2018-04-23T09:07:55Z</time>
      </trkpt>
      <trkpt lat="44.81873" lon="5.68962">
        <ele>689</ele>
        <time>2018-04-23T09:08:15Z</time>
      </trkpt>
      <trkpt lat="44.81884" lon="5.68943">
        <ele>688</ele>
        <time>2018-04-23T09:08:19Z</time>
      </trkpt>
      <trkpt lat="44.81899" lon="5.68931">
        <ele>687</ele>
        <time>2018-04-23T09:08:38Z</time>
      </trkpt>
      <trkpt lat="44.81914" lon="5.68925">
        <ele>686</ele>
        <time>2018-04-23T09:08:40Z</time>
      </trkpt>
      <trkpt lat="44.81932" lon="5.6892">
        <ele>690</ele>
        <time>2018-04-23T09:08:49Z</time>
      </trkpt>
      <trkpt lat="44.81962" lon="5.6891">
        <ele>686</ele>
        <time>2018-04-23T09:09:02Z</time>
      </trkpt>
      <trkpt lat="44.81976" lon="5.68896">
        <ele>686</ele>
        <time>2018-04-23T09:09:19Z</time>
      </trkpt>
      <trkpt lat="44.81995" lon="5.68861">
        <ele>684</ele>
        <time>2018-04-23T09:09:34Z</time>
      </trkpt>
      <trkpt lat="44.82003" lon="5.68848">
        <ele>686</ele>
        <time>2018-04-23T09:09:37Z</time>
      </trkpt>
      <trkpt lat="44.82015" lon="5.68842">
        <ele>687</ele>
        <time>2018-04-23T09:09:50Z</time>
      </trkpt>
      <trkpt lat="44.82026" lon="5.68835">
        <ele>688</ele>
        <time>2018-04-23T09:10:01Z</time>
      </trkpt>
      <trkpt lat="44.8204" lon="5.68816">
        <ele>685</ele>
        <time>2018-04-23T09:10:11Z</time>
      </trkpt>
      <trkpt lat="44.82051" lon="5.68782">
        <ele>685</ele>
        <time>2018-04-23T09:10:14Z</time>
      </trkpt>
      <trkpt lat="44.82062" lon="5.68759">
        <ele>686</ele>
        <time>2018-04-23T09:10:24Z</time>
      </trkpt>
      <trkpt lat="44.82089" lon="5.68719">
        <ele>691</ele>
        <time>2018-04-23T09:10:41Z</time>
      </trkpt>
      <trkpt lat="44.82124" lon="5.68666">
        <ele>688</ele>
        <time>2018-04-23T09:10:55Z</time>
      </trkpt>
      <trkpt lat="44.8213" lon="5.68658">
        <ele>688</ele>
        <time>2018-04-23T09:11:08Z</time>
      </trkpt>
      <trkpt lat="44.82138" lon="5.68653">
        <ele>688</ele>
        <time>2018-04-23T09:11:21Z</time>
      </trkpt>
      <trkpt lat="44.82173" lon="5.68648">
        <ele>693</ele>
        <time>2018-04-23T09:11:26Z</time>
      </trkpt>
      <trkpt lat="44.82202" lon="5.68644">
        <ele>693</ele>
        <time>2018-04-23T09:11:29Z</time>
      </trkpt>
      <trkpt lat="44.82208" lon="5.68641">
        <ele>693</ele>
        <time>2018-04-23T09:11:42Z</time>
      </trkpt>
      <trkpt lat="44.82221" lon="5.6863">
        <ele>693</ele>
        <time>2018-04-23T09:11:57Z</time>
      </trkpt>
      <trkpt lat="44.82236" lon="5.68604">
        <ele>690</ele>
        <time>2018-04-23T09:12:12Z</time>
      </trkpt>
      <trkpt lat="44.82244" lon="5.68596">
        <ele>689</ele>
        <time>2018-04-23T09:12:16Z</time>
      </trkpt>
      <trkpt lat="44.8225" lon="5.68594">
        <ele>688</ele>
        <time>2018-04-23T09:12:26Z</time>
      </trkpt>
      <trkpt lat="44.82263" lon="5.68601">
        <ele>691</ele>
        <time>2018-04-23T09:12:45Z</time>
      </trkpt>
      <trkpt lat="44.82287" lon="5.68621">
        <ele>694</ele>
        <time>2018-04-23T09:12:54Z</time>
      </trkpt>
      <trkpt lat="44.82308" lon="5.68626">
        <ele>694</ele>
        <time>2018-04-23T09:13:09Z</time>
      </trkpt>
      <trkpt lat="44.82334" lon="5.68625">
        <ele>693</ele>
        <time>2018-04-23T09:13:28Z</time>
      </trkpt>
      <trkpt lat="44.82343" lon="5.68628">
        <ele>694</ele>
        <time>2018-04-23T09:13:32Z</time>
      </trkpt>
      <trkpt lat="44.82365" lon="5.6864">
        <ele>694</ele>
        <time>2018-04-23T09:13:35Z</time>
      </trkpt>
      <trkpt lat="44.8238" lon="5.68647">
        <ele>695</ele>
        <time>2018-04-23T09:13:53Z</time>
      </trkpt>
      <trkpt lat="44.82393" lon="5.68648">
        <ele>695</ele>
        <time>2018-04-23T09:14:10Z</time>
      </trkpt>
      <trkpt lat="44.82406" lon="5.68644">
        <ele>695</ele>
        <time>2018-04-23T09:14:27Z</time>
      </trkpt>
      <trkpt lat="44.82433" lon="5.68629">
        <ele>695</ele>
        <time>2018-04-23T09:14:47Z</time>
      </trkpt>
      <trkpt lat="44.82492" lon="5.68579">
        <ele>693</ele>
        <time>2018-04-23T09:15:07Z</time>
      </trkpt>
      <trkpt lat="44.825" lon="5.68565">
        <ele>695</ele>
        <time>2018-04-23T09:15:14Z</time>
      </trkpt>
      <trkpt lat="44.82504" lon="5.68553">
        <ele>695</ele>
        <time>2018-04-23T09:15:16Z</time>
      </trkpt>
      <trkpt lat="44.82508" lon="5.68519">
        <ele>694</ele>
        <time>2018-04-23T09:15:25Z</time>
      </trkpt>
      <trkpt lat="44.82507" lon="5.68477">
        <ele>693</ele>
        <time>2018-04-23T09:15:39Z</time>
      </trkpt>
      <trkpt lat="44.8251" lon="5.68461">
        <ele>694</ele>
        <time>2018-04-23T09:15:59Z</time>
      </trkpt>
      <trkpt lat="44.82516" lon="5.68445">
        <ele>694</ele>
        <time>2018-04-23T09:16:02Z</time>
      </trkpt>
      <trkpt lat="44.82534" lon="5.6842">
        <ele>695</ele>
        <time>2018-04-23T09:16:22Z</time>
      </trkpt>
      <trkpt lat="44.82541" lon="5.68405">
        <ele>698</ele>
        <time>2018-04-23T09:16:39Z</time>
      </trkpt>
      <trkpt lat="44.82546" lon="5.68381">
        <ele>699</ele>
        <time>2018-04-23T09:16:49Z</time>
      </trkpt>
      <trkpt lat="44.82548" lon="5.68357">
        <ele>700</ele>
        <time>2018-04-23T09:16:51Z</time>
      </trkpt>
      <trkpt lat="44.82546" lon="5.68334">
        <ele>700</ele>
        <time>2018-04-23T09:17:07Z</time>
      </trkpt>
      <trkpt lat="44.8254" lon="5.6831">
        <ele>702</ele>
        <time>2018-04-23T09:17:10Z</time>
      </trkpt>
      <trkpt lat="44.8253" lon="5.68288">
        <ele>702</ele>
        <time>2018-04-23T09:17:15Z</time>
      </trkpt>
      <trkpt lat="44.82492" lon="5.68229">
        <ele>696</ele>
        <time>2018-04-23T09:17:30Z</time>
      </trkpt>
      <trkpt lat="44.82475" lon="5.68194">
        <ele>696</ele>
        <time>2018-04-23T09:17:44Z</time>
      </trkpt>
      <trkpt lat="44.82472" lon="5.68175">
        <ele>697</ele>
        <time>2018-04-23T09:18:03Z</time>
      </trkpt>
      <trkpt lat="44.82473" lon="5.68163">
        <ele>697</ele>
        <time>2018-04-23T09:18:19Z</time>
      </trkpt>
      <trkpt lat="44.8248" lon="5.68131">
        <ele>696</ele>
        <time>2018-04-23T09:18:24Z</time>
      </trkpt>
      <trkpt lat="44.8249" lon="5.68109">
        <ele>696</ele>
        <time>2018-04-23T09:18:40Z</time>
      </trkpt>
      <trkpt lat="44.82502" lon="5.68091">
        <ele>700</ele>
        <time>2018-04-23T09:18:55Z</time>
      </trkpt>
      <trkpt lat="44.82514" lon="5.68075">
        <ele>699</ele>
        <time>2018-04-23T09:19:13Z</time>
      </trkpt>
      <trkpt lat="44.82529" lon="5.68063">
        <ele>700</ele>
        <time>2018-04-23T09:19:27Z</time>
      </trkpt>
      <trkpt lat="44.82536" lon="5.68057">
        <ele>700</ele>
        <time>2018-04-23T09:19:40Z</time>
      </trkpt>
      <trkpt lat="44.82539" lon="5.68045">
        <ele>700</ele>
        <time>2018-04-23T09:19:47Z</time>
      </trkpt>
      <trkpt lat="44.82538" lon="5.68019">
        <ele>699</ele>
        <time>2018-04-23T09:19:49Z</time>
      </trkpt>
      <trkpt lat="44.82538" lon="5.68003">
        <ele>698</ele>
        <time>2018-04-23T09:19:51Z</time>
      </trkpt>
      <trkpt lat="44.82542" lon="5.67986">
        <ele>694</ele>
        <time>2018-04-23T09:20:10Z</time>
      </trkpt>
      <trkpt lat="44.82557" lon="5.67955">
        <ele>694</ele>
        <time>2018-04-23T09:20:18Z</time>
      </trkpt>
      <trkpt lat="44.82566" lon="5.67927">
        <ele>695</ele>
        <time>2018-04-23T09:20:26Z</time>
      </trkpt>
      <trkpt lat="44.82566" lon="5.67905">
        <ele>693</ele>
        <time>2018-04-23T09:20:42Z</time>
      </trkpt>
      <trkpt lat="44.82562" lon="5.67875">
        <ele>691</ele>
        <time>2018-04-23T09:20:44Z</time>
      </trkpt>
      <trkpt lat="44.82564" lon="5.67816">
        <ele>690</ele>
        <time>2018-04-23T09:21:01Z</time>
      </trkpt>
      <trkpt lat="44.82569" lon="5.67782">
        <ele>688</ele>
        <time>2018-04-23T09:21:15Z</time>
      </trkpt>
      <trkpt lat="44.82606" lon="5.67647">
        <ele>677</ele>
        <time>2018-04-23T09:21:33Z</time>
      </trkpt>
      <trkpt lat="44.82619" lon="5.67594">
        <ele>675</ele>
        <time>2018-04-23T09:21:35Z</time>
      </trkpt>
      <trkpt lat="44.82618" lon="5.67582">
        <ele>669</ele>
        <time>2018-04-23T09:21:37Z</time>
      </trkpt>
      <trkpt lat="44.82613" lon="5.67573">
        <ele>669</ele>
        <time>2018-04-23T09:21:45Z</time>
      </trkpt>
      <trkpt lat="44.82607" lon="5.67568">
        <ele>669</ele>
        <time>2018-04-23T09:21:50Z</time>
      </trkpt>
      <trkpt lat="44.82598" lon="5.67566">
        <ele>669</ele>
        <time>2018-04-23T09:22:08Z</time>
      </trkpt>
      <trkpt lat="44.82573" lon="5.6757">
        <ele>667</ele>
        <time>2018-04-23T09:22:20Z</time>
      </trkpt>
      <trkpt lat="44.82564" lon="5.67577">
        <ele>667</ele>
        <time>2018-04-23T09:22:33Z</time>
      </trkpt>
      <trkpt lat="44.8256" lon="5.67584">
        <ele>671</ele>
        <time>2018-04-23T09:22:50Z</time>
      </trkpt>
      <trkpt lat="44.82554" lon="5.67607">
        <ele>671</ele>
        <time>2018-04-23T09:23:06Z</time>
      </trkpt>
      <trkpt lat="44.82544" lon="5.67612">
        <ele>671</ele>
        <time>2018-04-23T09:23:14Z</time>
      </trkpt>
      <trkpt lat="44.82539" lon="5.6761">
        <ele>671</ele>
        <time>2018-04-23T09:23:32Z</time>
      </trkpt>
      <trkpt lat="44.82534" lon="5.67603">
        <ele>670</ele>
        <time>2018-04-23T09:23:45Z</time>
      </trkpt>
      <trkpt lat="44.82521" lon="5.67575">
        <ele>665</ele>
        <time>2018-04-23T09:23:53Z</time>
      </trkpt>
      <trkpt lat="44.8251" lon="5.67551">
        <ele>664</ele>
        <time>2018-04-23T09:24:08Z</time>
      </trkpt>
      <trkpt lat="44.82504" lon="5.67532">
        <ele>662</ele>
        <time>2018-04-23T09:24:15Z</time>
      </trkpt>
      <trkpt lat="44.82499" lon="5.67499">
        <ele>658</ele>
        <time>2018-04-23T09:24:24Z</time>
      </trkpt>
      <trkpt lat="44.82493" lon="5.67458">
        <ele>651</ele>
        <time>2018-04-23T09:24:33Z</time>
      </trkpt>
      <trkpt lat="44.82487" lon="5.6745">
        <ele>651</ele>
        <time>2018-04-23T09:24:36Z</time>
      </trkpt>
      <trkpt lat="44.82481" lon="5.67448">
        <ele>650</ele>
        <time>2018-04-23T09:24:44Z</time>
      </trkpt>
      <trkpt lat="44.82472" lon="5.67452">
        <ele>650</ele>
        <time>2018-04-23T09:24:58Z</time>
      </trkpt>
      <trkpt lat="44.82431" lon="5.67486">
        <ele>651</ele>
        <time>2018-04-23T09:25:03Z</time>
      </trkpt>
      <trkpt lat="44.82423" lon="5.67489">
        <ele>651</ele>
        <time>2018-04-23T09:25:06Z</time>
      </trkpt>
      <trkpt lat="44.82418" lon="5.67486">
        <ele>651</ele>
        <time>2018-04-23T09:25:15Z</time>
      </trkpt>
      <trkpt lat="44.82417" lon="5.67476">
        <ele>650</ele>
        <time>2018-04-23T09:25:29Z</time>
      </trkpt>
      <trkpt lat="44.82421" lon="5.67458">
        <ele>649</ele>
        <time>2018-04-23T09:25:43Z</time>
      </trkpt>
      <trkpt lat="44.82428" lon="5.67391">
        <ele>642</ele>
        <time>2018-04-23T09:25:54Z</time>
      </trkpt>
      <trkpt lat="44.82432" lon="5.67369">
        <ele>641</ele>
        <time>2018-04-23T09:26:00Z</time>
      </trkpt>
      <trkpt lat="44.82435" lon="5.67318">
        <ele>635</ele>
        <time>2018-04-23T09:26:09Z</time>
      </trkpt>
      <trkpt lat="44.82438" lon="5.67217">
        <ele>626</ele>
        <time>2018-04-23T09:26:19Z</time>
      </trkpt>
      <trkpt lat="44.82445" lon="5.67137">
        <ele>618</ele>
        <time>2018-04-23T09:26:37Z</time>
      </trkpt>
      <trkpt lat="44.82456" lon="5.67065">
        <ele>609</ele>
        <time>2018-04-23T09:26:48Z</time>
      </trkpt>
      <trkpt lat="44.82456" lon="5.67056">
        <ele>608</ele>
        <time>2018-04-23T09:26:53Z</time>
      </trkpt>
      <trkpt lat="44.82449" lon="5.67047">
        <ele>607</ele>
        <time>2018-04-23T09:26:55Z</time>
      </trkpt>
      <trkpt lat="44.82441" lon="5.67048">
        <ele>607</ele>
        <time>2018-04-23T09:27:03Z</time>
      </trkpt>
      <trkpt lat="44.82436" lon="5.67053">
        <ele>607</ele>
        <time>2018-04-23T09:27:19Z</time>
      </trkpt>
      <trkpt lat="44.82411" lon="5.67091">
        <ele>608</ele>
        <time>2018-04-23T09:27:26Z</time>
      </trkpt>
      <trkpt lat="44.82401" lon="5.67106">
        <ele>607</ele>
        <time>2018-04-23T09:27:41Z</time>
      </trkpt>
      <trkpt lat="44.82388" lon="5.67118">
        <ele>606</ele>
        <time>2018-04-23T09:27:47Z</time>
      </trkpt>
      <trkpt lat="44.82367" lon="5.67142">
        <ele>605</ele>
        <time>2018-04-23T09:27:57Z</time>
      </trkpt>
      <trkpt lat="44.82355" lon="5.67164">
        <ele>604</ele>
        <time>2018-04-23T09:28:03Z</time>
      </trkpt>
      <trkpt lat="44.82339" lon="5.67187">
        <ele>609</ele>
        <time>2018-04-23T09:28:09Z</time>
      </trkpt>
      <trkpt lat="44.82325" lon="5.67204">
        <ele>599</ele>
        <time>2018-04-23T09:28:28Z</time>
      </trkpt>
      <trkpt lat="44.8231" lon="5.6723">
        <ele>600</ele>
        <time>2018-04-23T09:28:44Z</time>
      </trkpt>
      <trkpt lat="44.82291" lon="5.67271">
        <ele>602</ele>
        <time>2018-04-23T09:28:57Z</time>
      </trkpt>
      <trkpt lat="44.82285" lon="5.67277">
        <ele>602</ele>
        <time>2018-04-23T09:29:04Z</time>
      </trkpt>
      <trkpt lat="44.82278" lon="5.67276">
        <ele>601</ele>
        <time>2018-04-23T09:29:16Z</time>
      </trkpt>
      <trkpt lat="44.82273" lon="5.67272">
        <ele>599</ele>
        <time>2018-04-23T09:29:34Z</time>
      </trkpt>
      <trkpt lat="44.82271" lon="5.67264">
        <ele>598</ele>
        <time>2018-04-23T09:29:37Z</time>
      </trkpt>
      <trkpt lat="44.82271" lon="5.67253">
        <ele>597</ele>
        <time>2018-04-23T09:29:48Z</time>
      </trkpt>
      <trkpt lat="44.8228" lon="5.67224">
        <ele>595</ele>
        <time>2018-04-23T09:30:00Z</time>
      </trkpt>
      <trkpt lat="44.82294" lon="5.67194">
        <ele>596</ele>
        <time>2018-04-23T09:30:05Z</time>
      </trkpt>
      <trkpt lat="44.82297" lon="5.67182">
        <ele>596</ele>
        <time>2018-04-23T09:30:10Z</time>
      </trkpt>
      <trkpt lat="44.82298" lon="5.67174">
        <ele>595</ele>
        <time>2018-04-23T09:30:29Z</time>
      </trkpt>
      <trkpt lat="44.82318" lon="5.67148">
        <ele>592</ele>
        <time>2018-04-23T09:30:33Z</time>
      </trkpt>
      <trkpt lat="44.82378" lon="5.67065">
        <ele>595</ele>
        <time>2018-04-23T09:30:45Z</time>
      </trkpt>
      <trkpt lat="44.82432" lon="5.66987">
        <ele>593</ele>
        <time>2018-04-23T09:30:54Z</time>
      </trkpt>
      <trkpt lat="44.82453" lon="5.66965">
        <ele>592</ele>
        <time>2018-04-23T09:31:04Z</time>
      </trkpt>
      <trkpt lat="44.82476" lon="5.66948">
        <ele>592</ele>
        <time>2018-04-23T09:31:23Z</time>
      </trkpt>
      <trkpt lat="44.82498" lon="5.6694">
        <ele>591</ele>
        <time>2018-04-23T09:31:26Z</time>
      </trkpt>
      <trkpt lat="44.82511" lon="5.66938">
        <ele>591</ele>
        <time>2018-04-23T09:31:46Z</time>
      </trkpt>
      <trkpt lat="44.82522" lon="5.6694">
        <ele>592</ele>
        <time>2018-04-23T09:31:49Z</time>
      </trkpt>
      <trkpt lat="44.82545" lon="5.6694">
        <ele>592</ele>
        <time>2018-04-23T09:32:01Z</time>
      </trkpt>
      <trkpt lat="44.82556" lon="5.66934">
        <ele>590</ele>
        <time>2018-04-23T09:32:20Z</time>
      </trkpt>
      <trkpt lat="44.82585" lon="5.66909">
        <ele>584</ele>
        <time>2018-04-23T09:32:33Z</time>
      </trkpt>
      <trkpt lat="44.82618" lon="5.66878">
        <ele>588</ele>
        <time>2018-04-23T09:32:42Z</time>
      </trkpt>
      <trkpt lat="44.82624" lon="5.66867">
        <ele>588</ele>
        <time>2018-04-23T09:32:45Z</time>
      </trkpt>
      <trkpt lat="44.8263" lon="5.66847">
        <ele>589</ele>
        <time>2018-04-23T09:33:03Z</time>
      </trkpt>
      <trkpt lat="44.82636" lon="5.66805">
        <ele>597</ele>
        <time>2018-04-23T09:33:14Z</time>
      </trkpt>
      <trkpt lat="44.82651" lon="5.66683">
        <ele>604</ele>
        <time>2018-04-23T09:33:25Z</time>
      </trkpt>
      <trkpt lat="44.82651" lon="5.66671">
        <ele>603</ele>
        <time>2018-04-23T09:33:33Z</time>
      </trkpt>
      <trkpt lat="44.82648" lon="5.66658">
        <ele>607</ele>
        <time>2018-04-23T09:33:36Z</time>
      </trkpt>
      <trkpt lat="44.82629" lon="5.66622">
        <ele>613</ele>
        <time>2018-04-23T09:33:43Z</time>
      </trkpt>
      <trkpt lat="44.82621" lon="5.66601">
        <ele>614</ele>
        <time>2018-04-23T09:33:59Z</time>
      </trkpt>
      <trkpt lat="44.8262" lon="5.66591">
        <ele>615</ele>
        <time>2018-04-23T09:34:06Z</time>
      </trkpt>
      <trkpt lat="44.82625" lon="5.66574">
        <ele>620</ele>
        <time>2018-04-23T09:34:21Z</time>
      </trkpt>
      <trkpt lat="44.82695" lon="5.66467">
        <ele>619</ele>
        <time>2018-04-23T09:34:37Z</time>
      </trkpt>
      <trkpt lat="44.82723" lon="5.66433">
        <ele>620</ele>
        <time>2018-04-23T09:34:42Z</time>
      </trkpt>
      <trkpt lat="44.82753" lon="5.66408">
        <ele>623</ele>
        <time>2018-04-23T09:34:55Z</time>
      </trkpt>
      <trkpt lat="44.82761" lon="5.66403">
        <ele>623</ele>
        <time>2018-04-23T09:34:57Z</time>
      </trkpt>
      <trkpt lat="44.82818" lon="5.66391">
        <ele>623</ele>
        <time>2018-04-23T09:35:16Z</time>
      </trkpt>
      <trkpt lat="44.8284" lon="5.66386">
        <ele>619</ele>
        <time>2018-04-23T09:35:31Z</time>
      </trkpt>
      <trkpt lat="44.82849" lon="5.6638">
        <ele>619</ele>
        <time>2018-04-23T09:35:39Z</time>
      </trkpt>
      <trkpt lat="44.82858" lon="5.66372">
        <ele>620</ele>
        <time>2018-04-23T09:35:41Z</time>
      </trkpt>
      <trkpt lat="44.82865" lon="5.66359">
        <ele>620</ele>
        <time>2018-04-23T09:35:57Z</time>
      </trkpt>
      <trkpt lat="44.82895" lon="5.66299">
        <ele>627</ele>
        <time>2018-04-23T09:36:06Z</time>
      </trkpt>
      <trkpt lat="44.82898" lon="5.66287">
        <ele>627</ele>
        <time>2018-04-23T09:36:14Z</time>
      </trkpt>
      <trkpt lat="44.82901" lon="5.66272">
        <ele>628</ele>
        <time>2018-04-23T09:36:34Z</time>
      </trkpt>
      <trkpt lat="44.82901" lon="5.66254">
        <ele>628</ele>
        <time>2018-04-23T09:36:37Z</time>
      </trkpt>
      <trkpt lat="44.829" lon="5.66214">
        <ele>636</ele>
        <time>2018-04-23T09:36:45Z</time>
      </trkpt>
      <trkpt lat="44.82902" lon="5.66196">
        <ele>637</ele>
        <time>2018-04-23T09:36:50Z</time>
      </trkpt>
      <trkpt lat="44.82907" lon="5.66179">
        <ele>637</ele>
        <time>2018-04-23T09:37:09Z</time>
      </trkpt>
      <trkpt lat="44.82924" lon="5.66153">
        <ele>636</ele>
        <time>2018-04-23T09:37:24Z</time>
      </trkpt>
      <trkpt lat="44.82951" lon="5.66125">
        <ele>637</ele>
        <time>2018-04-23T09:37:43Z</time>
      </trkpt>
      <trkpt lat="44.82959" lon="5.66115">
        <ele>637</ele>
        <time>2018-04-23T09:37:50Z</time>
      </trkpt>
      <trkpt lat="44.82966" lon="5.661">
        <ele>637</ele>
        <time>2018-04-23T09:37:54Z</time>
      </trkpt>
      <trkpt lat="44.8298" lon="5.66059">
        <ele>644</ele>
        <time>2018-04-23T09:38:14Z</time>
      </trkpt>
      <trkpt lat="44.82989" lon="5.66043">
        <ele>645</ele>
        <time>2018-04-23T09:38:27Z</time>
      </trkpt>
      <trkpt lat="44.83005" lon="5.66024">
        <ele>640</ele>
        <time>2018-04-23T09:38:47Z</time>
      </trkpt>
      <trkpt lat="44.83032" lon="5.66">
        <ele>639</ele>
        <time>2018-04-23T09:39:00Z</time>
      </trkpt>
      <trkpt lat="44.83041" lon="5.65984">
        <ele>643</ele>
        <time>2018-04-23T09:39:19Z</time>
      </trkpt>
      <trkpt lat="44.83047" lon="5.65964">
        <ele>643</ele>
        <time>2018-04-23T09:39:33Z</time>
      </trkpt>
      <trkpt lat="44.83051" lon="5.65939">
        <ele>643</ele>
        <time>2018-04-23T09:39:38Z</time>
      </trkpt>
      <trkpt lat="44.83051" lon="5.65909">
        <ele>645</ele>
        <time>2018-04-23T09:39:55Z</time>
      </trkpt>
      <trkpt lat="44.8305" lon="5.65876">
        <ele>645</ele>
        <time>2018-04-23T09:40:11Z</time>
      </trkpt>
      <trkpt lat="44.83048" lon="5.65858">
        <ele>645</ele>
        <time>2018-04-23T09:40:20Z</time>
      </trkpt>
      <trkpt lat="44.83041" lon="5.65839">
        <ele>646</ele>
        <time>2018-04-23T09:40:25Z</time>
      </trkpt>
      <trkpt lat="44.83032" lon="5.65824">
        <ele>644</ele>
        <time>2018-04-23T09:40:44Z</time>
      </trkpt>
      <trkpt lat="44.83021" lon="5.65807">
        <ele>644</ele>
        <time>2018-04-23T09:40:56Z</time>
      </trkpt>
      <trkpt lat="44.83009" lon="5.65796">
        <ele>644</ele>
        <time>2018-04-23T09:41:10Z</time>
      </trkpt>
      <trkpt lat="44.82987" lon="5.65777">
        <ele>651</ele>
        <time>2018-04-23T09:41:21Z</time>
      </trkpt>
      <trkpt lat="44.82941" lon="5.65747">
        <ele>652</ele>
        <time>2018-04-23T09:41:29Z</time>
      </trkpt>
      <trkpt lat="44.82925" lon="5.65737">
        <ele>654</ele>
        <time>2018-04-23T09:41:49Z</time>
      </trkpt>
      <trkpt lat="44.82905" lon="5.65718">
        <ele>660</ele>
        <time>2018-04-23T09:41:51Z</time>
      </trkpt>
      <trkpt lat="44.82878" lon="5.65681">
        <ele>660</ele>
        <time>2018-04-23T09:42:04Z</time>
      </trkpt>
      <trkpt lat="44.82843" lon="5.6563">
        <ele>657</ele>
        <time>2018-04-23T09:42:16Z</time>
      </trkpt>
      <trkpt lat="44.8283" lon="5.65621">
        <ele>664</ele>
        <time>2018-04-23T09:42:21Z</time>
      </trkpt>
      <trkpt lat="44.82776" lon="5.6559">
        <ele>667</ele>
        <time>2018-04-23T09:42:37Z</time>
      </trkpt>
      <trkpt lat="44.82752" lon="5.65572">
        <ele>666</ele>
        <time>2018-04-23T09:42:51Z</time>
      </trkpt>
      <trkpt lat="44.82721" lon="5.65549">
        <ele>672</ele>
        <time>2018-04-23T09:43:03Z</time>
      </trkpt>
      <trkpt lat="44.82705" lon="5.65533">
        <ele>673</ele>
        <time>2018-04-23T09:43:06Z</time>
      </trkpt>
      <trkpt lat="44.82694" lon="5.65511">
        <ele>673</ele>
        <time>2018-04-23T09:43:26Z</time>
      </trkpt>
      <trkpt lat="44.82691" lon="5.65489">
        <ele>673</ele>
        <time>2018-04-23T09:43:28Z</time>
      </trkpt>
      <trkpt lat="44.82694" lon="5.65451">
        <ele>673</ele>
        <time>2018-04-23T09:43:45Z</time>
      </trkpt>
      <trkpt lat="44.82701" lon="5.65409">
        <ele>673</ele>
        <time>2018-04-23T09:44:00Z</time>
      </trkpt>
      <trkpt lat="44.82706" lon="5.65376">
        <ele>671</ele>
        <time>2018-04-23T09:44:16Z</time>
      </trkpt>
      <trkpt lat="44.82707" lon="5.65354">
        <ele>671</ele>
        <time>2018-04-23T09:44:25Z</time>
      </trkpt>
      <trkpt lat="44.82694" lon="5.65287">
        <ele>675</ele>
        <time>2018-04-23T09:44:44Z</time>
      </trkpt>
      <trkpt lat="44.82691" lon="5.65261">
        <ele>678</ele>
        <time>2018-04-23T09:44:55Z</time>
      </trkpt>
      <trkpt lat="44.8269" lon="5.65236">
        <ele>681</ele>
        <time>2018-04-23T09:45:03Z</time>
      </trkpt>
      <trkpt lat="44.82693" lon="5.6517">
        <ele>683</ele>
        <time>2018-04-23T09:45:17Z</time>
      </trkpt>
      <trkpt lat="44.82693" lon="5.65096">
        <ele>684</ele>
        <time>2018-04-23T09:45:36Z</time>
      </trkpt>
      <trkpt lat="44.82691" lon="5.65061">
        <ele>684</ele>
        <time>2018-04-23T09:45:50Z</time>
      </trkpt>
      <trkpt lat="44.82686" lon="5.65026">
        <ele>683</ele>
        <time>2018-04-23T09:46:10Z</time>
      </trkpt>
      <trkpt lat="44.82653" lon="5.64919">
        <ele>695</ele>
        <time>2018-04-23T09:46:15Z</time>
      </trkpt>
      <trkpt lat="44.82634" lon="5.64857">
        <ele>699</ele>
        <time>2018-04-23T09:46:17Z</time>
      </trkpt>
      <trkpt lat="44.82633" lon="5.64843">
        <ele>699</ele>
        <time>2018-04-23T09:46:35Z</time>
      </trkpt>
      <trkpt lat="44.82635" lon="5.6483">
        <ele>700</ele>
        <time>2018-04-23T09:46:50Z</time>
      </trkpt>
      <trkpt lat="44.8264" lon="5.64814">
        <ele>701</ele>
        <time>2018-04-23T09:46:56Z</time>
      </trkpt>
      <trkpt lat="44.82649" lon="5.64801">
        <ele>701</ele>
        <time>2018-04-23T09:47:00Z</time>
      </trkpt>
      <trkpt lat="44.82666" lon="5.64787">
        <ele>701</ele>
        <time>2018-04-23T09:47:20Z</time>
      </trkpt>
      <trkpt lat="44.82678" lon="5.64778">
        <ele>689</ele>
        <time>2018-04-23T09:47:26Z</time>
      </trkpt>
      <trkpt lat="44.82691" lon="5.64764">
        <ele>689</ele>
        <time>2018-04-23T09:47:44Z</time>
      </trkpt>
      <trkpt lat="44.82698" lon="5.64749">
        <ele>693</ele>
        <time>2018-04-23T09:48:03Z</time>
      </trkpt>
      <trkpt lat="44.82705" lon="5.64714">
        <ele>693</ele>
        <time>2018-04-23T09:48:23Z</time>
      </trkpt>
      <trkpt lat="44.82718" lon="5.64648">
        <ele>693</ele>
        <time>2018-04-23T09:48:37Z</time>
      </trkpt>
      <trkpt lat="44.82722" lon="5.64621">
        <ele>693</ele>
        <time>2018-04-23T09:48:46Z</time>
      </trkpt>
      <trkpt lat="44.82722" lon="5.64599">
        <ele>692</ele>
        <time>2018-04-23T09:49:05Z</time>
      </trkpt>
      <trkpt lat="44.82718" lon="5.64576">
        <ele>692</ele>
        <time>2018-04-23T09:49:14Z</time>
      </trkpt>
      <trkpt lat="44.82709" lon="5.64551">
        <ele>693</ele>
        <time>2018-04-23T09:49:22Z</time>
      </trkpt>
      <trkpt lat="44.82683" lon="5.64496">
        <ele>697</ele>
        <time>2018-04-23T09:49:32Z</time>
      </trkpt>
      <trkpt lat="44.82676" lon="5.64477">
        <ele>697</ele>
        <time>2018-04-23T09:49:49Z</time>
      </trkpt>
      <trkpt lat="44.82674" lon="5.64459">
        <ele>697</ele>
        <time>2018-04-23T09:50:05Z</time>
      </trkpt>
      <trkpt lat="44.82676" lon="5.64439">
        <ele>699</ele>
        <time>2018-04-23T09:50:20Z</time>
      </trkpt>
      <trkpt lat="44.82699" lon="5.64334">
        <ele>704</ele>
        <time>2018-04-23T09:50:33Z</time>
      </trkpt>
      <trkpt lat="44.82708" lon="5.64316">
        <ele>710</ele>
        <time>2018-04-23T09:50:42Z</time>
      </trkpt>
      <trkpt lat="44.8272" lon="5.64301">
        <ele>711</ele>
        <time>2018-04-23T09:50:48Z</time>
      </trkpt>
      <trkpt lat="44.82747" lon="5.64285">
        <ele>711</ele>
        <time>2018-04-23T09:50:58Z</time>
      </trkpt>
      <trkpt lat="44.82761" lon="5.64273">
        <ele>704</ele>
        <time>2018-04-23T09:51:02Z</time>
      </trkpt>
      <trkpt lat="44.8277" lon="5.64256">
        <ele>705</ele>
        <time>2018-04-23T09:51:11Z</time>
      </trkpt>
      <trkpt lat="44.82774" lon="5.64238">
        <ele>711</ele>
        <time>2018-04-23T09:51:15Z</time>
      </trkpt>
      <trkpt lat="44.82775" lon="5.64201">
        <ele>713</ele>
        <time>2018-04-23T09:51:33Z</time>
      </trkpt>
      <trkpt lat="44.82778" lon="5.6418">
        <ele>715</ele>
        <time>2018-04-23T09:51:42Z</time>
      </trkpt>
      <trkpt lat="44.82785" lon="5.64162">
        <ele>720</ele>
        <time>2018-04-23T09:51:48Z</time>
      </trkpt>
      <trkpt lat="44.8279" lon="5.64155">
        <ele>719</ele>
        <time>2018-04-23T09:52:08Z</time>
      </trkpt>
      <trkpt lat="44.82815" lon="5.64134">
        <ele>716</ele>
        <time>2018-04-23T09:52:12Z</time>
      </trkpt>
      <trkpt lat="44.82826" lon="5.64121">
        <ele>715</ele>
        <time>2018-04-23T09:52:31Z</time>
      </trkpt>
      <trkpt lat="44.82834" lon="5.64106">
        <ele>701</ele>
        <time>2018-04-23T09:52:40Z</time>
      </trkpt>
      <trkpt lat="44.82837" lon="5.64089">
        <ele>705</ele>
        <time>2018-04-23T09:52:45Z</time>
      </trkpt>
      <trkpt lat="44.82837" lon="5.64075">
        <ele>706</ele>
        <time>2018-04-23T09:52:47Z</time>
      </trkpt>
      <trkpt lat="44.82834" lon="5.64059">
        <ele>704</ele>
        <time>2018-04-23T09:52:51Z</time>
      </trkpt>
      <trkpt lat="44.82825" lon="5.64038">
        <ele>721</ele>
        <time>2018-04-23T09:53:08Z</time>
      </trkpt>
      <trkpt lat="44.82821" lon="5.64022">
        <ele>721</ele>
        <time>2018-04-23T09:53:23Z</time>
      </trkpt>
      <trkpt lat="44.82821" lon="5.64003">
        <ele>719</ele>
        <time>2018-04-23T09:53:42Z</time>
      </trkpt>
      <trkpt lat="44.82836" lon="5.63965">
        <ele>709</ele>
        <time>2018-04-23T09:53:55Z</time>
      </trkpt>
      <trkpt lat="44.8284" lon="5.6395">
        <ele>709</ele>
        <time>2018-04-23T09:54:14Z</time>
      </trkpt>
      <trkpt lat="44.8284" lon="5.63937">
        <ele>710</ele>
        <time>2018-04-23T09:54:22Z</time>
      </trkpt>
      <trkpt lat="44.82838" lon="5.63926">
        <ele>713</ele>
        <time>2018-04-23T09:54:35Z</time>
      </trkpt>
      <trkpt lat="44.82833" lon="5.63914">
        <ele>717</ele>
        <time>2018-04-23T09:54:54Z</time>
      </trkpt>
      <trkpt lat="44.82823" lon="5.63903">
        <ele>717</ele>
        <time>2018-04-23T09:55:01Z</time>
      </trkpt>
      <trkpt lat="44.82805" lon="5.63894">
        <ele>718</ele>
        <time>2018-04-23T09:55:15Z</time>
      </trkpt>
      <trkpt lat="44.82638" lon="5.63847">
        <ele>738</ele>
        <time>2018-04-23T09:55:27Z</time>
      </trkpt>
      <trkpt lat="44.82615" lon="5.63834">
        <ele>741</ele>
        <time>2018-04-23T09:55:37Z</time>
      </trkpt>
      <trkpt lat="44.82605" lon="5.63824">
        <ele>733</ele>
        <time>2018-04-23T09:55:41Z</time>
      </trkpt>
      <trkpt lat="44.82597" lon="5.6381">
        <ele>732</ele>
        <time>2018-04-23T09:55:50Z</time>
      </trkpt>
      <trkpt lat="44.8259" lon="5.63794">
        <ele>730</ele>
        <time>2018-04-23T09:56:05Z</time>
      </trkpt>
      <trkpt lat="44.82585" lon="5.63775">
        <ele>728</ele>
        <time>2018-04-23T09:56:23Z</time>
      </trkpt>
      <trkpt lat="44.82575" lon="5.63647">
        <ele>723</ele>
        <time>2018-04-23T09:56:28Z</time>
      </trkpt>
      <trkpt lat="44.82565" lon="5.63538">
        <ele>727</ele>
        <time>2018-04-23T09:56:41Z</time>
      </trkpt>
      <trkpt lat="44.82567" lon="5.63509">
        <ele>728</ele>
        <time>2018-04-23T09:56:50Z</time>
      </trkpt>
      <trkpt lat="44.82571" lon="5.63481">
        <ele>731</ele>
        <time>2018-04-23T09:57:10Z</time>
      </trkpt>
      <trkpt lat="44.82583" lon="5.63429">
        <ele>733</ele>
        <time>2018-04-23T09:57:24Z</time>
      </trkpt>
      <trkpt lat="44.82596" lon="5.63365">
        <ele>731</ele>
        <time>2018-04-23T09:57:30Z</time>
      </trkpt>
      <trkpt lat="44.82618" lon="5.6326">
        <ele>736</ele>
        <time>2018-04-23T09:57:39Z</time>
      </trkpt>
      <trkpt lat="44.82656" lon="5.63149">
        <ele>747</ele>
        <time>2018-04-23T09:57:45Z</time>
      </trkpt>
      <trkpt lat="44.82662" lon="5.63123">
        <ele>750</ele>
        <time>2018-04-23T09:57:56Z</time>
      </trkpt>
      <trkpt lat="44.82664" lon="5.631">
        <ele>750</ele>
        <time>2018-04-23T09:58:09Z</time>
      </trkpt>
      <trkpt lat="44.8266" lon="5.63012">
        <ele>753</ele>
        <time>2018-04-23T09:58:21Z</time>
      </trkpt>
      <trkpt lat="44.82661" lon="5.62994">
        <ele>750</ele>
        <time>2018-04-23T09:58:39Z</time>
      </trkpt>
      <trkpt lat="44.82669" lon="5.6296">
        <ele>745</ele>
        <time>2018-04-23T09:58:42Z</time>
      </trkpt>
      <trkpt lat="44.82697" lon="5.62852">
        <ele>743</ele>
        <time>2018-04-23T09:58:57Z</time>
      </trkpt>
      <trkpt lat="44.82705" lon="5.62828">
        <ele>744</ele>
        <time>2018-04-23T09:59:03Z</time>
      </trkpt>
      <trkpt lat="44.82712" lon="5.62799">
        <ele>745</ele>
        <time>2018-04-23T09:59:16Z</time>
      </trkpt>
      <trkpt lat="44.82713" lon="5.62781">
        <ele>745</ele>
        <time>2018-04-23T09:59:33Z</time>
      </trkpt>
      <trkpt lat="44.82712" lon="5.62762">
        <ele>746</ele>
        <time>2018-04-23T09:59:50Z</time>
      </trkpt>
      <trkpt lat="44.82706" lon="5.62697">
        <ele>751</ele>
        <time>2018-04-23T10:00:07Z</time>
      </trkpt>
      <trkpt lat="44.82702" lon="5.62623">
        <ele>754</ele>
        <time>2018-04-23T10:00:17Z</time>
      </trkpt>
      <trkpt lat="44.82703" lon="5.62596">
        <ele>754</ele>
        <time>2018-04-23T10:00:33Z</time>
      </trkpt>
      <trkpt lat="44.82709" lon="5.62563">
        <ele>756</ele>
        <time>2018-04-23T10:00:50Z</time>
      </trkpt>
      <trkpt lat="44.82727" lon="5.6252">
        <ele>757</ele>
        <time>2018-04-23T10:01:05Z</time>
      </trkpt>
      <trkpt lat="44.82755" lon="5.62487">
        <ele>758</ele>
        <time>2018-04-23T10:01:18Z</time>
      </trkpt>
      <trkpt lat="44.82758" lon="5.6248">
        <ele>758</ele>
        <time>2018-04-23T10:01:35Z</time>
      </trkpt>
      <trkpt lat="44.82759" lon="5.6245">
        <ele>758</ele>
        <time>2018-04-23T10:01:37Z</time>
      </trkpt>
      <trkpt lat="44.82755" lon="5.62388">
        <ele>760</ele>
        <time>2018-04-23T10:01:53Z</time>
      </trkpt>
      <trkpt lat="44.82755" lon="5.62326">
        <ele>763</ele>
        <time>2018-04-23T10:02:13Z</time>
      </trkpt>
      <trkpt lat="44.82754" lon="5.6231">
        <ele>763</ele>
        <time>2018-04-23T10:02:25Z</time>
      </trkpt>
      <trkpt lat="44.8275" lon="5.6228">
        <ele>764</ele>
        <time>2018-04-23T10:02:37Z</time>
      </trkpt>
      <trkpt lat="44.82745" lon="5.62254">
        <ele>768</ele>
        <time>2018-04-23T10:02:54Z</time>
      </trkpt>
      <trkpt lat="44.82745" lon="5.62239">
        <ele>769</ele>
        <time>2018-04-23T10:02:58Z</time>
      </trkpt>
      <trkpt lat="44.82769" lon="5.62144">
        <ele>769</ele>
        <time>2018-04-23T10:03:12Z</time>
      </trkpt>
      <trkpt lat="44.82774" lon="5.62122">
        <ele>769</ele>
        <time>2018-04-23T10:03:25Z</time>
      </trkpt>
      <trkpt lat="44.82776" lon="5.62102">
        <ele>770</ele>
        <time>2018-04-23T10:03:34Z</time>
      </trkpt>
      <trkpt lat="44.82765" lon="5.62018">
        <ele>773</ele>
        <time>2018-04-23T10:03:40Z</time>
      </trkpt>
      <trkpt lat="44.8273" lon="5.61859">
        <ele>782</ele>
        <time>2018-04-23T10:04:00Z</time>
      </trkpt>
      <trkpt lat="44.82723" lon="5.61822">
        <ele>784</ele>
        <time>2018-04-23T10:04:12Z</time>
      </trkpt>
      <trkpt lat="44.82718" lon="5.618">
        <ele>785</ele>
        <time>2018-04-23T10:04:15Z</time>
      </trkpt>
      <trkpt lat="44.82716" lon="5.6177">
        <ele>786</ele>
        <time>2018-04-23T10:04:30Z</time>
      </trkpt>
      <trkpt lat="44.82718" lon="5.61734">
        <ele>790</ele>
        <time>2018-04-23T10:04:42Z</time>
      </trkpt>
      <trkpt lat="44.82735" lon="5.61673">
        <ele>791</ele>
        <time>2018-04-23T10:04:59Z</time>
      </trkpt>
      <trkpt lat="44.82752" lon="5.61632">
        <ele>793</ele>
        <time>2018-04-23T10:05:09Z</time>
      </trkpt>
      <trkpt lat="44.82778" lon="5.61598">
        <ele>794</ele>
        <time>2018-04-23T10:05:21Z</time>
      </trkpt>
      <trkpt lat="44.82842" lon="5.61518">
        <ele>800</ele>
        <time>2018-04-23T10:05:36Z</time>
      </trkpt>
      <trkpt lat="44.8285" lon="5.61505">
        <ele>800</ele>
        <time>2018-04-23T10:05:56Z</time>
      </trkpt>
      <trkpt lat="44.82869" lon="5.61468">
        <ele>805</ele>
        <time>2018-04-23T10:06:07Z</time>
      </trkpt>
      <trkpt lat="44.82876" lon="5.61449">
        <ele>806</ele>
        <time>2018-04-23T10:06:13Z</time>
      </trkpt>
      <trkpt lat="44.82879" lon="5.61429">
        <ele>806</ele>
        <time>2018-04-23T10:06:21Z</time>
      </trkpt>
      <trkpt lat="44.82881" lon="5.61401">
        <ele>810</ele>
        <time>2018-04-23T10:06:41Z</time>
      </trkpt>
      <trkpt lat="44.82881" lon="5.61374">
        <ele>810</ele>
        <time>2018-04-23T10:06:46Z</time>
      </trkpt>
      <trkpt lat="44.82865" lon="5.61303">
        <ele>813</ele>
        <time>2018-04-23T10:06:57Z</time>
      </trkpt>
      <trkpt lat="44.82841" lon="5.61219">
        <ele>815</ele>
        <time>2018-04-23T10:06:59Z</time>
      </trkpt>
      <trkpt lat="44.82818" lon="5.61132">
        <ele>823</ele>
        <time>2018-04-23T10:07:10Z</time>
      </trkpt>
      <trkpt lat="44.82808" lon="5.61101">
        <ele>822</ele>
        <time>2018-04-23T10:07:22Z</time>
      </trkpt>
      <trkpt lat="44.82795" lon="5.61077">
        <ele>820</ele>
        <time>2018-04-23T10:07:33Z</time>
      </trkpt>
      <trkpt lat="44.82786" lon="5.61065">
        <ele>820</ele>
        <time>2018-04-23T10:07:50Z</time>
      </trkpt>
      <trkpt lat="44.82774" lon="5.61057">
        <ele>821</ele>
        <time>2018-04-23T10:08:05Z</time>
      </trkpt>
      <trkpt lat="44.82764" lon="5.61049">
        <ele>821</ele>
        <time>2018-04-23T10:08:18Z</time>
      </trkpt>
      <trkpt lat="44.82761" lon="5.61048">
        <ele>821</ele>
        <time>2018-04-23T10:08:24Z</time>
      </trkpt>
      <trkpt lat="44.82738" lon="5.61033">
        <ele>824</ele>
        <time>2018-04-23T10:08:30Z</time>
      </trkpt>
      <trkpt lat="44.82732" lon="5.61032">
        <ele>824</ele>
        <time>2018-04-23T10:08:49Z</time>
      </trkpt>
      <trkpt lat="44.8273" lon="5.61031">
        <ele>825</ele>
        <time>2018-04-23T10:08:57Z</time>
      </trkpt>
      <trkpt lat="44.82722" lon="5.61029">
        <ele>825</ele>
        <time>2018-04-23T10:09:11Z</time>
      </trkpt>
      <trkpt lat="44.8272" lon="5.61036">
        <ele>825</ele>
        <time>2018-04-23T10:09:29Z</time>
      </trkpt>
      <trkpt lat="44.82718" lon="5.61046">
        <ele>826</ele>
        <time>2018-04-23T10:09:36Z</time>
      </trkpt>
      <trkpt lat="44.8271" lon="5.61047">
        <ele>826</ele>
        <time>2018-04-23T10:09:56Z</time>
      </trkpt>
      <trkpt lat="44.82702" lon="5.61048">
        <ele>826</ele>
        <time>2018-04-23T10:10:05Z</time>
      </trkpt>
      <trkpt lat="44.82682" lon="5.61049">
        <ele>827</ele>
        <time>2018-04-23T10:10:12Z</time>
      </trkpt>
      <trkpt lat="44.82672" lon="5.6104">
        <ele>827</ele>
        <time>2018-04-23T10:10:20Z</time>
      </trkpt>
      <trkpt lat="44.82669" lon="5.61033">
        <ele>827</ele>
        <time>2018-04-23T10:10:39Z</time>
      </trkpt>
      <trkpt lat="44.8267" lon="5.60999">
        <ele>827</ele>
        <time>2018-04-23T10:10:49Z</time>
      </trkpt>
      <trkpt lat="44.82674" lon="5.60965">
        <ele>826</ele>
        <time>2018-04-23T10:10:56Z</time>
      </trkpt>
      <trkpt lat="44.82705" lon="5.60803">
        <ele>829</ele>
        <time>2018-04-23T10:11:13Z</time>
      </trkpt>
      <trkpt lat="44.82723" lon="5.6074">
        <ele>830</ele>
        <time>2018-04-23T10:11:31Z</time>
      </trkpt>
      <trkpt lat="44.82726" lon="5.60717">
        <ele>830</ele>
        <time>2018-04-23T10:11:35Z</time>
      </trkpt>
      <trkpt lat="44.82739" lon="5.60578">
        <ele>831</ele>
        <time>2018-04-23T10:11:44Z</time>
      </trkpt>
      <trkpt lat="44.82743" lon="5.60545">
        <ele>832</ele>
        <time>2018-04-23T10:11:52Z</time>
      </trkpt>
      <trkpt lat="44.82747" lon="5.6053">
        <ele>832</ele>
        <time>2018-04-23T10:12:11Z</time>
      </trkpt>
      <trkpt lat="44.82756" lon="5.60515">
        <ele>832</ele>
        <time>2018-04-23T10:12:14Z</time>
      </trkpt>
      <trkpt lat="44.82774" lon="5.60503">
        <ele>833</ele>
        <time>2018-04-23T10:12:33Z</time>
      </trkpt>
      <trkpt lat="44.82791" lon="5.60494">
        <ele>834</ele>
        <time>2018-04-23T10:12:45Z</time>
      </trkpt>
      <trkpt lat="44.8281" lon="5.60488">
        <ele>834</ele>
        <time>2018-04-23T10:13:01Z</time>
      </trkpt>
      <trkpt lat="44.8282" lon="5.60487">
        <ele>834</ele>
        <time>2018-04-23T10:13:18Z</time>
      </trkpt>
      <trkpt lat="44.8284" lon="5.60485">
        <ele>835</ele>
        <time>2018-04-23T10:13:26Z</time>
      </trkpt>
      <trkpt lat="44.82854" lon="5.60479">
        <ele>836</ele>
        <time>2018-04-23T10:13:28Z</time>
      </trkpt>
      <trkpt lat="44.82896" lon="5.60439">
        <ele>838</ele>
        <time>2018-04-23T10:13:33Z</time>
      </trkpt>
      <trkpt lat="44.82917" lon="5.6042">
        <ele>840</ele>
        <time>2018-04-23T10:13:52Z</time>
      </trkpt>
      <trkpt lat="44.82895" lon="5.60348">
        <ele>842</ele>
        <time>2018-04-23T10:13:56Z</time>
      </trkpt>
      <trkpt lat="44.82865" lon="5.60252">
        <ele>847</ele>
        <time>2018-04-23T10:14:07Z</time>
      </trkpt>
      <trkpt lat="44.82854" lon="5.60214">
        <ele>851</ele>
        <time>2018-04-23T10:14:19Z</time>
      </trkpt>
      <trkpt lat="44.82852" lon="5.60184">
        <ele>852</ele>
        <time>2018-04-23T10:14:33Z</time>
      </trkpt>
      <trkpt lat="44.82855" lon="5.60149">
        <ele>854</ele>
        <time>2018-04-23T10:14:44Z</time>
      </trkpt>
      <trkpt lat="44.82865" lon="5.60105">
        <ele>855</ele>
        <time>2018-04-23T10:15:03Z</time>
      </trkpt>
      <trkpt lat="44.82875" lon="5.60054">
        <ele>858</ele>
        <time>2018-04-23T10:15:17Z</time>
      </trkpt>
      <trkpt lat="44.82877" lon="5.59989">
        <ele>862</ele>
        <time>2018-04-23T10:15:22Z</time>
      </trkpt>
      <trkpt lat="44.82873" lon="5.59944">
        <ele>863</ele>
        <time>2018-04-23T10:15:25Z</time>
      </trkpt>
      <trkpt lat="44.82865" lon="5.5991">
        <ele>866</ele>
        <time>2018-04-23T10:15:42Z</time>
      </trkpt>
      <trkpt lat="44.82855" lon="5.59878">
        <ele>866</ele>
        <time>2018-04-23T10:16:00Z</time>
      </trkpt>
      <trkpt lat="44.82786" lon="5.59731">
        <ele>876</ele>
        <time>2018-04-23T10:16:20Z</time>
      </trkpt>
      <trkpt lat="44.82729" lon="5.59614">
        <ele>887</ele>
        <time>2018-04-23T10:16:23Z</time>
      </trkpt>
      <trkpt lat="44.82718" lon="5.59591">
        <ele>888</ele>
        <time>2018-04-23T10:16:43Z</time>
      </trkpt>
      <trkpt lat="44.82706" lon="5.59556">
        <ele>892</ele>
        <time>2018-04-23T10:17:01Z</time>
      </trkpt>
      <trkpt lat="44.82694" lon="5.5946">
        <ele>899</ele>
        <time>2018-04-23T10:17:18Z</time>
      </trkpt>
      <trkpt lat="44.82674" lon="5.59272">
        <ele>903</ele>
        <time>2018-04-23T10:17:24Z</time>
      </trkpt>
      <trkpt lat="44.82666" lon="5.59206">
        <ele>924</ele>
        <time>2018-04-23T10:17:37Z</time>
      </trkpt>
      <trkpt lat="44.82652" lon="5.59143">
        <ele>915</ele>
        <time>2018-04-23T10:17:42Z</time>
      </trkpt>
      <trkpt lat="44.82637" lon="5.59085">
        <ele>914</ele>
        <time>2018-04-23T10:17:55Z</time>
      </trkpt>
      <trkpt lat="44.82625" lon="5.5905">
        <ele>906</ele>
        <time>2018-04-23T10:18:05Z</time>
      </trkpt>
      <trkpt lat="44.82584" lon="5.58976">
        <ele>899</ele>
        <time>2018-04-23T10:18:19Z</time>
      </trkpt>
      <trkpt lat="44.82537" lon="5.58892">
        <ele>906</ele>
        <time>2018-04-23T10:18:37Z</time>
      </trkpt>
      <trkpt lat="44.82523" lon="5.58864">
        <ele>905</ele>
        <time>2018-04-23T10:18:57Z</time>
      </trkpt>
      <trkpt lat="44.82508" lon="5.58843">
        <ele>907</ele>
        <time>2018-04-23T10:19:17Z</time>
      </trkpt>
      <trkpt lat="44.82487" lon="5.58816">
        <ele>915</ele>
        <time>2018-04-23T10:19:29Z</time>
      </trkpt>
      <trkpt lat="44.8247" lon="5.58798">
        <ele>918</ele>
        <time>2018-04-23T10:19:40Z</time>
      </trkpt>
      <trkpt lat="44.82457" lon="5.58786">
        <ele>920</ele>
        <time>2018-04-23T10:19:51Z</time>
      </trkpt>
      <trkpt lat="44.82448" lon="5.58775">
        <ele>922</ele>
        <time>2018-04-23T10:20:05Z</time>
      </trkpt>
      <trkpt lat="44.82442" lon="5.58763">
        <ele>924</ele>
        <time>2018-04-23T10:20:22Z</time>
      </trkpt>
      <trkpt lat="44.82434" lon="5.58723">
        <ele>912</ele>
        <time>2018-04-23T10:20:35Z</time>
      </trkpt>
      <trkpt lat="44.82412" lon="5.58628">
        <ele>932</ele>
        <time>2018-04-23T10:20:47Z</time>
      </trkpt>
      <trkpt lat="44.82358" lon="5.58459">
        <ele>923</ele>
        <time>2018-04-23T10:20:49Z</time>
      </trkpt>
      <trkpt lat="44.82347" lon="5.58432">
        <ele>923</ele>
        <time>2018-04-23T10:20:59Z</time>
      </trkpt>
      <trkpt lat="44.82323" lon="5.58379">
        <ele>933</ele>
        <time>2018-04-23T10:21:10Z</time>
      </trkpt>
      <trkpt lat="44.82308" lon="5.58354">
        <ele>932</ele>
        <time>2018-04-23T10:21:13Z</time>
      </trkpt>
      <trkpt lat="44.82293" lon="5.58338">
        <ele>933</ele>
        <time>2018-04-23T10:21:17Z</time>
      </trkpt>
      <trkpt lat="44.82278" lon="5.58329">
        <ele>926</ele>
        <time>2018-04-23T10:21:30Z</time>
      </trkpt>
      <trkpt lat="44.82256" lon="5.58315">
        <ele>928</ele>
        <time>2018-04-23T10:21:43Z</time>
      </trkpt>
      <trkpt lat="44.82242" lon="5.58305">
        <ele>935</ele>
        <time>2018-04-23T10:21:51Z</time>
      </trkpt>
      <trkpt lat="44.82229" lon="5.5829">
        <ele>934</ele>
        <time>2018-04-23T10:22:08Z</time>
      </trkpt>
      <trkpt lat="44.82214" lon="5.58266">
        <ele>932</ele>
        <time>2018-04-23T10:22:23Z</time>
      </trkpt>
      <trkpt lat="44.82206" lon="5.5825">
        <ele>925</ele>
        <time>2018-04-23T10:22:39Z</time>
      </trkpt>
      <trkpt lat="44.82196" lon="5.58238">
        <ele>925</ele>
        <time>2018-04-23T10:22:52Z</time>
      </trkpt>
      <trkpt lat="44.82181" lon="5.58229">
        <ele>926</ele>
        <time>2018-04-23T10:23:07Z</time>
      </trkpt>
      <trkpt lat="44.82135" lon="5.58207">
        <ele>928</ele>
        <time>2018-04-23T10:23:16Z</time>
      </trkpt>
      <trkpt lat="44.82077" lon="5.58178">
        <ele>932</ele>
        <time>2018-04-23T10:23:29Z</time>
      </trkpt>
      <trkpt lat="44.82061" lon="5.58175">
        <ele>934</ele>
        <time>2018-04-23T10:23:41Z</time>
      </trkpt>
      <trkpt lat="44.82052" lon="5.58176">
        <ele>936</ele>
        <time>2018-04-23T10:23:47Z</time>
      </trkpt>
      <trkpt lat="44.82042" lon="5.58183">
        <ele>938</ele>
        <time>2018-04-23T10:24:03Z</time>
      </trkpt>
      <trkpt lat="44.82036" lon="5.5819">
        <ele>938</ele>
        <time>2018-04-23T10:24:12Z</time>
      </trkpt>
      <trkpt lat="44.82024" lon="5.5822">
        <ele>938</ele>
        <time>2018-04-23T10:24:16Z</time>
      </trkpt>
      <trkpt lat="44.82012" lon="5.58263">
        <ele>938</ele>
        <time>2018-04-23T10:24:25Z</time>
      </trkpt>
      <trkpt lat="44.82" lon="5.58288">
        <ele>939</ele>
        <time>2018-04-23T10:24:27Z</time>
      </trkpt>
      <trkpt lat="44.81996" lon="5.58295">
        <ele>941</ele>
        <time>2018-04-23T10:24:34Z</time>
      </trkpt>
      <trkpt lat="44.81986" lon="5.58301">
        <ele>941</ele>
        <time>2018-04-23T10:24:46Z</time>
      </trkpt>
      <trkpt lat="44.81976" lon="5.58303">
        <ele>941</ele>
        <time>2018-04-23T10:24:48Z</time>
      </trkpt>
      <trkpt lat="44.81952" lon="5.58301">
        <ele>943</ele>
        <time>2018-04-23T10:25:04Z</time>
      </trkpt>
      <trkpt lat="44.8191" lon="5.58291">
        <ele>947</ele>
        <time>2018-04-23T10:25:23Z</time>
      </trkpt>
      <trkpt lat="44.81846" lon="5.58276">
        <ele>947</ele>
        <time>2018-04-23T10:25:31Z</time>
      </trkpt>
      <trkpt lat="44.81803" lon="5.58271">
        <ele>946</ele>
        <time>2018-04-23T10:25:50Z</time>
      </trkpt>
      <trkpt lat="44.81772" lon="5.58267">
        <ele>946</ele>
        <time>2018-04-23T10:25:52Z</time>
      </trkpt>
      <trkpt lat="44.81757" lon="5.58261">
        <ele>947</ele>
        <time>2018-04-23T10:26:08Z</time>
      </trkpt>
      <trkpt lat="44.81716" lon="5.58233">
        <ele>948</ele>
        <time>2018-04-23T10:26:20Z</time>
      </trkpt>
      <trkpt lat="44.81632" lon="5.58173">
        <ele>947</ele>
        <time>2018-04-23T10:26:37Z</time>
      </trkpt>
      <trkpt lat="44.81602" lon="5.5816">
        <ele>952</ele>
        <time>2018-04-23T10:26:49Z</time>
      </trkpt>
      <trkpt lat="44.81582" lon="5.58156">
        <ele>952</ele>
        <time>2018-04-23T10:27:08Z</time>
      </trkpt>
      <trkpt lat="44.81536" lon="5.58154">
        <ele>956</ele>
        <time>2018-04-23T10:27:22Z</time>
      </trkpt>
      <trkpt lat="44.81512" lon="5.5815">
        <ele>955</ele>
        <time>2018-04-23T10:27:27Z</time>
      </trkpt>
      <trkpt lat="44.81489" lon="5.5814">
        <ele>956</ele>
        <time>2018-04-23T10:27:41Z</time>
      </trkpt>
      <trkpt lat="44.81474" lon="5.58136">
        <ele>957</ele>
        <time>2018-04-23T10:28:00Z</time>
      </trkpt>
      <trkpt lat="44.81465" lon="5.5814">
        <ele>957</ele>
        <time>2018-04-23T10:28:09Z</time>
      </trkpt>
      <trkpt lat="44.81456" lon="5.58148">
        <ele>957</ele>
        <time>2018-04-23T10:28:23Z</time>
      </trkpt>
      <trkpt lat="44.81436" lon="5.5817">
        <ele>954</ele>
        <time>2018-04-23T10:28:37Z</time>
      </trkpt>
      <trkpt lat="44.81407" lon="5.58188">
        <ele>956</ele>
        <time>2018-04-23T10:28:52Z</time>
      </trkpt>
      <trkpt lat="44.8138" lon="5.582">
        <ele>956</ele>
        <time>2018-04-23T10:29:04Z</time>
      </trkpt>
      <trkpt lat="44.81347" lon="5.58214">
        <ele>957</ele>
        <time>2018-04-23T10:29:14Z</time>
      </trkpt>
      <trkpt lat="44.81301" lon="5.5823">
        <ele>960</ele>
        <time>2018-04-23T10:29:30Z</time>
      </trkpt>
      <trkpt lat="44.81208" lon="5.5825">
        <ele>964</ele>
        <time>2018-04-23T10:29:36Z</time>
      </trkpt>
      <trkpt lat="44.81149" lon="5.5826">
        <ele>965</ele>
        <time>2018-04-23T10:29:51Z</time>
      </trkpt>
      <trkpt lat="44.8114" lon="5.5826">
        <ele>966</ele>
        <time>2018-04-23T10:29:59Z</time>
      </trkpt>
      <trkpt lat="44.81116" lon="5.5827">
        <ele>967</ele>
        <time>2018-04-23T10:30:14Z</time>
      </trkpt>
      <trkpt lat="44.81092" lon="5.5829">
        <ele>967</ele>
        <time>2018-04-23T10:30:32Z</time>
      </trkpt>
      <trkpt lat="44.81078" lon="5.58306">
        <ele>969</ele>
        <time>2018-04-23T10:30:48Z</time>
      </trkpt>
      <trkpt lat="44.81037" lon="5.58372">
        <ele>971</ele>
        <time>2018-04-23T10:30:50Z</time>
      </trkpt>
      <trkpt lat="44.80978" lon="5.58463">
        <ele>979</ele>
        <time>2018-04-23T10:31:00Z</time>
      </trkpt>
      <trkpt lat="44.80957" lon="5.58495">
        <ele>981</ele>
        <time>2018-04-23T10:31:16Z</time>
      </trkpt>
      <trkpt lat="44.8094" lon="5.5851">
        <ele>990</ele>
        <time>2018-04-23T10:31:30Z</time>
      </trkpt>
      <trkpt lat="44.80904" lon="5.58532">
        <ele>986</ele>
        <time>2018-04-23T10:31:42Z</time>
      </trkpt>
      <trkpt lat="44.80857" lon="5.58569">
        <ele>987</ele>
        <time>2018-04-23T10:31:55Z</time>
      </trkpt>
      <trkpt lat="44.80822" lon="5.58599">
        <ele>992</ele>
        <time>2018-04-23T10:32:14Z</time>
      </trkpt>
      <trkpt lat="44.80756" lon="5.58659">
        <ele>999</ele>
        <time>2018-04-23T10:32:25Z</time>
      </trkpt>
      <trkpt lat="44.80726" lon="5.58682">
        <ele>1008</ele>
        <time>2018-04-23T10:32:27Z</time>
      </trkpt>
      <trkpt lat="44.80682" lon="5.58701">
        <ele>1010</ele>
        <time>2018-04-23T10:32:31Z</time>
      </trkpt>
      <trkpt lat="44.80629" lon="5.58719">
        <ele>1010</ele>
        <time>2018-04-23T10:32:36Z</time>
      </trkpt>
      <trkpt lat="44.80581" lon="5.58728">
        <ele>1012</ele>
        <time>2018-04-23T10:32:49Z</time>
      </trkpt>
      <trkpt lat="44.80555" lon="5.58732">
        <ele>1011</ele>
        <time>2018-04-23T10:33:07Z</time>
      </trkpt>
      <trkpt lat="44.80532" lon="5.58734">
        <ele>1010</ele>
        <time>2018-04-23T10:33:14Z</time>
      </trkpt>
      <trkpt lat="44.80511" lon="5.5874">
        <ele>1013</ele>
        <time>2018-04-23T10:33:29Z</time>
      </trkpt>
      <trkpt lat="44.80481" lon="5.58754">
        <ele>1020</ele>
        <time>2018-04-23T10:33:45Z</time>
      </trkpt>
      <trkpt lat="44.80457" lon="5.5877">
        <ele>1021</ele>
        <time>2018-04-23T10:33:48Z</time>
      </trkpt>
      <trkpt lat="44.80445" lon="5.58783">
        <ele>1021</ele>
        <time>2018-04-23T10:34:01Z</time>
      </trkpt>
      <trkpt lat="44.80437" lon="5.58796">
        <ele>1023</ele>
        <time>2018-04-23T10:34:19Z</time>
      </trkpt>
      <trkpt lat="44.80422" lon="5.58831">
        <ele>1026</ele>
        <time>2018-04-23T10:34:35Z</time>
      </trkpt>
      <trkpt lat="44.80413" lon="5.5885">
        <ele>1030</ele>
        <time>2018-04-23T10:34:42Z</time>
      </trkpt>
      <trkpt lat="44.80404" lon="5.5886">
        <ele>1031</ele>
        <time>2018-04-23T10:34:44Z</time>
      </trkpt>
      <trkpt lat="44.80377" lon="5.58881">
        <ele>1032</ele>
        <time>2018-04-23T10:35:02Z</time>
      </trkpt>
      <trkpt lat="44.80332" lon="5.5891">
        <ele>1034</ele>
        <time>2018-04-23T10:35:13Z</time>
      </trkpt>
      <trkpt lat="44.80306" lon="5.58926">
        <ele>1040</ele>
        <time>2018-04-23T10:35:16Z</time>
      </trkpt>
      <trkpt lat="44.80271" lon="5.58947">
        <ele>1041</ele>
        <time>2018-04-23T10:35:26Z</time>
      </trkpt>
      <trkpt lat="44.80257" lon="5.58956">
        <ele>1041</ele>
        <time>2018-04-23T10:35:32Z</time>
      </trkpt>
      <trkpt lat="44.80243" lon="5.58972">
        <ele>1039</ele>
        <time>2018-04-23T10:35:48Z</time>
      </trkpt>
      <trkpt lat="44.80217" lon="5.59003">
        <ele>1052</ele>
        <time>2018-04-23T10:35:52Z</time>
      </trkpt>
      <trkpt lat="44.80189" lon="5.59027">
        <ele>1052</ele>
        <time>2018-04-23T10:36:01Z</time>
      </trkpt>
      <trkpt lat="44.80145" lon="5.59053">
        <ele>1053</ele>
        <time>2018-04-23T10:36:09Z</time>
      </trkpt>
      <trkpt lat="44.80132" lon="5.59062">
        <ele>1053</ele>
        <time>2018-04-23T10:36:18Z</time>
      </trkpt>
      <trkpt lat="44.80104" lon="5.59094">
        <ele>1062</ele>
        <time>2018-04-23T10:36:32Z</time>
      </trkpt>
      <trkpt lat="44.80084" lon="5.59107">
        <ele>1062</ele>
        <time>2018-04-23T10:36:38Z</time>
      </trkpt>
      <trkpt lat="44.80051" lon="5.59109">
        <ele>1070</ele>
        <time>2018-04-23T10:36:46Z</time>
      </trkpt>
      <trkpt lat="44.80035" lon="5.59107">
        <ele>1073</ele>
        <time>2018-04-23T10:36:49Z</time>
      </trkpt>
      <trkpt lat="44.80025" lon="5.59102">
        <ele>1074</ele>
        <time>2018-04-23T10:37:00Z</time>
      </trkpt>
      <trkpt lat="44.80017" lon="5.59092">
        <ele>1076</ele>
        <time>2018-04-23T10:37:07Z</time>
      </trkpt>
      <trkpt lat="44.80012" lon="5.59077">
        <ele>1072</ele>
        <time>2018-04-23T10:37:19Z</time>
      </trkpt>
      <trkpt lat="44.80008" lon="5.59054">
        <ele>1067</ele>
        <time>2018-04-23T10:37:26Z</time>
      </trkpt>
      <trkpt lat="44.79994" lon="5.59029">
        <ele>1080</ele>
        <time>2018-04-23T10:37:37Z</time>
      </trkpt>
      <trkpt lat="44.7998" lon="5.59008">
        <ele>1079</ele>
        <time>2018-04-23T10:37:48Z</time>
      </trkpt>
      <trkpt lat="44.79965" lon="5.5898">
        <ele>1074</ele>
        <time>2018-04-23T10:37:50Z</time>
      </trkpt>
      <trkpt lat="44.79947" lon="5.5894">
        <ele>1074</ele>
        <time>2018-04-23T10:38:07Z</time>
      </trkpt>
      <trkpt lat="44.7994" lon="5.58927">
        <ele>1075</ele>
        <time>2018-04-23T10:38:23Z</time>
      </trkpt>
      <trkpt lat="44.7993" lon="5.58916">
        <ele>1072</ele>
        <time>2018-04-23T10:38:29Z</time>
      </trkpt>
      <trkpt lat="44.79914" lon="5.58909">
        <ele>1075</ele>
        <time>2018-04-23T10:38:37Z</time>
      </trkpt>
      <trkpt lat="44.79901" lon="5.5891">
        <ele>1073</ele>
        <time>2018-04-23T10:38:40Z</time>
      </trkpt>
      <trkpt lat="44.79861" lon="5.58929">
        <ele>1082</ele>
        <time>2018-04-23T10:38:44Z</time>
      </trkpt>
      <trkpt lat="44.79849" lon="5.58939">
        <ele>1082</ele>
        <time>2018-04-23T10:38:57Z</time>
      </trkpt>
      <trkpt lat="44.79831" lon="5.5896">
        <ele>1082</ele>
        <time>2018-04-23T10:39:11Z</time>
      </trkpt>
      <trkpt lat="44.79801" lon="5.58992">
        <ele>1084</ele>
        <time>2018-04-23T10:39:14Z</time>
      </trkpt>
      <trkpt lat="44.79762" lon="5.59017">
        <ele>1094</ele>
        <time>2018-04-23T10:39:33Z</time>
      </trkpt>
      <trkpt lat="44.79743" lon="5.5903">
        <ele>1089</ele>
        <time>2018-04-23T10:39:43Z</time>
      </trkpt>
      <trkpt lat="44.79728" lon="5.59046">
        <ele>1090</ele>
        <time>2018-04-23T10:39:57Z</time>
      </trkpt>
      <trkpt lat="44.7971" lon="5.59073">
        <ele>1092</ele>
        <time>2018-04-23T10:40:13Z</time>
      </trkpt>
      <trkpt lat="44.79692" lon="5.59094">
        <ele>1104</ele>
        <time>2018-04-23T10:40:30Z</time>
      </trkpt>
      <trkpt lat="44.79602" lon="5.59159">
        <ele>1102</ele>
        <time>2018-04-23T10:40:48Z</time>
      </trkpt>
      <trkpt lat="44.79563" lon="5.59189">
        <ele>1107</ele>
        <time>2018-04-23T10:40:55Z</time>
      </trkpt>
      <trkpt lat="44.79545" lon="5.59208">
        <ele>1108</ele>
        <time>2018-04-23T10:41:06Z</time>
      </trkpt>
      <trkpt lat="44.79519" lon="5.59238">
        <ele>1109</ele>
        <time>2018-04-23T10:41:24Z</time>
      </trkpt>
      <trkpt lat="44.79511" lon="5.59254">
        <ele>1116</ele>
        <time>2018-04-23T10:41:34Z</time>
      </trkpt>
      <trkpt lat="44.79502" lon="5.59292">
        <ele>1123</ele>
        <time>2018-04-23T10:41:41Z</time>
      </trkpt>
      <trkpt lat="44.79495" lon="5.59308">
        <ele>1119</ele>
        <time>2018-04-23T10:42:01Z</time>
      </trkpt>
      <trkpt lat="44.79485" lon="5.59325">
        <ele>1121</ele>
        <time>2018-04-23T10:42:17Z</time>
      </trkpt>
      <trkpt lat="44.79454" lon="5.59356">
        <ele>1132</ele>
        <time>2018-04-23T10:42:28Z</time>
      </trkpt>
      <trkpt lat="44.79441" lon="5.59363">
        <ele>1132</ele>
        <time>2018-04-23T10:42:46Z</time>
      </trkpt>
      <trkpt lat="44.79428" lon="5.59366">
        <ele>1132</ele>
        <time>2018-04-23T10:42:54Z</time>
      </trkpt>
      <trkpt lat="44.79415" lon="5.59364">
        <ele>1132</ele>
        <time>2018-04-23T10:42:59Z</time>
      </trkpt>
      <trkpt lat="44.79405" lon="5.5936">
        <ele>1131</ele>
        <time>2018-04-23T10:43:17Z</time>
      </trkpt>
      <trkpt lat="44.79394" lon="5.5935">
        <ele>1131</ele>
        <time>2018-04-23T10:43:34Z</time>
      </trkpt>
      <trkpt lat="44.79379" lon="5.59331">
        <ele>1118</ele>
        <time>2018-04-23T10:43:39Z</time>
      </trkpt>
      <trkpt lat="44.79367" lon="5.59325">
        <ele>1118</ele>
        <time>2018-04-23T10:43:49Z</time>
      </trkpt>
      <trkpt lat="44.79348" lon="5.59327">
        <ele>1122</ele>
        <time>2018-04-23T10:44:05Z</time>
      </trkpt>
      <trkpt lat="44.79305" lon="5.59346">
        <ele>1133</ele>
        <time>2018-04-23T10:44:16Z</time>
      </trkpt>
      <trkpt lat="44.79262" lon="5.59371">
        <ele>1135</ele>
        <time>2018-04-23T10:44:26Z</time>
      </trkpt>
      <trkpt lat="44.79178" lon="5.5943">
        <ele>1145</ele>
        <time>2018-04-23T10:44:43Z</time>
      </trkpt>
      <trkpt lat="44.79087" lon="5.595">
        <ele>1154</ele>
        <time>2018-04-23T10:44:55Z</time>
      </trkpt>
      <trkpt lat="44.79068" lon="5.59509">
        <ele>1159</ele>
        <time>2018-04-23T10:45:03Z</time>
      </trkpt>
      <trkpt lat="44.79048" lon="5.59511">
        <ele>1160</ele>
        <time>2018-04-23T10:45:19Z</time>
      </trkpt>
      <trkpt lat="44.79016" lon="5.59504">
        <ele>1157</ele>
        <time>2018-04-23T10:45:23Z</time>
      </trkpt>
      <trkpt lat="44.79003" lon="5.59504">
        <ele>1153</ele>
        <time>2018-04-23T10:45:26Z</time>
      </trkpt>
      <trkpt lat="44.78984" lon="5.59525">
        <ele>1155</ele>
        <time>2018-04-23T10:45:43Z</time>
      </trkpt>
      <trkpt lat="44.78975" lon="5.59539">
        <ele>1157</ele>
        <time>2018-04-23T10:45:52Z</time>
      </trkpt>
      <trkpt lat="44.78913" lon="5.59587">
        <ele>1163</ele>
        <time>2018-04-23T10:46:02Z</time>
      </trkpt>
      <trkpt lat="44.78895" lon="5.59611">
        <ele>1166</ele>
        <time>2018-04-23T10:46:04Z</time>
      </trkpt>
      <trkpt lat="44.78859" lon="5.59674">
        <ele>1180</ele>
        <time>2018-04-23T10:46:19Z</time>
      </trkpt>
      <trkpt lat="44.78831" lon="5.59721">
        <ele>1177</ele>
        <time>2018-04-23T10:46:28Z</time>
      </trkpt>
      <trkpt lat="44.7881" lon="5.59746">
        <ele>1178</ele>
        <time>2018-04-23T10:46:34Z</time>
      </trkpt>
      <trkpt lat="44.78787" lon="5.59772">
        <ele>1185</ele>
        <time>2018-04-23T10:46:38Z</time>
      </trkpt>
      <trkpt lat="44.78779" lon="5.59787">
        <ele>1186</ele>
        <time>2018-04-23T10:46:41Z</time>
      </trkpt>
      <trkpt lat="44.78766" lon="5.59818">
        <ele>1188</ele>
        <time>2018-04-23T10:46:44Z</time>
      </trkpt>
      <trkpt lat="44.78749" lon="5.59834">
        <ele>1188</ele>
        <time>2018-04-23T10:46:47Z</time>
      </trkpt>
      <trkpt lat="44.7872" lon="5.59857">
        <ele>1192</ele>
        <time>2018-04-23T10:46:51Z</time>
      </trkpt>
      <trkpt lat="44.78696" lon="5.59867">
        <ele>1192</ele>
        <time>2018-04-23T10:47:02Z</time>
      </trkpt>
      <trkpt lat="44.78663" lon="5.59874">
        <ele>1193</ele>
        <time>2018-04-23T10:47:17Z</time>
      </trkpt>
      <trkpt lat="44.78616" lon="5.59875">
        <ele>1195</ele>
        <time>2018-04-23T10:47:29Z</time>
      </trkpt>
      <trkpt lat="44.78566" lon="5.59874">
        <ele>1200</ele>
        <time>2018-04-23T10:47:41Z</time>
      </trkpt>
      <trkpt lat="44.78522" lon="5.59874">
        <ele>1201</ele>
        <time>2018-04-23T10:47:57Z</time>
      </trkpt>
      <trkpt lat="44.78507" lon="5.59866">
        <ele>1201</ele>
        <time>2018-04-23T10:48:16Z</time>
      </trkpt>
      <trkpt lat="44.78489" lon="5.5984">
        <ele>1201</ele>
        <time>2018-04-23T10:48:18Z</time>
      </trkpt>
      <trkpt lat="44.78469" lon="5.59804">
        <ele>1203</ele>
        <time>2018-04-23T10:48:32Z</time>
      </trkpt>
      <trkpt lat="44.78447" lon="5.59777">
        <ele>1204</ele>
        <time>2018-04-23T10:48:34Z</time>
      </trkpt>
      <trkpt lat="44.78431" lon="5.59765">
        <ele>1205</ele>
        <time>2018-04-23T10:48:42Z</time>
      </trkpt>
      <trkpt lat="44.78392" lon="5.59742">
        <ele>1207</ele>
        <time>2018-04-23T10:48:52Z</time>
      </trkpt>
      <trkpt lat="44.78374" lon="5.59729">
        <ele>1207</ele>
        <time>2018-04-23T10:48:55Z</time>
      </trkpt>
      <trkpt lat="44.78364" lon="5.59718">
        <ele>1207</ele>
        <time>2018-04-23T10:49:01Z</time>
      </trkpt>
      <trkpt lat="44.78355" lon="5.59704">
        <ele>1207</ele>
        <time>2018-04-23T10:49:16Z</time>
      </trkpt>
      <trkpt lat="44.78344" lon="5.59671">
        <ele>1208</ele>
        <time>2018-04-23T10:49:22Z</time>
      </trkpt>
      <trkpt lat="44.78325" lon="5.59598">
        <ele>1215</ele>
        <time>2018-04-23T10:49:30Z</time>
      </trkpt>
      <trkpt lat="44.78324" lon="5.59545">
        <ele>1225</ele>
        <time>2018-04-23T10:49:40Z</time>
      </trkpt>
      <trkpt lat="44.78328" lon="5.59495">
        <ele>1233</ele>
        <time>2018-04-23T10:49:52Z</time>
      </trkpt>
      <trkpt lat="44.78325" lon="5.5946">
        <ele>1240</ele>
        <time>2018-04-23T10:50:00Z</time>
      </trkpt>
      <trkpt lat="44.78318" lon="5.59453">
        <ele>1241</ele>
        <time>2018-04-23T10:50:04Z</time>
      </trkpt>
      <trkpt lat="44.78307" lon="5.59453">
        <ele>1242</ele>
        <time>2018-04-23T10:50:18Z</time>
      </trkpt>
      <trkpt lat="44.78297" lon="5.5946">
        <ele>1241</ele>
        <time>2018-04-23T10:50:35Z</time>
      </trkpt>
      <trkpt lat="44.78285" lon="5.59476">
        <ele>1240</ele>
        <time>2018-04-23T10:50:47Z</time>
      </trkpt>
      <trkpt lat="44.7827" lon="5.59496">
        <ele>1239</ele>
        <time>2018-04-23T10:50:51Z</time>
      </trkpt>
      <trkpt lat="44.7826" lon="5.5951">
        <ele>1231</ele>
        <time>2018-04-23T10:51:07Z</time>
      </trkpt>
      <trkpt lat="44.78244" lon="5.59531">
        <ele>1230</ele>
        <time>2018-04-23T10:51:12Z</time>
      </trkpt>
      <trkpt lat="44.78222" lon="5.59549">
        <ele>1228</ele>
        <time>2018-04-23T10:51:25Z</time>
      </trkpt>
      <trkpt lat="44.78176" lon="5.59589">
        <ele>1221</ele>
        <time>2018-04-23T10:51:34Z</time>
      </trkpt>
      <trkpt lat="44.78167" lon="5.59595">
        <ele>1221</ele>
        <time>2018-04-23T10:51:45Z</time>
      </trkpt>
      <trkpt lat="44.78157" lon="5.59598">
        <ele>1221</ele>
        <time>2018-04-23T10:51:53Z</time>
      </trkpt>
      <trkpt lat="44.78144" lon="5.59594">
        <ele>1220</ele>
        <time>2018-04-23T10:52:03Z</time>
      </trkpt>
      <trkpt lat="44.78135" lon="5.59585">
        <ele>1219</ele>
        <time>2018-04-23T10:52:10Z</time>
      </trkpt>
      <trkpt lat="44.78129" lon="5.5957">
        <ele>1228</ele>
        <time>2018-04-23T10:52:30Z</time>
      </trkpt>
      <trkpt lat="44.78125" lon="5.5954">
        <ele>1229</ele>
        <time>2018-04-23T10:52:35Z</time>
      </trkpt>
      <trkpt lat="44.78125" lon="5.59495">
        <ele>1239</ele>
        <time>2018-04-23T10:52:41Z</time>
      </trkpt>
      <trkpt lat="44.78121" lon="5.59476">
        <ele>1239</ele>
        <time>2018-04-23T10:52:57Z</time>
      </trkpt>
      <trkpt lat="44.78114" lon="5.59448">
        <ele>1240</ele>
        <time>2018-04-23T10:53:12Z</time>
      </trkpt>
      <trkpt lat="44.78093" lon="5.5936">
        <ele>1252</ele>
        <time>2018-04-23T10:53:29Z</time>
      </trkpt>
      <trkpt lat="44.78086" lon="5.59346">
        <ele>1253</ele>
        <time>2018-04-23T10:53:46Z</time>
      </trkpt>
      <trkpt lat="44.78079" lon="5.59344">
        <ele>1254</ele>
        <time>2018-04-23T10:53:51Z</time>
      </trkpt>
      <trkpt lat="44.78072" lon="5.59351">
        <ele>1254</ele>
        <time>2018-04-23T10:53:54Z</time>
      </trkpt>
      <trkpt lat="44.78066" lon="5.59372">
        <ele>1253</ele>
        <time>2018-04-23T10:54:02Z</time>
      </trkpt>
      <trkpt lat="44.78062" lon="5.594">
        <ele>1249</ele>
        <time>2018-04-23T10:54:09Z</time>
      </trkpt>
      <trkpt lat="44.78043" lon="5.59442">
        <ele>1245</ele>
        <time>2018-04-23T10:54:12Z</time>
      </trkpt>
      <trkpt lat="44.78027" lon="5.59474">
        <ele>1247</ele>
        <time>2018-04-23T10:54:24Z</time>
      </trkpt>
      <trkpt lat="44.78012" lon="5.59516">
        <ele>1243</ele>
        <time>2018-04-23T10:54:44Z</time>
      </trkpt>
      <trkpt lat="44.77992" lon="5.59598">
        <ele>1234</ele>
        <time>2018-04-23T10:54:58Z</time>
      </trkpt>
      <trkpt lat="44.77983" lon="5.59635">
        <ele>1229</ele>
        <time>2018-04-23T10:55:03Z</time>
      </trkpt>
      <trkpt lat="44.77975" lon="5.59648">
        <ele>1228</ele>
        <time>2018-04-23T10:55:07Z</time>
      </trkpt>
      <trkpt lat="44.77968" lon="5.5965">
        <ele>1228</ele>
        <time>2018-04-23T10:55:19Z</time>
      </trkpt>
      <trkpt lat="44.77962" lon="5.59647">
        <ele>1227</ele>
        <time>2018-04-23T10:55:21Z</time>
      </trkpt>
      <trkpt lat="44.77953" lon="5.59634">
        <ele>1228</ele>
        <time>2018-04-23T10:55:24Z</time>
      </trkpt>
      <trkpt lat="44.77946" lon="5.59603">
        <ele>1229</ele>
        <time>2018-04-23T10:55:42Z</time>
      </trkpt>
      <trkpt lat="44.7793" lon="5.59514">
        <ele>1240</ele>
        <time>2018-04-23T10:55:58Z</time>
      </trkpt>
      <trkpt lat="44.77914" lon="5.59437">
        <ele>1237</ele>
        <time>2018-04-23T10:56:13Z</time>
      </trkpt>
      <trkpt lat="44.77913" lon="5.59402">
        <ele>1242</ele>
        <time>2018-04-23T10:56:17Z</time>
      </trkpt>
      <trkpt lat="44.77916" lon="5.59373">
        <ele>1241</ele>
        <time>2018-04-23T10:56:22Z</time>
      </trkpt>
      <trkpt lat="44.77914" lon="5.59348">
        <ele>1245</ele>
        <time>2018-04-23T10:56:32Z</time>
      </trkpt>
      <trkpt lat="44.77905" lon="5.59325">
        <ele>1249</ele>
        <time>2018-04-23T10:56:40Z</time>
      </trkpt>
      <trkpt lat="44.77894" lon="5.59302">
        <ele>1246</ele>
        <time>2018-04-23T10:56:51Z</time>
      </trkpt>
      <trkpt lat="44.77895" lon="5.59277">
        <ele>1248</ele>
        <time>2018-04-23T10:57:00Z</time>
      </trkpt>
      <trkpt lat="44.779" lon="5.59248">
        <ele>1258</ele>
        <time>2018-04-23T10:57:05Z</time>
      </trkpt>
      <trkpt lat="44.77905" lon="5.59215">
        <ele>1258</ele>
        <time>2018-04-23T10:57:18Z</time>
      </trkpt>
      <trkpt lat="44.77902" lon="5.59176">
        <ele>1262</ele>
        <time>2018-04-23T10:57:37Z</time>
      </trkpt>
      <trkpt lat="44.77898" lon="5.5915">
        <ele>1270</ele>
        <time>2018-04-23T10:57:41Z</time>
      </trkpt>
      <trkpt lat="44.77886" lon="5.59132">
        <ele>1272</ele>
        <time>2018-04-23T10:57:52Z</time>
      </trkpt>
      <trkpt lat="44.77879" lon="5.59124">
        <ele>1273</ele>
        <time>2018-04-23T10:57:55Z</time>
      </trkpt>
      <trkpt lat="44.77873" lon="5.59124">
        <ele>1272</ele>
        <time>2018-04-23T10:58:12Z</time>
      </trkpt>
      <trkpt lat="44.77864" lon="5.59128">
        <ele>1271</ele>
        <time>2018-04-23T10:58:28Z</time>
      </trkpt>
      <trkpt lat="44.7786" lon="5.59136">
        <ele>1270</ele>
        <time>2018-04-23T10:58:36Z</time>
      </trkpt>
      <trkpt lat="44.77854" lon="5.59151">
        <ele>1267</ele>
        <time>2018-04-23T10:58:55Z</time>
      </trkpt>
      <trkpt lat="44.77849" lon="5.59156">
        <ele>1266</ele>
        <time>2018-04-23T10:59:15Z</time>
      </trkpt>
      <trkpt lat="44.77842" lon="5.59158">
        <ele>1264</ele>
        <time>2018-04-23T10:59:33Z</time>
      </trkpt>
      <trkpt lat="44.7783" lon="5.5916">
        <ele>1261</ele>
        <time>2018-04-23T10:59:46Z</time>
      </trkpt>
      <trkpt lat="44.77821" lon="5.59163">
        <ele>1262</ele>
        <time>2018-04-23T11:00:01Z</time>
      </trkpt>
      <trkpt lat="44.77803" lon="5.59179">
        <ele>1251</ele>
        <time>2018-04-23T11:00:06Z</time>
      </trkpt>
      <trkpt lat="44.77793" lon="5.59185">
        <ele>1250</ele>
        <time>2018-04-23T11:00:17Z</time>
      </trkpt>
      <trkpt lat="44.77789" lon="5.59184">
        <ele>1250</ele>
        <time>2018-04-23T11:00:36Z</time>
      </trkpt>
      <trkpt lat="44.77782" lon="5.59178">
        <ele>1251</ele>
        <time>2018-04-23T11:00:50Z</time>
      </trkpt>
      <trkpt lat="44.77772" lon="5.59157">
        <ele>1262</ele>
        <time>2018-04-23T11:01:00Z</time>
      </trkpt>
      <trkpt lat="44.77759" lon="5.59127">
        <ele>1267</ele>
        <time>2018-04-23T11:01:07Z</time>
      </trkpt>
      <trkpt lat="44.77747" lon="5.59107">
        <ele>1271</ele>
        <time>2018-04-23T11:01:19Z</time>
      </trkpt>
      <trkpt lat="44.7774" lon="5.59099">
        <ele>1272</ele>
        <time>2018-04-23T11:01:29Z</time>
      </trkpt>
      <trkpt lat="44.77722" lon="5.59084">
        <ele>1272</ele>
        <time>2018-04-23T11:01:44Z</time>
      </trkpt>
      <trkpt lat="44.77704" lon="5.59074">
        <ele>1284</ele>
        <time>2018-04-23T11:02:04Z</time>
      </trkpt>
      <trkpt lat="44.77687" lon="5.59062">
        <ele>1283</ele>
        <time>2018-04-23T11:02:07Z</time>
      </trkpt>
      <trkpt lat="44.77677" lon="5.59061">
        <ele>1282</ele>
        <time>2018-04-23T11:02:26Z</time>
      </trkpt>
      <trkpt lat="44.7767" lon="5.59062">
        <ele>1281</ele>
        <time>2018-04-23T11:02:32Z</time>
      </trkpt>
      <trkpt lat="44.77665" lon="5.59068">
        <ele>1282</ele>
        <time>2018-04-23T11:02:39Z</time>
      </trkpt>
      <trkpt lat="44.7766" lon="5.5908">
        <ele>1278</ele>
        <time>2018-04-23T11:02:42Z</time>
      </trkpt>
      <trkpt lat="44.77661" lon="5.59106">
        <ele>1276</ele>
        <time>2018-04-23T11:02:47Z</time>
      </trkpt>
      <trkpt lat="44.77664" lon="5.59124">
        <ele>1276</ele>
        <time>2018-04-23T11:02:54Z</time>
      </trkpt>
      <trkpt lat="44.77663" lon="5.59134">
        <ele>1275</ele>
        <time>2018-04-23T11:03:14Z</time>
      </trkpt>
      <trkpt lat="44.77659" lon="5.59143">
        <ele>1274</ele>
        <time>2018-04-23T11:03:28Z</time>
      </trkpt>
      <trkpt lat="44.7765" lon="5.59147">
        <ele>1275</ele>
        <time>2018-04-23T11:03:35Z</time>
      </trkpt>
      <trkpt lat="44.77641" lon="5.59145">
        <ele>1277</ele>
        <time>2018-04-23T11:03:52Z</time>
      </trkpt>
      <trkpt lat="44.77634" lon="5.5914">
        <ele>1279</ele>
        <time>2018-04-23T11:03:55Z</time>
      </trkpt>
      <trkpt lat="44.77626" lon="5.5913">
        <ele>1280</ele>
        <time>2018-04-23T11:04:09Z</time>
      </trkpt>
      <trkpt lat="44.7762" lon="5.59126">
        <ele>1281</ele>
        <time>2018-04-23T11:04:21Z</time>
      </trkpt>
      <trkpt lat="44.77613" lon="5.59128">
        <ele>1282</ele>
        <time>2018-04-23T11:04:29Z</time>
      </trkpt>
      <trkpt lat="44.77608" lon="5.59135">
        <ele>1283</ele>
        <time>2018-04-23T11:04:43Z</time>
      </trkpt>
      <trkpt lat="44.77605" lon="5.59151">
        <ele>1284</ele>
        <time>2018-04-23T11:04:46Z</time>
      </trkpt>
      <trkpt lat="44.77606" lon="5.59172">
        <ele>1281</ele>
        <time>2018-04-23T11:04:56Z</time>
      </trkpt>
      <trkpt lat="44.77609" lon="5.59199">
        <ele>1279</ele>
        <time>2018-04-23T11:05:13Z</time>
      </trkpt>
      <trkpt lat="44.77621" lon="5.59247">
        <ele>1276</ele>
        <time>2018-04-23T11:05:27Z</time>
      </trkpt>
      <trkpt lat="44.77627" lon="5.59273">
        <ele>1271</ele>
        <time>2018-04-23T11:05:36Z</time>
      </trkpt>
      <trkpt lat="44.77627" lon="5.59285">
        <ele>1270</ele>
        <time>2018-04-23T11:05:56Z</time>
      </trkpt>
      <trkpt lat="44.77625" lon="5.59295">
        <ele>1270</ele>
        <time>2018-04-23T11:06:03Z</time>
      </trkpt>
      <trkpt lat="44.77616" lon="5.59305">
        <ele>1272</ele>
        <time>2018-04-23T11:06:20Z</time>
      </trkpt>
      <trkpt lat="44.77598" lon="5.59316">
        <ele>1275</ele>
        <time>2018-04-23T11:06:29Z</time>
      </trkpt>
      <trkpt lat="44.77592" lon="5.59325">
        <ele>1276</ele>
        <time>2018-04-23T11:06:43Z</time>
      </trkpt>
      <trkpt lat="44.77584" lon="5.59342">
        <ele>1275</ele>
        <time>2018-04-23T11:06:48Z</time>
      </trkpt>
      <trkpt lat="44.77572" lon="5.59391">
        <ele>1269</ele>
        <time>2018-04-23T11:07:01Z</time>
      </trkpt>
      <trkpt lat="44.77565" lon="5.59399">
        <ele>1268</ele>
        <time>2018-04-23T11:07:09Z</time>
      </trkpt>
      <trkpt lat="44.7756" lon="5.594">
        <ele>1268</ele>
        <time>2018-04-23T11:07:20Z</time>
      </trkpt>
      <trkpt lat="44.77555" lon="5.59395">
        <ele>1267</ele>
        <time>2018-04-23T11:07:40Z</time>
      </trkpt>
      <trkpt lat="44.7755" lon="5.59385">
        <ele>1268</ele>
        <time>2018-04-23T11:07:54Z</time>
      </trkpt>
      <trkpt lat="44.77545" lon="5.59359">
        <ele>1269</ele>
        <time>2018-04-23T11:08:11Z</time>
      </trkpt>
      <trkpt lat="44.77539" lon="5.59327">
        <ele>1279</ele>
        <time>2018-04-23T11:08:30Z</time>
      </trkpt>
      <trkpt lat="44.7753" lon="5.5931">
        <ele>1280</ele>
        <time>2018-04-23T11:08:49Z</time>
      </trkpt>
      <trkpt lat="44.77493" lon="5.59274">
        <ele>1273</ele>
        <time>2018-04-23T11:09:08Z</time>
      </trkpt>
      <trkpt lat="44.77489" lon="5.59261">
        <ele>1277</ele>
        <time>2018-04-23T11:09:13Z</time>
      </trkpt>
      <trkpt lat="44.77488" lon="5.59248">
        <ele>1286</ele>
        <time>2018-04-23T11:09:30Z</time>
      </trkpt>
      <trkpt lat="44.77485" lon="5.59232">
        <ele>1284</ele>
        <time>2018-04-23T11:09:35Z</time>
      </trkpt>
      <trkpt lat="44.77475" lon="5.59214">
        <ele>1284</ele>
        <time>2018-04-23T11:09:47Z</time>
      </trkpt>
      <trkpt lat="44.77456" lon="5.59181">
        <ele>1283</ele>
        <time>2018-04-23T11:09:50Z</time>
      </trkpt>
      <trkpt lat="44.77447" lon="5.59153">
        <ele>1294</ele>
        <time>2018-04-23T11:10:06Z</time>
      </trkpt>
      <trkpt lat="44.77443" lon="5.59134">
        <ele>1296</ele>
        <time>2018-04-23T11:10:26Z</time>
      </trkpt>
      <trkpt lat="44.77438" lon="5.59121">
        <ele>1297</ele>
        <time>2018-04-23T11:10:41Z</time>
      </trkpt>
      <trkpt lat="44.77425" lon="5.59104">
        <ele>1298</ele>
        <time>2018-04-23T11:10:56Z</time>
      </trkpt>
      <trkpt lat="44.77409" lon="5.59092">
        <ele>1290</ele>
        <time>2018-04-23T11:11:06Z</time>
      </trkpt>
      <trkpt lat="44.77397" lon="5.59086">
        <ele>1286</ele>
        <time>2018-04-23T11:11:23Z</time>
      </trkpt>
      <trkpt lat="44.77384" lon="5.59083">
        <ele>1293</ele>
        <time>2018-04-23T11:11:40Z</time>
      </trkpt>
      <trkpt lat="44.7737" lon="5.59078">
        <ele>1289</ele>
        <time>2018-04-23T11:11:51Z</time>
      </trkpt>
      <trkpt lat="44.77358" lon="5.59063">
        <ele>1288</ele>
        <time>2018-04-23T11:11:59Z</time>
      </trkpt>
      <trkpt lat="44.77349" lon="5.59029">
        <ele>1291</ele>
        <time>2018-04-23T11:12:15Z</time>
      </trkpt>
      <trkpt lat="44.77346" lon="5.59007">
        <ele>1289</ele>
        <time>2018-04-23T11:12:32Z</time>
      </trkpt>
      <trkpt lat="44.77346" lon="5.58995">
        <ele>1294</ele>
        <time>2018-04-23T11:12:40Z</time>
      </trkpt>
      <trkpt lat="44.77351" lon="5.58979">
        <ele>1298</ele>
        <time>2018-04-23T11:12:55Z</time>
      </trkpt>
      <trkpt lat="44.77358" lon="5.58958">
        <ele>1302</ele>
        <time>2018-04-23T11:13:09Z</time>
      </trkpt>
      <trkpt lat="44.77356" lon="5.58946">
        <ele>1301</ele>
        <time>2018-04-23T11:13:27Z</time>
      </trkpt>
      <trkpt lat="44.77354" lon="5.58937">
        <ele>1300</ele>
        <time>2018-04-23T11:13:43Z</time>
      </trkpt>
      <trkpt lat="44.77353" lon="5.58915">
        <ele>1303</ele>
        <time>2018-04-23T11:13:51Z</time>
      </trkpt>
      <trkpt lat="44.77354" lon="5.58897">
        <ele>1306</ele>
        <time>2018-04-23T11:14:09Z</time>
      </trkpt>
      <trkpt lat="44.77351" lon="5.58882">
        <ele>1308</ele>
        <time>2018-04-23T11:14:28Z</time>
      </trkpt>
      <trkpt lat="44.77347" lon="5.58855">
        <ele>1309</ele>
        <time>2018-04-23T11:14:30Z</time>
      </trkpt>
      <trkpt lat="44.77345" lon="5.5884">
        <ele>1307</ele>
        <time>2018-04-23T11:14:39Z</time>
      </trkpt>
      <trkpt lat="44.77341" lon="5.58827">
        <ele>1311</ele>
        <time>2018-04-23T11:14:44Z</time>
      </trkpt>
      <trkpt lat="44.77329" lon="5.58788">
        <ele>1317</ele>
        <time>2018-04-23T11:15:00Z</time>
      </trkpt>
      <trkpt lat="44.77324" lon="5.58779">
        <ele>1318</ele>
        <time>2018-04-23T11:15:19Z</time>
      </trkpt>
      <trkpt lat="44.77317" lon="5.58776">
        <ele>1319</ele>
        <time>2018-04-23T11:15:24Z</time>
      </trkpt>
      <trkpt lat="44.77301" lon="5.5878">
        <ele>1321</ele>
        <time>2018-04-23T11:15:40Z</time>
      </trkpt>
      <trkpt lat="44.77296" lon="5.58789">
        <ele>1321</ele>
        <time>2018-04-23T11:15:48Z</time>
      </trkpt>
      <trkpt lat="44.77295" lon="5.58797">
        <ele>1320</ele>
        <time>2018-04-23T11:15:50Z</time>
      </trkpt>
      <trkpt lat="44.77299" lon="5.58824">
        <ele>1317</ele>
        <time>2018-04-23T11:16:02Z</time>
      </trkpt>
      <trkpt lat="44.77295" lon="5.58848">
        <ele>1308</ele>
        <time>2018-04-23T11:16:09Z</time>
      </trkpt>
      <trkpt lat="44.77287" lon="5.58866">
        <ele>1308</ele>
        <time>2018-04-23T11:16:18Z</time>
      </trkpt>
      <trkpt lat="44.77284" lon="5.5888">
        <ele>1307</ele>
        <time>2018-04-23T11:16:35Z</time>
      </trkpt>
      <trkpt lat="44.77284" lon="5.58909">
        <ele>1306</ele>
        <time>2018-04-23T11:16:53Z</time>
      </trkpt>
      <trkpt lat="44.77282" lon="5.5892">
        <ele>1298</ele>
        <time>2018-04-23T11:17:03Z</time>
      </trkpt>
      <trkpt lat="44.77277" lon="5.58934">
        <ele>1299</ele>
        <time>2018-04-23T11:17:10Z</time>
      </trkpt>
      <trkpt lat="44.77273" lon="5.5894">
        <ele>1299</ele>
        <time>2018-04-23T11:17:22Z</time>
      </trkpt>
      <trkpt lat="44.77267" lon="5.58943">
        <ele>1299</ele>
        <time>2018-04-23T11:17:34Z</time>
      </trkpt>
      <trkpt lat="44.77262" lon="5.58941">
        <ele>1300</ele>
        <time>2018-04-23T11:17:44Z</time>
      </trkpt>
      <trkpt lat="44.77246" lon="5.58924">
        <ele>1314</ele>
        <time>2018-04-23T11:18:01Z</time>
      </trkpt>
      <trkpt lat="44.77239" lon="5.58925">
        <ele>1317</ele>
        <time>2018-04-23T11:18:13Z</time>
      </trkpt>
      <trkpt lat="44.77233" lon="5.5893">
        <ele>1320</ele>
        <time>2018-04-23T11:18:19Z</time>
      </trkpt>
      <trkpt lat="44.77228" lon="5.58947">
        <ele>1322</ele>
        <time>2018-04-23T11:18:24Z</time>
      </trkpt>
      <trkpt lat="44.77221" lon="5.58964">
        <ele>1322</ele>
        <time>2018-04-23T11:18:37Z</time>
      </trkpt>
      <trkpt lat="44.77211" lon="5.58981">
        <ele>1323</ele>
        <time>2018-04-23T11:18:39Z</time>
      </trkpt>
      <trkpt lat="44.77208" lon="5.59007">
        <ele>1312</ele>
        <time>2018-04-23T11:18:54Z</time>
      </trkpt>
      <trkpt lat="44.77207" lon="5.59056">
        <ele>1307</ele>
        <time>2018-04-23T11:18:56Z</time>
      </trkpt>
      <trkpt lat="44.772" lon="5.5909">
        <ele>1298</ele>
        <time>2018-04-23T11:19:16Z</time>
      </trkpt>
      <trkpt lat="44.77193" lon="5.5911">
        <ele>1297</ele>
        <time>2018-04-23T11:19:20Z</time>
      </trkpt>
      <trkpt lat="44.77189" lon="5.59115">
        <ele>1297</ele>
        <time>2018-04-23T11:19:25Z</time>
      </trkpt>
      <trkpt lat="44.77183" lon="5.59117">
        <ele>1298</ele>
        <time>2018-04-23T11:19:33Z</time>
      </trkpt>
      <trkpt lat="44.77177" lon="5.59113">
        <ele>1299</ele>
        <time>2018-04-23T11:19:50Z</time>
      </trkpt>
      <trkpt lat="44.77166" lon="5.59094">
        <ele>1309</ele>
        <time>2018-04-23T11:19:58Z</time>
      </trkpt>
      <trkpt lat="44.77155" lon="5.59072">
        <ele>1318</ele>
        <time>2018-04-23T11:20:13Z</time>
      </trkpt>
      <trkpt lat="44.77144" lon="5.59058">
        <ele>1321</ele>
        <time>2018-04-23T11:20:24Z</time>
      </trkpt>
      <trkpt lat="44.77127" lon="5.59036">
        <ele>1324</ele>
        <time>2018-04-23T11:20:39Z</time>
      </trkpt>
      <trkpt lat="44.77122" lon="5.59027">
        <ele>1325</ele>
        <time>2018-04-23T11:20:46Z</time>
      </trkpt>
      <trkpt lat="44.77111" lon="5.59018">
        <ele>1326</ele>
        <time>2018-04-23T11:20:50Z</time>
      </trkpt>
      <trkpt lat="44.77094" lon="5.59015">
        <ele>1327</ele>
        <time>2018-04-23T11:21:04Z</time>
      </trkpt>
      <trkpt lat="44.77081" lon="5.59001">
        <ele>1331</ele>
        <time>2018-04-23T11:21:19Z</time>
      </trkpt>
      <trkpt lat="44.77075" lon="5.5899">
        <ele>1338</ele>
        <time>2018-04-23T11:21:34Z</time>
      </trkpt>
      <trkpt lat="44.77067" lon="5.58976">
        <ele>1342</ele>
        <time>2018-04-23T11:21:49Z</time>
      </trkpt>
      <trkpt lat="44.77062" lon="5.58972">
        <ele>1343</ele>
        <time>2018-04-23T11:21:52Z</time>
      </trkpt>
      <trkpt lat="44.77053" lon="5.5897">
        <ele>1344</ele>
        <time>2018-04-23T11:22:03Z</time>
      </trkpt>
      <trkpt lat="44.77046" lon="5.58975">
        <ele>1344</ele>
        <time>2018-04-23T11:22:08Z</time>
      </trkpt>
      <trkpt lat="44.77042" lon="5.58982">
        <ele>1343</ele>
        <time>2018-04-23T11:22:20Z</time>
      </trkpt>
      <trkpt lat="44.77033" lon="5.59003">
        <ele>1328</ele>
        <time>2018-04-23T11:22:23Z</time>
      </trkpt>
      <trkpt lat="44.77027" lon="5.5901">
        <ele>1328</ele>
        <time>2018-04-23T11:22:34Z</time>
      </trkpt>
      <trkpt lat="44.7702" lon="5.59012">
        <ele>1329</ele>
        <time>2018-04-23T11:22:47Z</time>
      </trkpt>
      <trkpt lat="44.77004" lon="5.59009">
        <ele>1332</ele>
        <time>2018-04-23T11:23:01Z</time>
      </trkpt>
      <trkpt lat="44.76995" lon="5.59011">
        <ele>1337</ele>
        <time>2018-04-23T11:23:10Z</time>
      </trkpt>
      <trkpt lat="44.76986" lon="5.59018">
        <ele>1336</ele>
        <time>2018-04-23T11:23:23Z</time>
      </trkpt>
      <trkpt lat="44.76971" lon="5.59035">
        <ele>1336</ele>
        <time>2018-04-23T11:23:32Z</time>
      </trkpt>
      <trkpt lat="44.7696" lon="5.59043">
        <ele>1336</ele>
        <time>2018-04-23T11:23:45Z</time>
      </trkpt>
      <trkpt lat="44.76942" lon="5.59045">
        <ele>1338</ele>
        <time>2018-04-23T11:24:03Z</time>
      </trkpt>
      <trkpt lat="44.76935" lon="5.59052">
        <ele>1337</ele>
        <time>2018-04-23T11:24:22Z</time>
      </trkpt>
      <trkpt lat="44.76928" lon="5.59066">
        <ele>1336</ele>
        <time>2018-04-23T11:24:30Z</time>
      </trkpt>
      <trkpt lat="44.76922" lon="5.59072">
        <ele>1335</ele>
        <time>2018-04-23T11:24:48Z</time>
      </trkpt>
      <trkpt lat="44.76914" lon="5.59075">
        <ele>1341</ele>
        <time>2018-04-23T11:24:53Z</time>
      </trkpt>
      <trkpt lat="44.76899" lon="5.59068">
        <ele>1349</ele>
        <time>2018-04-23T11:24:59Z</time>
      </trkpt>
      <trkpt lat="44.76883" lon="5.59057">
        <ele>1355</ele>
        <time>2018-04-23T11:25:01Z</time>
      </trkpt>
      <trkpt lat="44.76875" lon="5.59054">
        <ele>1356</ele>
        <time>2018-04-23T11:25:09Z</time>
      </trkpt>
      <trkpt lat="44.76866" lon="5.59057">
        <ele>1357</ele>
        <time>2018-04-23T11:25:18Z</time>
      </trkpt>
      <trkpt lat="44.76861" lon="5.59067">
        <ele>1357</ele>
        <time>2018-04-23T11:25:24Z</time>
      </trkpt>
      <trkpt lat="44.76859" lon="5.59082">
        <ele>1356</ele>
        <time>2018-04-23T11:25:36Z</time>
      </trkpt>
      <trkpt lat="44.76859" lon="5.59103">
        <ele>1341</ele>
        <time>2018-04-23T11:25:39Z</time>
      </trkpt>
      <trkpt lat="44.76854" lon="5.59112">
        <ele>1340</ele>
        <time>2018-04-23T11:25:58Z</time>
      </trkpt>
      <trkpt lat="44.76848" lon="5.5912">
        <ele>1339</ele>
        <time>2018-04-23T11:26:09Z</time>
      </trkpt>
      <trkpt lat="44.7684" lon="5.59127">
        <ele>1338</ele>
        <time>2018-04-23T11:26:21Z</time>
      </trkpt>
      <trkpt lat="44.76816" lon="5.59158">
        <ele>1351</ele>
        <time>2018-04-23T11:26:28Z</time>
      </trkpt>
      <trkpt lat="44.76788" lon="5.59213">
        <ele>1338</ele>
        <time>2018-04-23T11:26:41Z</time>
      </trkpt>
      <trkpt lat="44.76774" lon="5.59232">
        <ele>1337</ele>
        <time>2018-04-23T11:26:44Z</time>
      </trkpt>
      <trkpt lat="44.76766" lon="5.59238">
        <ele>1337</ele>
        <time>2018-04-23T11:26:58Z</time>
      </trkpt>
      <trkpt lat="44.76742" lon="5.59238">
        <ele>1339</ele>
        <time>2018-04-23T11:27:06Z</time>
      </trkpt>
      <trkpt lat="44.76727" lon="5.59233">
        <ele>1339</ele>
        <time>2018-04-23T11:27:24Z</time>
      </trkpt>
      <trkpt lat="44.76717" lon="5.59224">
        <ele>1340</ele>
        <time>2018-04-23T11:27:39Z</time>
      </trkpt>
      <trkpt lat="44.76706" lon="5.59211">
        <ele>1340</ele>
        <time>2018-04-23T11:27:43Z</time>
      </trkpt>
      <trkpt lat="44.76686" lon="5.59187">
        <ele>1342</ele>
        <time>2018-04-23T11:28:00Z</time>
      </trkpt>
      <trkpt lat="44.76673" lon="5.59167">
        <ele>1344</ele>
        <time>2018-04-23T11:28:16Z</time>
      </trkpt>
      <trkpt lat="44.76658" lon="5.59137">
        <ele>1354</ele>
        <time>2018-04-23T11:28:26Z</time>
      </trkpt>
      <trkpt lat="44.76638" lon="5.59096">
        <ele>1361</ele>
        <time>2018-04-23T11:28:45Z</time>
      </trkpt>
      <trkpt lat="44.76625" lon="5.59062">
        <ele>1380</ele>
        <time>2018-04-23T11:29:02Z</time>
      </trkpt>
      <trkpt lat="44.76613" lon="5.59044">
        <ele>1381</ele>
        <time>2018-04-23T11:29:12Z</time>
      </trkpt>
      <trkpt lat="44.76607" lon="5.59042">
        <ele>1380</ele>
        <time>2018-04-23T11:29:25Z</time>
      </trkpt>
      <trkpt lat="44.76598" lon="5.59042">
        <ele>1379</ele>
        <time>2018-04-23T11:29:29Z</time>
      </trkpt>
      <trkpt lat="44.76592" lon="5.59046">
        <ele>1378</ele>
        <time>2018-04-23T11:29:48Z</time>
      </trkpt>
      <trkpt lat="44.76575" lon="5.59065">
        <ele>1373</ele>
        <time>2018-04-23T11:29:58Z</time>
      </trkpt>
      <trkpt lat="44.76565" lon="5.59092">
        <ele>1365</ele>
        <time>2018-04-23T11:30:07Z</time>
      </trkpt>
      <trkpt lat="44.76559" lon="5.59121">
        <ele>1366</ele>
        <time>2018-04-23T11:30:13Z</time>
      </trkpt>
      <trkpt lat="44.76553" lon="5.59137">
        <ele>1366</ele>
        <time>2018-04-23T11:30:28Z</time>
      </trkpt>
      <trkpt lat="44.76552" lon="5.59153">
        <ele>1364</ele>
        <time>2018-04-23T11:30:46Z</time>
      </trkpt>
      <trkpt lat="44.76557" lon="5.59171">
        <ele>1357</ele>
        <time>2018-04-23T11:30:50Z</time>
      </trkpt>
      <trkpt lat="44.76556" lon="5.5919">
        <ele>1359</ele>
        <time>2018-04-23T11:30:55Z</time>
      </trkpt>
      <trkpt lat="44.76545" lon="5.59224">
        <ele>1362</ele>
        <time>2018-04-23T11:30:58Z</time>
      </trkpt>
      <trkpt lat="44.76537" lon="5.59259">
        <ele>1364</ele>
        <time>2018-04-23T11:31:10Z</time>
      </trkpt>
      <trkpt lat="44.76525" lon="5.59331">
        <ele>1370</ele>
        <time>2018-04-23T11:31:18Z</time>
      </trkpt>
      <trkpt lat="44.76506" lon="5.594">
        <ele>1360</ele>
        <time>2018-04-23T11:31:23Z</time>
      </trkpt>
      <trkpt lat="44.76497" lon="5.59436">
        <ele>1373</ele>
        <time>2018-04-23T11:31:29Z</time>
      </trkpt>
      <trkpt lat="44.76489" lon="5.5945">
        <ele>1374</ele>
        <time>2018-04-23T11:31:36Z</time>
      </trkpt>
      <trkpt lat="44.76483" lon="5.59457">
        <ele>1374</ele>
        <time>2018-04-23T11:31:50Z</time>
      </trkpt>
      <trkpt lat="44.76466" lon="5.59461">
        <ele>1377</ele>
        <time>2018-04-23T11:32:08Z</time>
      </trkpt>
      <trkpt lat="44.76438" lon="5.5947">
        <ele>1384</ele>
        <time>2018-04-23T11:32:17Z</time>
      </trkpt>
      <trkpt lat="44.76418" lon="5.59483">
        <ele>1387</ele>
        <time>2018-04-23T11:32:22Z</time>
      </trkpt>
      <trkpt lat="44.764" lon="5.595">
        <ele>1411</ele>
        <time>2018-04-23T11:32:33Z</time>
      </trkpt>
      <trkpt lat="44.76394" lon="5.59512">
        <ele>1403</ele>
        <time>2018-04-23T11:32:47Z</time>
      </trkpt>
      <trkpt lat="44.7639" lon="5.59525">
        <ele>1405</ele>
        <time>2018-04-23T11:33:05Z</time>
      </trkpt>
      <trkpt lat="44.76386" lon="5.59551">
        <ele>1403</ele>
        <time>2018-04-23T11:33:17Z</time>
      </trkpt>
      <trkpt lat="44.76387" lon="5.59569">
        <ele>1399</ele>
        <time>2018-04-23T11:33:21Z</time>
      </trkpt>
      <trkpt lat="44.76395" lon="5.59591">
        <ele>1383</ele>
        <time>2018-04-23T11:33:39Z</time>
      </trkpt>
      <trkpt lat="44.76401" lon="5.59604">
        <ele>1382</ele>
        <time>2018-04-23T11:33:44Z</time>
      </trkpt>
      <trkpt lat="44.76403" lon="5.59615">
        <ele>1382</ele>
        <time>2018-04-23T11:33:51Z</time>
      </trkpt>
      <trkpt lat="44.76401" lon="5.59626">
        <ele>1382</ele>
        <time>2018-04-23T11:33:54Z</time>
      </trkpt>
      <trkpt lat="44.76371" lon="5.59683">
        <ele>1378</ele>
        <time>2018-04-23T11:34:14Z</time>
      </trkpt>
      <trkpt lat="44.7632" lon="5.59776">
        <ele>1393</ele>
        <time>2018-04-23T11:34:27Z</time>
      </trkpt>
      <trkpt lat="44.76275" lon="5.59864">
        <ele>1380</ele>
        <time>2018-04-23T11:34:30Z</time>
      </trkpt>
      <trkpt lat="44.76268" lon="5.59873">
        <ele>1381</ele>
        <time>2018-04-23T11:34:38Z</time>
      </trkpt>
      <trkpt lat="44.76259" lon="5.59879">
        <ele>1381</ele>
        <time>2018-04-23T11:34:50Z</time>
      </trkpt>
      <trkpt lat="44.7625" lon="5.59883">
        <ele>1382</ele>
        <time>2018-04-23T11:35:03Z</time>
      </trkpt>
      <trkpt lat="44.76242" lon="5.5989">
        <ele>1410</ele>
        <time>2018-04-23T11:35:06Z</time>
      </trkpt>
      <trkpt lat="44.76237" lon="5.59908">
        <ele>1404</ele>
        <time>2018-04-23T11:35:09Z</time>
      </trkpt>
      <trkpt lat="44.76238" lon="5.5993">
        <ele>1396</ele>
        <time>2018-04-23T11:35:12Z</time>
      </trkpt>
      <trkpt lat="44.76243" lon="5.59957">
        <ele>1395</ele>
        <time>2018-04-23T11:35:31Z</time>
      </trkpt>
      <trkpt lat="44.76243" lon="5.59972">
        <ele>1392</ele>
        <time>2018-04-23T11:35:50Z</time>
      </trkpt>
      <trkpt lat="44.7624" lon="5.59984">
        <ele>1388</ele>
        <time>2018-04-23T11:36:09Z</time>
      </trkpt>
      <trkpt lat="44.76236" lon="5.59991">
        <ele>1387</ele>
        <time>2018-04-23T11:36:13Z</time>
      </trkpt>
      <trkpt lat="44.76225" lon="5.60001">
        <ele>1381</ele>
        <time>2018-04-23T11:36:31Z</time>
      </trkpt>
      <trkpt lat="44.76211" lon="5.6001">
        <ele>1385</ele>
        <time>2018-04-23T11:36:39Z</time>
      </trkpt>
      <trkpt lat="44.76201" lon="5.60019">
        <ele>1388</ele>
        <time>2018-04-23T11:36:56Z</time>
      </trkpt>
      <trkpt lat="44.76193" lon="5.60032">
        <ele>1388</ele>
        <time>2018-04-23T11:37:06Z</time>
      </trkpt>
      <trkpt lat="44.76187" lon="5.60048">
        <ele>1387</ele>
        <time>2018-04-23T11:37:16Z</time>
      </trkpt>
      <trkpt lat="44.76178" lon="5.60071">
        <ele>1389</ele>
        <time>2018-04-23T11:37:19Z</time>
      </trkpt>
      <trkpt lat="44.76151" lon="5.60097">
        <ele>1404</ele>
        <time>2018-04-23T11:37:27Z</time>
      </trkpt>
      <trkpt lat="44.76144" lon="5.60109">
        <ele>1407</ele>
        <time>2018-04-23T11:37:41Z</time>
      </trkpt>
      <trkpt lat="44.7614" lon="5.60127">
        <ele>1407</ele>
        <time>2018-04-23T11:37:53Z</time>
      </trkpt>
      <trkpt lat="44.76131" lon="5.60145">
        <ele>1408</ele>
        <time>2018-04-23T11:38:00Z</time>
      </trkpt>
      <trkpt lat="44.7613" lon="5.60156">
        <ele>1408</ele>
        <time>2018-04-23T11:38:19Z</time>
      </trkpt>
      <trkpt lat="44.76135" lon="5.6017">
        <ele>1402</ele>
        <time>2018-04-23T11:38:36Z</time>
      </trkpt>
      <trkpt lat="44.76149" lon="5.60195">
        <ele>1399</ele>
        <time>2018-04-23T11:38:53Z</time>
      </trkpt>
      <trkpt lat="44.76153" lon="5.60213">
        <ele>1398</ele>
        <time>2018-04-23T11:38:59Z</time>
      </trkpt>
      <trkpt lat="44.76152" lon="5.60233">
        <ele>1395</ele>
        <time>2018-04-23T11:39:12Z</time>
      </trkpt>
      <trkpt lat="44.76145" lon="5.60252">
        <ele>1393</ele>
        <time>2018-04-23T11:39:29Z</time>
      </trkpt>
      <trkpt lat="44.76136" lon="5.60264">
        <ele>1397</ele>
        <time>2018-04-23T11:39:32Z</time>
      </trkpt>
      <trkpt lat="44.7613" lon="5.60289">
        <ele>1399</ele>
        <time>2018-04-23T11:39:44Z</time>
      </trkpt>
      <trkpt lat="44.76128" lon="5.60323">
        <ele>1397</ele>
        <time>2018-04-23T11:39:51Z</time>
      </trkpt>
      <trkpt lat="44.76123" lon="5.60367">
        <ele>1390</ele>
        <time>2018-04-23T11:40:03Z</time>
      </trkpt>
      <trkpt lat="44.76118" lon="5.60413">
        <ele>1390</ele>
        <time>2018-04-23T11:40:16Z</time>
      </trkpt>
      <trkpt lat="44.76098" lon="5.60457">
        <ele>1381</ele>
        <time>2018-04-23T11:40:24Z</time>
      </trkpt>
      <trkpt lat="44.76089" lon="5.60468">
        <ele>1381</ele>
        <time>2018-04-23T11:40:44Z</time>
      </trkpt>
      <trkpt lat="44.76079" lon="5.60471">
        <ele>1394</ele>
        <time>2018-04-23T11:41:04Z</time>
      </trkpt>
      <trkpt lat="44.76072" lon="5.60472">
        <ele>1394</ele>
        <time>2018-04-23T11:41:17Z</time>
      </trkpt>
      <trkpt lat="44.76062" lon="5.60462">
        <ele>1396</ele>
        <time>2018-04-23T11:41:22Z</time>
      </trkpt>
      <trkpt lat="44.76059" lon="5.60445">
        <ele>1399</ele>
        <time>2018-04-23T11:41:41Z</time>
      </trkpt>
      <trkpt lat="44.7606" lon="5.60426">
        <ele>1401</ele>
        <time>2018-04-23T11:41:58Z</time>
      </trkpt>
      <trkpt lat="44.76059" lon="5.60412">
        <ele>1413</ele>
        <time>2018-04-23T11:42:11Z</time>
      </trkpt>
      <trkpt lat="44.76053" lon="5.604">
        <ele>1416</ele>
        <time>2018-04-23T11:42:26Z</time>
      </trkpt>
      <trkpt lat="44.76045" lon="5.60395">
        <ele>1417</ele>
        <time>2018-04-23T11:42:42Z</time>
      </trkpt>
      <trkpt lat="44.76041" lon="5.60393">
        <ele>1418</ele>
        <time>2018-04-23T11:42:57Z</time>
      </trkpt>
      <trkpt lat="44.76035" lon="5.60394">
        <ele>1418</ele>
        <time>2018-04-23T11:43:01Z</time>
      </trkpt>
      <trkpt lat="44.76019" lon="5.60401">
        <ele>1418</ele>
        <time>2018-04-23T11:43:11Z</time>
      </trkpt>
      <trkpt lat="44.75999" lon="5.60414">
        <ele>1416</ele>
        <time>2018-04-23T11:43:16Z</time>
      </trkpt>
      <trkpt lat="44.7594" lon="5.60448">
        <ele>1416</ele>
        <time>2018-04-23T11:43:21Z</time>
      </trkpt>
      <trkpt lat="44.75912" lon="5.60479">
        <ele>1425</ele>
        <time>2018-04-23T11:43:28Z</time>
      </trkpt>
      <trkpt lat="44.75907" lon="5.60483">
        <ele>1424</ele>
        <time>2018-04-23T11:43:38Z</time>
      </trkpt>
      <trkpt lat="44.75902" lon="5.60483">
        <ele>1425</ele>
        <time>2018-04-23T11:43:45Z</time>
      </trkpt>
      <trkpt lat="44.75895" lon="5.60481">
        <ele>1427</ele>
        <time>2018-04-23T11:43:53Z</time>
      </trkpt>
      <trkpt lat="44.75846" lon="5.60414">
        <ele>1450</ele>
        <time>2018-04-23T11:44:04Z</time>
      </trkpt>
      <trkpt lat="44.75763" lon="5.603">
        <ele>1447</ele>
        <time>2018-04-23T11:44:19Z</time>
      </trkpt>
      <trkpt lat="44.75718" lon="5.60234">
        <ele>1412</ele>
        <time>2018-04-23T11:44:27Z</time>
      </trkpt>
      <trkpt lat="44.75711" lon="5.60216">
        <ele>1410</ele>
        <time>2018-04-23T11:44:37Z</time>
      </trkpt>
      <trkpt lat="44.75718" lon="5.60234">
        <ele>1412</ele>
        <time>2018-04-23T11:44:40Z</time>
      </trkpt>
      <trkpt lat="44.75763" lon="5.603">
        <ele>1447</ele>
        <time>2018-04-23T11:44:53Z</time>
      </trkpt>
      <trkpt lat="44.75895" lon="5.60481">
        <ele>1427</ele>
        <time>2018-04-23T11:44:59Z</time>
      </trkpt>
      <trkpt lat="44.75902" lon="5.60483">
        <ele>1425</ele>
        <time>2018-04-23T11:45:06Z</time>
      </trkpt>
      <trkpt lat="44.75907" lon="5.60483">
        <ele>1424</ele>
        <time>2018-04-23T11:45:14Z</time>
      </trkpt>
      <trkpt lat="44.75922" lon="5.60468">
        <ele>1414</ele>
        <time>2018-04-23T11:45:29Z</time>
      </trkpt>
      <trkpt lat="44.7594" lon="5.60448">
        <ele>1416</ele>
        <time>2018-04-23T11:45:35Z</time>
      </trkpt>
      <trkpt lat="44.75972" lon="5.60429">
        <ele>1414</ele>
        <time>2018-04-23T11:45:52Z</time>
      </trkpt>
      <trkpt lat="44.76019" lon="5.60401">
        <ele>1418</ele>
        <time>2018-04-23T11:45:54Z</time>
      </trkpt>
      <trkpt lat="44.76035" lon="5.60394">
        <ele>1418</ele>
        <time>2018-04-23T11:46:04Z</time>
      </trkpt>
      <trkpt lat="44.76041" lon="5.60393">
        <ele>1418</ele>
        <time>2018-04-23T11:46:10Z</time>
      </trkpt>
      <trkpt lat="44.76045" lon="5.60395">
        <ele>1417</ele>
        <time>2018-04-23T11:46:22Z</time>
      </trkpt>
      <trkpt lat="44.76053" lon="5.604">
        <ele>1416</ele>
        <time>2018-04-23T11:46:33Z</time>
      </trkpt>
      <trkpt lat="44.76059" lon="5.60412">
        <ele>1413</ele>
        <time>2018-04-23T11:46:50Z</time>
      </trkpt>
      <trkpt lat="44.76059" lon="5.60445">
        <ele>1399</ele>
        <time>2018-04-23T11:47:05Z</time>
      </trkpt>
      <trkpt lat="44.76062" lon="5.60462">
        <ele>1396</ele>
        <time>2018-04-23T11:47:22Z</time>
      </trkpt>
      <trkpt lat="44.76072" lon="5.60472">
        <ele>1394</ele>
        <time>2018-04-23T11:47:26Z</time>
      </trkpt>
      <trkpt lat="44.76079" lon="5.60471">
        <ele>1394</ele>
        <time>2018-04-23T11:47:46Z</time>
      </trkpt>
      <trkpt lat="44.76089" lon="5.60468">
        <ele>1381</ele>
        <time>2018-04-23T11:47:54Z</time>
      </trkpt>
      <trkpt lat="44.76098" lon="5.60457">
        <ele>1381</ele>
        <time>2018-04-23T11:48:11Z</time>
      </trkpt>
      <trkpt lat="44.76111" lon="5.6043">
        <ele>1383</ele>
        <time>2018-04-23T11:48:24Z</time>
      </trkpt>
      <trkpt lat="44.76118" lon="5.60413">
        <ele>1390</ele>
        <time>2018-04-23T11:48:26Z</time>
      </trkpt>
      <trkpt lat="44.7612" lon="5.60398">
        <ele>1389</ele>
        <time>2018-04-23T11:48:30Z</time>
      </trkpt>
      <trkpt lat="44.76125" lon="5.60339">
        <ele>1391</ele>
        <time>2018-04-23T11:48:38Z</time>
      </trkpt>
      <trkpt lat="44.7613" lon="5.60303">
        <ele>1398</ele>
        <time>2018-04-23T11:48:54Z</time>
      </trkpt>
      <trkpt lat="44.76133" lon="5.60274">
        <ele>1398</ele>
        <time>2018-04-23T11:49:01Z</time>
      </trkpt>
      <trkpt lat="44.76136" lon="5.60264">
        <ele>1397</ele>
        <time>2018-04-23T11:49:21Z</time>
      </trkpt>
      <trkpt lat="44.76145" lon="5.60252">
        <ele>1393</ele>
        <time>2018-04-23T11:49:31Z</time>
      </trkpt>
      <trkpt lat="44.76152" lon="5.60233">
        <ele>1395</ele>
        <time>2018-04-23T11:49:36Z</time>
      </trkpt>
      <trkpt lat="44.76153" lon="5.60213">
        <ele>1398</ele>
        <time>2018-04-23T11:49:44Z</time>
      </trkpt>
      <trkpt lat="44.76149" lon="5.60195">
        <ele>1399</ele>
        <time>2018-04-23T11:49:54Z</time>
      </trkpt>
      <trkpt lat="44.7614" lon="5.6018">
        <ele>1400</ele>
        <time>2018-04-23T11:50:06Z</time>
      </trkpt>
      <trkpt lat="44.76135" lon="5.6017">
        <ele>1402</ele>
        <time>2018-04-23T11:50:19Z</time>
      </trkpt>
      <trkpt lat="44.7613" lon="5.60156">
        <ele>1408</ele>
        <time>2018-04-23T11:50:32Z</time>
      </trkpt>
      <trkpt lat="44.76131" lon="5.60145">
        <ele>1408</ele>
        <time>2018-04-23T11:50:37Z</time>
      </trkpt>
      <trkpt lat="44.76136" lon="5.60136">
        <ele>1407</ele>
        <time>2018-04-23T11:50:56Z</time>
      </trkpt>
      <trkpt lat="44.7614" lon="5.60127">
        <ele>1407</ele>
        <time>2018-04-23T11:51:14Z</time>
      </trkpt>
      <trkpt lat="44.76144" lon="5.60109">
        <ele>1407</ele>
        <time>2018-04-23T11:51:23Z</time>
      </trkpt>
      <trkpt lat="44.76151" lon="5.60097">
        <ele>1404</ele>
        <time>2018-04-23T11:51:41Z</time>
      </trkpt>
      <trkpt lat="44.76158" lon="5.6009">
        <ele>1400</ele>
        <time>2018-04-23T11:51:43Z</time>
      </trkpt>
      <trkpt lat="44.76178" lon="5.60071">
        <ele>1389</ele>
        <time>2018-04-23T11:51:48Z</time>
      </trkpt>
      <trkpt lat="44.76183" lon="5.60062">
        <ele>1387</ele>
        <time>2018-04-23T11:52:03Z</time>
      </trkpt>
      <trkpt lat="44.76193" lon="5.60032">
        <ele>1388</ele>
        <time>2018-04-23T11:52:14Z</time>
      </trkpt>
      <trkpt lat="44.76201" lon="5.60019">
        <ele>1388</ele>
        <time>2018-04-23T11:52:26Z</time>
      </trkpt>
      <trkpt lat="44.76211" lon="5.6001">
        <ele>1385</ele>
        <time>2018-04-23T11:52:30Z</time>
      </trkpt>
      <trkpt lat="44.76225" lon="5.60001">
        <ele>1381</ele>
        <time>2018-04-23T11:52:36Z</time>
      </trkpt>
      <trkpt lat="44.76236" lon="5.59991">
        <ele>1387</ele>
        <time>2018-04-23T11:52:44Z</time>
      </trkpt>
      <trkpt lat="44.7624" lon="5.59984">
        <ele>1388</ele>
        <time>2018-04-23T11:53:04Z</time>
      </trkpt>
      <trkpt lat="44.76243" lon="5.59972">
        <ele>1392</ele>
        <time>2018-04-23T11:53:24Z</time>
      </trkpt>
      <trkpt lat="44.76243" lon="5.59957">
        <ele>1395</ele>
        <time>2018-04-23T11:53:38Z</time>
      </trkpt>
      <trkpt lat="44.76238" lon="5.5993">
        <ele>1396</ele>
        <time>2018-04-23T11:53:55Z</time>
      </trkpt>
      <trkpt lat="44.76237" lon="5.59908">
        <ele>1404</ele>
        <time>2018-04-23T11:53:57Z</time>
      </trkpt>
      <trkpt lat="44.76242" lon="5.5989">
        <ele>1410</ele>
        <time>2018-04-23T11:54:02Z</time>
      </trkpt>
      <trkpt lat="44.7625" lon="5.59883">
        <ele>1382</ele>
        <time>2018-04-23T11:54:08Z</time>
      </trkpt>
      <trkpt lat="44.76259" lon="5.59879">
        <ele>1381</ele>
        <time>2018-04-23T11:54:19Z</time>
      </trkpt>
      <trkpt lat="44.76268" lon="5.59873">
        <ele>1381</ele>
        <time>2018-04-23T11:54:38Z</time>
      </trkpt>
      <trkpt lat="44.76275" lon="5.59864">
        <ele>1380</ele>
        <time>2018-04-23T11:54:56Z</time>
      </trkpt>
      <trkpt lat="44.76287" lon="5.5984">
        <ele>1380</ele>
        <time>2018-04-23T11:55:15Z</time>
      </trkpt>
      <trkpt lat="44.7632" lon="5.59776">
        <ele>1393</ele>
        <time>2018-04-23T11:55:19Z</time>
      </trkpt>
      <trkpt lat="44.76346" lon="5.59731">
        <ele>1380</ele>
        <time>2018-04-23T11:55:29Z</time>
      </trkpt>
      <trkpt lat="44.76398" lon="5.59634">
        <ele>1382</ele>
        <time>2018-04-23T11:55:43Z</time>
      </trkpt>
      <trkpt lat="44.76403" lon="5.59615">
        <ele>1382</ele>
        <time>2018-04-23T11:55:54Z</time>
      </trkpt>
      <trkpt lat="44.76401" lon="5.59604">
        <ele>1382</ele>
        <time>2018-04-23T11:55:57Z</time>
      </trkpt>
      <trkpt lat="44.76395" lon="5.59591">
        <ele>1383</ele>
        <time>2018-04-23T11:56:16Z</time>
      </trkpt>
      <trkpt lat="44.76387" lon="5.59569">
        <ele>1399</ele>
        <time>2018-04-23T11:56:36Z</time>
      </trkpt>
      <trkpt lat="44.76386" lon="5.59551">
        <ele>1403</ele>
        <time>2018-04-23T11:56:40Z</time>
      </trkpt>
      <trkpt lat="44.7639" lon="5.59525">
        <ele>1405</ele>
        <time>2018-04-23T11:56:44Z</time>
      </trkpt>
      <trkpt lat="44.76394" lon="5.59512">
        <ele>1403</ele>
        <time>2018-04-23T11:57:01Z</time>
      </trkpt>
      <trkpt lat="44.764" lon="5.595">
        <ele>1411</ele>
        <time>2018-04-23T11:57:15Z</time>
      </trkpt>
      <trkpt lat="44.76418" lon="5.59483">
        <ele>1387</ele>
        <time>2018-04-23T11:57:31Z</time>
      </trkpt>
      <trkpt lat="44.76438" lon="5.5947">
        <ele>1384</ele>
        <time>2018-04-23T11:57:47Z</time>
      </trkpt>
      <trkpt lat="44.76466" lon="5.59461">
        <ele>1377</ele>
        <time>2018-04-23T11:57:55Z</time>
      </trkpt>
      <trkpt lat="44.76483" lon="5.59457">
        <ele>1374</ele>
        <time>2018-04-23T11:58:00Z</time>
      </trkpt>
      <trkpt lat="44.76489" lon="5.5945">
        <ele>1374</ele>
        <time>2018-04-23T11:58:17Z</time>
      </trkpt>
      <trkpt lat="44.76497" lon="5.59436">
        <ele>1373</ele>
        <time>2018-04-23T11:58:26Z</time>
      </trkpt>
      <trkpt lat="44.76506" lon="5.594">
        <ele>1360</ele>
        <time>2018-04-23T11:58:45Z</time>
      </trkpt>
      <trkpt lat="44.76525" lon="5.59331">
        <ele>1370</ele>
        <time>2018-04-23T11:58:49Z</time>
      </trkpt>
      <trkpt lat="44.76537" lon="5.59259">
        <ele>1364</ele>
        <time>2018-04-23T11:59:03Z</time>
      </trkpt>
      <trkpt lat="44.76545" lon="5.59224">
        <ele>1362</ele>
        <time>2018-04-23T11:59:08Z</time>
      </trkpt>
      <trkpt lat="44.76556" lon="5.5919">
        <ele>1359</ele>
        <time>2018-04-23T11:59:20Z</time>
      </trkpt>
      <trkpt lat="44.76557" lon="5.59171">
        <ele>1357</ele>
        <time>2018-04-23T11:59:39Z</time>
      </trkpt>
      <trkpt lat="44.76554" lon="5.5916">
        <ele>1363</ele>
        <time>2018-04-23T11:59:59Z</time>
      </trkpt>
      <trkpt lat="44.76552" lon="5.59153">
        <ele>1364</ele>
        <time>2018-04-23T12:00:15Z</time>
      </trkpt>
      <trkpt lat="44.76553" lon="5.59137">
        <ele>1366</ele>
        <time>2018-04-23T12:00:28Z</time>
      </trkpt>
      <trkpt lat="44.76559" lon="5.59121">
        <ele>1366</ele>
        <time>2018-04-23T12:00:31Z</time>
      </trkpt>
      <trkpt lat="44.76564" lon="5.591">
        <ele>1366</ele>
        <time>2018-04-23T12:00:37Z</time>
      </trkpt>
      <trkpt lat="44.76568" lon="5.5908">
        <ele>1371</ele>
        <time>2018-04-23T12:00:39Z</time>
      </trkpt>
      <trkpt lat="44.76575" lon="5.59065">
        <ele>1373</ele>
        <time>2018-04-23T12:00:59Z</time>
      </trkpt>
      <trkpt lat="44.76585" lon="5.59052">
        <ele>1375</ele>
        <time>2018-04-23T12:01:04Z</time>
      </trkpt>
      <trkpt lat="44.76596" lon="5.59042">
        <ele>1379</ele>
        <time>2018-04-23T12:01:09Z</time>
      </trkpt>
      <trkpt lat="44.76602" lon="5.59041">
        <ele>1380</ele>
        <time>2018-04-23T12:01:15Z</time>
      </trkpt>
      <trkpt lat="44.76608" lon="5.59042">
        <ele>1380</ele>
        <time>2018-04-23T12:01:34Z</time>
      </trkpt>
      <trkpt lat="44.76618" lon="5.5905">
        <ele>1380</ele>
        <time>2018-04-23T12:01:39Z</time>
      </trkpt>
      <trkpt lat="44.76634" lon="5.59083">
        <ele>1378</ele>
        <time>2018-04-23T12:01:56Z</time>
      </trkpt>
      <trkpt lat="44.76645" lon="5.59113">
        <ele>1358</ele>
        <time>2018-04-23T12:02:10Z</time>
      </trkpt>
      <trkpt lat="44.76678" lon="5.59175">
        <ele>1344</ele>
        <time>2018-04-23T12:02:21Z</time>
      </trkpt>
      <trkpt lat="44.76697" lon="5.59201">
        <ele>1341</ele>
        <time>2018-04-23T12:02:33Z</time>
      </trkpt>
      <trkpt lat="44.76715" lon="5.59222">
        <ele>1340</ele>
        <time>2018-04-23T12:02:53Z</time>
      </trkpt>
      <trkpt lat="44.76727" lon="5.59233">
        <ele>1339</ele>
        <time>2018-04-23T12:03:07Z</time>
      </trkpt>
      <trkpt lat="44.76742" lon="5.59238">
        <ele>1339</ele>
        <time>2018-04-23T12:03:12Z</time>
      </trkpt>
      <trkpt lat="44.76756" lon="5.59239">
        <ele>1337</ele>
        <time>2018-04-23T12:03:26Z</time>
      </trkpt>
      <trkpt lat="44.7677" lon="5.59236">
        <ele>1337</ele>
        <time>2018-04-23T12:03:43Z</time>
      </trkpt>
      <trkpt lat="44.76783" lon="5.59223">
        <ele>1338</ele>
        <time>2018-04-23T12:03:49Z</time>
      </trkpt>
      <trkpt lat="44.76798" lon="5.59193">
        <ele>1340</ele>
        <time>2018-04-23T12:03:58Z</time>
      </trkpt>
      <trkpt lat="44.76816" lon="5.59158">
        <ele>1351</ele>
        <time>2018-04-23T12:04:17Z</time>
      </trkpt>
      <trkpt lat="44.76832" lon="5.59135">
        <ele>1356</ele>
        <time>2018-04-23T12:04:25Z</time>
      </trkpt>
      <trkpt lat="44.76845" lon="5.59123">
        <ele>1339</ele>
        <time>2018-04-23T12:04:35Z</time>
      </trkpt>
      <trkpt lat="44.76852" lon="5.59116">
        <ele>1339</ele>
        <time>2018-04-23T12:04:48Z</time>
      </trkpt>
      <trkpt lat="44.76857" lon="5.59108">
        <ele>1340</ele>
        <time>2018-04-23T12:04:55Z</time>
      </trkpt>
      <trkpt lat="44.7686" lon="5.59099">
        <ele>1341</ele>
        <time>2018-04-23T12:05:06Z</time>
      </trkpt>
      <trkpt lat="44.76859" lon="5.59078">
        <ele>1356</ele>
        <time>2018-04-23T12:05:24Z</time>
      </trkpt>
      <trkpt lat="44.7686" lon="5.5907">
        <ele>1357</ele>
        <time>2018-04-23T12:05:39Z</time>
      </trkpt>
      <trkpt lat="44.76864" lon="5.59062">
        <ele>1357</ele>
        <time>2018-04-23T12:05:44Z</time>
      </trkpt>
      <trkpt lat="44.76869" lon="5.59056">
        <ele>1357</ele>
        <time>2018-04-23T12:05:57Z</time>
      </trkpt>
      <trkpt lat="44.76877" lon="5.59054">
        <ele>1356</ele>
        <time>2018-04-23T12:06:02Z</time>
      </trkpt>
      <trkpt lat="44.76906" lon="5.59073">
        <ele>1345</ele>
        <time>2018-04-23T12:06:12Z</time>
      </trkpt>
      <trkpt lat="44.76914" lon="5.59075">
        <ele>1341</ele>
        <time>2018-04-23T12:06:14Z</time>
      </trkpt>
      <trkpt lat="44.76922" lon="5.59072">
        <ele>1335</ele>
        <time>2018-04-23T12:06:31Z</time>
      </trkpt>
      <trkpt lat="44.76931" lon="5.59061">
        <ele>1336</ele>
        <time>2018-04-23T12:06:38Z</time>
      </trkpt>
      <trkpt lat="44.76938" lon="5.59048">
        <ele>1338</ele>
        <time>2018-04-23T12:06:55Z</time>
      </trkpt>
      <trkpt lat="44.76952" lon="5.59043">
        <ele>1337</ele>
        <time>2018-04-23T12:06:59Z</time>
      </trkpt>
      <trkpt lat="44.76965" lon="5.59041">
        <ele>1336</ele>
        <time>2018-04-23T12:07:08Z</time>
      </trkpt>
      <trkpt lat="44.76975" lon="5.5903">
        <ele>1336</ele>
        <time>2018-04-23T12:07:26Z</time>
      </trkpt>
      <trkpt lat="44.7699" lon="5.59014">
        <ele>1336</ele>
        <time>2018-04-23T12:07:38Z</time>
      </trkpt>
      <trkpt lat="44.76999" lon="5.5901">
        <ele>1337</ele>
        <time>2018-04-23T12:07:50Z</time>
      </trkpt>
      <trkpt lat="44.77008" lon="5.59009">
        <ele>1332</ele>
        <time>2018-04-23T12:07:57Z</time>
      </trkpt>
      <trkpt lat="44.77024" lon="5.59011">
        <ele>1328</ele>
        <time>2018-04-23T12:08:17Z</time>
      </trkpt>
      <trkpt lat="44.7703" lon="5.59007">
        <ele>1328</ele>
        <time>2018-04-23T12:08:29Z</time>
      </trkpt>
      <trkpt lat="44.77036" lon="5.58998">
        <ele>1342</ele>
        <time>2018-04-23T12:08:34Z</time>
      </trkpt>
      <trkpt lat="44.77044" lon="5.58978">
        <ele>1343</ele>
        <time>2018-04-23T12:08:40Z</time>
      </trkpt>
      <trkpt lat="44.77049" lon="5.58972">
        <ele>1344</ele>
        <time>2018-04-23T12:09:00Z</time>
      </trkpt>
      <trkpt lat="44.77055" lon="5.5897">
        <ele>1344</ele>
        <time>2018-04-23T12:09:12Z</time>
      </trkpt>
      <trkpt lat="44.77064" lon="5.58973">
        <ele>1342</ele>
        <time>2018-04-23T12:09:16Z</time>
      </trkpt>
      <trkpt lat="44.77069" lon="5.5898">
        <ele>1341</ele>
        <time>2018-04-23T12:09:23Z</time>
      </trkpt>
      <trkpt lat="44.77077" lon="5.58995">
        <ele>1336</ele>
        <time>2018-04-23T12:09:31Z</time>
      </trkpt>
      <trkpt lat="44.77087" lon="5.5901">
        <ele>1329</ele>
        <time>2018-04-23T12:09:51Z</time>
      </trkpt>
      <trkpt lat="44.77094" lon="5.59015">
        <ele>1327</ele>
        <time>2018-04-23T12:09:56Z</time>
      </trkpt>
      <trkpt lat="44.77103" lon="5.59018">
        <ele>1326</ele>
        <time>2018-04-23T12:10:03Z</time>
      </trkpt>
      <trkpt lat="44.77111" lon="5.59018">
        <ele>1326</ele>
        <time>2018-04-23T12:10:10Z</time>
      </trkpt>
      <trkpt lat="44.77118" lon="5.59022">
        <ele>1326</ele>
        <time>2018-04-23T12:10:19Z</time>
      </trkpt>
      <trkpt lat="44.77124" lon="5.59031">
        <ele>1325</ele>
        <time>2018-04-23T12:10:32Z</time>
      </trkpt>
      <trkpt lat="44.77133" lon="5.59046">
        <ele>1323</ele>
        <time>2018-04-23T12:10:34Z</time>
      </trkpt>
      <trkpt lat="44.77152" lon="5.59067">
        <ele>1320</ele>
        <time>2018-04-23T12:10:48Z</time>
      </trkpt>
      <trkpt lat="44.77161" lon="5.59083">
        <ele>1316</ele>
        <time>2018-04-23T12:10:58Z</time>
      </trkpt>
      <trkpt lat="44.77171" lon="5.59105">
        <ele>1302</ele>
        <time>2018-04-23T12:11:06Z</time>
      </trkpt>
      <trkpt lat="44.7718" lon="5.59116">
        <ele>1298</ele>
        <time>2018-04-23T12:11:10Z</time>
      </trkpt>
      <trkpt lat="44.77186" lon="5.59117">
        <ele>1297</ele>
        <time>2018-04-23T12:11:13Z</time>
      </trkpt>
      <trkpt lat="44.77191" lon="5.59113">
        <ele>1297</ele>
        <time>2018-04-23T12:11:29Z</time>
      </trkpt>
      <trkpt lat="44.77195" lon="5.59105">
        <ele>1298</ele>
        <time>2018-04-23T12:11:44Z</time>
      </trkpt>
      <trkpt lat="44.77203" lon="5.59079">
        <ele>1307</ele>
        <time>2018-04-23T12:12:00Z</time>
      </trkpt>
      <trkpt lat="44.77207" lon="5.59048">
        <ele>1308</ele>
        <time>2018-04-23T12:12:03Z</time>
      </trkpt>
      <trkpt lat="44.77208" lon="5.59">
        <ele>1323</ele>
        <time>2018-04-23T12:12:23Z</time>
      </trkpt>
      <trkpt lat="44.77209" lon="5.58987">
        <ele>1323</ele>
        <time>2018-04-23T12:12:36Z</time>
      </trkpt>
      <trkpt lat="44.77213" lon="5.58976">
        <ele>1323</ele>
        <time>2018-04-23T12:12:40Z</time>
      </trkpt>
      <trkpt lat="44.77223" lon="5.58959">
        <ele>1322</ele>
        <time>2018-04-23T12:12:46Z</time>
      </trkpt>
      <trkpt lat="44.77229" lon="5.58942">
        <ele>1321</ele>
        <time>2018-04-23T12:12:53Z</time>
      </trkpt>
      <trkpt lat="44.77231" lon="5.58934">
        <ele>1320</ele>
        <time>2018-04-23T12:13:08Z</time>
      </trkpt>
      <trkpt lat="44.77236" lon="5.58927">
        <ele>1318</ele>
        <time>2018-04-23T12:13:15Z</time>
      </trkpt>
      <trkpt lat="44.77243" lon="5.58924">
        <ele>1315</ele>
        <time>2018-04-23T12:13:19Z</time>
      </trkpt>
      <trkpt lat="44.77254" lon="5.58932">
        <ele>1303</ele>
        <time>2018-04-23T12:13:39Z</time>
      </trkpt>
      <trkpt lat="44.77265" lon="5.58943">
        <ele>1299</ele>
        <time>2018-04-23T12:13:50Z</time>
      </trkpt>
      <trkpt lat="44.7727" lon="5.58942">
        <ele>1299</ele>
        <time>2018-04-23T12:14:01Z</time>
      </trkpt>
      <trkpt lat="44.77275" lon="5.58937">
        <ele>1299</ele>
        <time>2018-04-23T12:14:06Z</time>
      </trkpt>
      <trkpt lat="44.7728" lon="5.58925">
        <ele>1299</ele>
        <time>2018-04-23T12:14:12Z</time>
      </trkpt>
      <trkpt lat="44.77283" lon="5.58914">
        <ele>1305</ele>
        <time>2018-04-23T12:14:14Z</time>
      </trkpt>
      <trkpt lat="44.77284" lon="5.58898">
        <ele>1306</ele>
        <time>2018-04-23T12:14:28Z</time>
      </trkpt>
      <trkpt lat="44.77287" lon="5.58866">
        <ele>1308</ele>
        <time>2018-04-23T12:14:43Z</time>
      </trkpt>
      <trkpt lat="44.77299" lon="5.58831">
        <ele>1317</ele>
        <time>2018-04-23T12:14:50Z</time>
      </trkpt>
      <trkpt lat="44.77299" lon="5.58816">
        <ele>1318</ele>
        <time>2018-04-23T12:14:55Z</time>
      </trkpt>
      <trkpt lat="44.77295" lon="5.58793">
        <ele>1321</ele>
        <time>2018-04-23T12:15:02Z</time>
      </trkpt>
      <trkpt lat="44.77298" lon="5.58785">
        <ele>1321</ele>
        <time>2018-04-23T12:15:10Z</time>
      </trkpt>
      <trkpt lat="44.77301" lon="5.5878">
        <ele>1321</ele>
        <time>2018-04-23T12:15:20Z</time>
      </trkpt>
      <trkpt lat="44.77308" lon="5.58777">
        <ele>1320</ele>
        <time>2018-04-23T12:15:29Z</time>
      </trkpt>
      <trkpt lat="44.7732" lon="5.58777">
        <ele>1318</ele>
        <time>2018-04-23T12:15:39Z</time>
      </trkpt>
      <trkpt lat="44.77327" lon="5.58783">
        <ele>1317</ele>
        <time>2018-04-23T12:15:53Z</time>
      </trkpt>
      <trkpt lat="44.77343" lon="5.58833">
        <ele>1311</ele>
        <time>2018-04-23T12:16:12Z</time>
      </trkpt>
      <trkpt lat="44.77348" lon="5.58861">
        <ele>1310</ele>
        <time>2018-04-23T12:16:26Z</time>
      </trkpt>
      <trkpt lat="44.77353" lon="5.5889">
        <ele>1308</ele>
        <time>2018-04-23T12:16:28Z</time>
      </trkpt>
      <trkpt lat="44.77353" lon="5.58926">
        <ele>1299</ele>
        <time>2018-04-23T12:16:47Z</time>
      </trkpt>
      <trkpt lat="44.77358" lon="5.58952">
        <ele>1302</ele>
        <time>2018-04-23T12:16:55Z</time>
      </trkpt>
      <trkpt lat="44.77357" lon="5.58965">
        <ele>1301</ele>
        <time>2018-04-23T12:17:08Z</time>
      </trkpt>
      <trkpt lat="44.77347" lon="5.58989">
        <ele>1295</ele>
        <time>2018-04-23T12:17:21Z</time>
      </trkpt>
      <trkpt lat="44.77345" lon="5.59">
        <ele>1293</ele>
        <time>2018-04-23T12:17:23Z</time>
      </trkpt>
      <trkpt lat="44.77346" lon="5.59013">
        <ele>1290</ele>
        <time>2018-04-23T12:17:30Z</time>
      </trkpt>
      <trkpt lat="44.77352" lon="5.59042">
        <ele>1290</ele>
        <time>2018-04-23T12:17:46Z</time>
      </trkpt>
      <trkpt lat="44.77358" lon="5.59063">
        <ele>1288</ele>
        <time>2018-04-23T12:17:56Z</time>
      </trkpt>
      <trkpt lat="44.77364" lon="5.59073">
        <ele>1288</ele>
        <time>2018-04-23T12:17:59Z</time>
      </trkpt>
      <trkpt lat="44.77377" lon="5.59081">
        <ele>1291</ele>
        <time>2018-04-23T12:18:06Z</time>
      </trkpt>
      <trkpt lat="44.77397" lon="5.59086">
        <ele>1286</ele>
        <time>2018-04-23T12:18:08Z</time>
      </trkpt>
      <trkpt lat="44.77417" lon="5.59098">
        <ele>1298</ele>
        <time>2018-04-23T12:18:25Z</time>
      </trkpt>
      <trkpt lat="44.77433" lon="5.59112">
        <ele>1298</ele>
        <time>2018-04-23T12:18:35Z</time>
      </trkpt>
      <trkpt lat="44.77442" lon="5.59129">
        <ele>1296</ele>
        <time>2018-04-23T12:18:54Z</time>
      </trkpt>
      <trkpt lat="44.77447" lon="5.59153">
        <ele>1294</ele>
        <time>2018-04-23T12:18:58Z</time>
      </trkpt>
      <trkpt lat="44.77456" lon="5.59181">
        <ele>1283</ele>
        <time>2018-04-23T12:19:15Z</time>
      </trkpt>
      <trkpt lat="44.77475" lon="5.59214">
        <ele>1284</ele>
        <time>2018-04-23T12:19:19Z</time>
      </trkpt>
      <trkpt lat="44.77485" lon="5.59232">
        <ele>1284</ele>
        <time>2018-04-23T12:19:28Z</time>
      </trkpt>
      <trkpt lat="44.77488" lon="5.59248">
        <ele>1286</ele>
        <time>2018-04-23T12:19:41Z</time>
      </trkpt>
      <trkpt lat="44.77489" lon="5.59261">
        <ele>1277</ele>
        <time>2018-04-23T12:20:01Z</time>
      </trkpt>
      <trkpt lat="44.77493" lon="5.59274">
        <ele>1273</ele>
        <time>2018-04-23T12:20:19Z</time>
      </trkpt>
      <trkpt lat="44.7753" lon="5.5931">
        <ele>1280</ele>
        <time>2018-04-23T12:20:31Z</time>
      </trkpt>
      <trkpt lat="44.77539" lon="5.59327">
        <ele>1279</ele>
        <time>2018-04-23T12:20:48Z</time>
      </trkpt>
      <trkpt lat="44.77545" lon="5.59359">
        <ele>1269</ele>
        <time>2018-04-23T12:20:51Z</time>
      </trkpt>
      <trkpt lat="44.7755" lon="5.59385">
        <ele>1268</ele>
        <time>2018-04-23T12:20:58Z</time>
      </trkpt>
      <trkpt lat="44.77555" lon="5.59395">
        <ele>1267</ele>
        <time>2018-04-23T12:21:04Z</time>
      </trkpt>
      <trkpt lat="44.7756" lon="5.594">
        <ele>1268</ele>
        <time>2018-04-23T12:21:24Z</time>
      </trkpt>
      <trkpt lat="44.77565" lon="5.59399">
        <ele>1268</ele>
        <time>2018-04-23T12:21:38Z</time>
      </trkpt>
      <trkpt lat="44.77572" lon="5.59391">
        <ele>1269</ele>
        <time>2018-04-23T12:21:50Z</time>
      </trkpt>
      <trkpt lat="44.77584" lon="5.59342">
        <ele>1275</ele>
        <time>2018-04-23T12:21:59Z</time>
      </trkpt>
      <trkpt lat="44.77592" lon="5.59325">
        <ele>1276</ele>
        <time>2018-04-23T12:22:17Z</time>
      </trkpt>
      <trkpt lat="44.77598" lon="5.59316">
        <ele>1275</ele>
        <time>2018-04-23T12:22:19Z</time>
      </trkpt>
      <trkpt lat="44.77616" lon="5.59305">
        <ele>1272</ele>
        <time>2018-04-23T12:22:29Z</time>
      </trkpt>
      <trkpt lat="44.77625" lon="5.59295">
        <ele>1270</ele>
        <time>2018-04-23T12:22:31Z</time>
      </trkpt>
      <trkpt lat="44.77627" lon="5.59285">
        <ele>1270</ele>
        <time>2018-04-23T12:22:41Z</time>
      </trkpt>
      <trkpt lat="44.77627" lon="5.59273">
        <ele>1271</ele>
        <time>2018-04-23T12:22:48Z</time>
      </trkpt>
      <trkpt lat="44.77621" lon="5.59247">
        <ele>1276</ele>
        <time>2018-04-23T12:23:05Z</time>
      </trkpt>
      <trkpt lat="44.77609" lon="5.59199">
        <ele>1279</ele>
        <time>2018-04-23T12:23:23Z</time>
      </trkpt>
      <trkpt lat="44.77606" lon="5.59172">
        <ele>1281</ele>
        <time>2018-04-23T12:23:43Z</time>
      </trkpt>
      <trkpt lat="44.77605" lon="5.59151">
        <ele>1284</ele>
        <time>2018-04-23T12:23:59Z</time>
      </trkpt>
      <trkpt lat="44.77608" lon="5.59135">
        <ele>1283</ele>
        <time>2018-04-23T12:24:17Z</time>
      </trkpt>
      <trkpt lat="44.77613" lon="5.59128">
        <ele>1282</ele>
        <time>2018-04-23T12:24:33Z</time>
      </trkpt>
      <trkpt lat="44.7762" lon="5.59126">
        <ele>1281</ele>
        <time>2018-04-23T12:24:47Z</time>
      </trkpt>
      <trkpt lat="44.77626" lon="5.5913">
        <ele>1280</ele>
        <time>2018-04-23T12:25:07Z</time>
      </trkpt>
      <trkpt lat="44.77634" lon="5.5914">
        <ele>1279</ele>
        <time>2018-04-23T12:25:19Z</time>
      </trkpt>
      <trkpt lat="44.77641" lon="5.59145">
        <ele>1277</ele>
        <time>2018-04-23T12:25:34Z</time>
      </trkpt>
      <trkpt lat="44.7765" lon="5.59147">
        <ele>1275</ele>
        <time>2018-04-23T12:25:50Z</time>
      </trkpt>
      <trkpt lat="44.77659" lon="5.59143">
        <ele>1274</ele>
        <time>2018-04-23T12:26:04Z</time>
      </trkpt>
      <trkpt lat="44.77663" lon="5.59134">
        <ele>1275</ele>
        <time>2018-04-23T12:26:23Z</time>
      </trkpt>
      <trkpt lat="44.77664" lon="5.59124">
        <ele>1276</ele>
        <time>2018-04-23T12:26:40Z</time>
      </trkpt>
      <trkpt lat="44.77661" lon="5.59106">
        <ele>1276</ele>
        <time>2018-04-23T12:26:57Z</time>
      </trkpt>
      <trkpt lat="44.7766" lon="5.5908">
        <ele>1278</ele>
        <time>2018-04-23T12:27:00Z</time>
      </trkpt>
      <trkpt lat="44.77665" lon="5.59068">
        <ele>1282</ele>
        <time>2018-04-23T12:27:06Z</time>
      </trkpt>
      <trkpt lat="44.7767" lon="5.59062">
        <ele>1281</ele>
        <time>2018-04-23T12:27:12Z</time>
      </trkpt>
      <trkpt lat="44.77677" lon="5.59061">
        <ele>1282</ele>
        <time>2018-04-23T12:27:28Z</time>
      </trkpt>
      <trkpt lat="44.77687" lon="5.59062">
        <ele>1283</ele>
        <time>2018-04-23T12:27:32Z</time>
      </trkpt>
      <trkpt lat="44.77704" lon="5.59074">
        <ele>1284</ele>
        <time>2018-04-23T12:27:37Z</time>
      </trkpt>
      <trkpt lat="44.77722" lon="5.59084">
        <ele>1272</ele>
        <time>2018-04-23T12:27:49Z</time>
      </trkpt>
      <trkpt lat="44.7774" lon="5.59099">
        <ele>1272</ele>
        <time>2018-04-23T12:28:03Z</time>
      </trkpt>
      <trkpt lat="44.77747" lon="5.59107">
        <ele>1271</ele>
        <time>2018-04-23T12:28:08Z</time>
      </trkpt>
      <trkpt lat="44.77759" lon="5.59127">
        <ele>1267</ele>
        <time>2018-04-23T12:28:21Z</time>
      </trkpt>
      <trkpt lat="44.77772" lon="5.59157">
        <ele>1262</ele>
        <time>2018-04-23T12:28:35Z</time>
      </trkpt>
      <trkpt lat="44.77782" lon="5.59178">
        <ele>1251</ele>
        <time>2018-04-23T12:28:50Z</time>
      </trkpt>
      <trkpt lat="44.77789" lon="5.59184">
        <ele>1250</ele>
        <time>2018-04-23T12:28:55Z</time>
      </trkpt>
      <trkpt lat="44.77793" lon="5.59185">
        <ele>1250</ele>
        <time>2018-04-23T12:29:05Z</time>
      </trkpt>
      <trkpt lat="44.77803" lon="5.59179">
        <ele>1251</ele>
        <time>2018-04-23T12:29:21Z</time>
      </trkpt>
      <trkpt lat="44.77821" lon="5.59163">
        <ele>1262</ele>
        <time>2018-04-23T12:29:40Z</time>
      </trkpt>
      <trkpt lat="44.7783" lon="5.5916">
        <ele>1261</ele>
        <time>2018-04-23T12:29:53Z</time>
      </trkpt>
      <trkpt lat="44.77842" lon="5.59158">
        <ele>1264</ele>
        <time>2018-04-23T12:30:05Z</time>
      </trkpt>
      <trkpt lat="44.77849" lon="5.59156">
        <ele>1266</ele>
        <time>2018-04-23T12:30:23Z</time>
      </trkpt>
      <trkpt lat="44.77854" lon="5.59151">
        <ele>1267</ele>
        <time>2018-04-23T12:30:36Z</time>
      </trkpt>
      <trkpt lat="44.7786" lon="5.59136">
        <ele>1270</ele>
        <time>2018-04-23T12:30:48Z</time>
      </trkpt>
      <trkpt lat="44.77864" lon="5.59128">
        <ele>1271</ele>
        <time>2018-04-23T12:31:06Z</time>
      </trkpt>
      <trkpt lat="44.77873" lon="5.59124">
        <ele>1272</ele>
        <time>2018-04-23T12:31:14Z</time>
      </trkpt>
      <trkpt lat="44.77879" lon="5.59124">
        <ele>1273</ele>
        <time>2018-04-23T12:31:34Z</time>
      </trkpt>
      <trkpt lat="44.77886" lon="5.59132">
        <ele>1272</ele>
        <time>2018-04-23T12:31:45Z</time>
      </trkpt>
      <trkpt lat="44.77898" lon="5.5915">
        <ele>1270</ele>
        <time>2018-04-23T12:31:58Z</time>
      </trkpt>
      <trkpt lat="44.77902" lon="5.59176">
        <ele>1262</ele>
        <time>2018-04-23T12:32:15Z</time>
      </trkpt>
      <trkpt lat="44.77905" lon="5.59215">
        <ele>1258</ele>
        <time>2018-04-23T12:32:26Z</time>
      </trkpt>
      <trkpt lat="44.779" lon="5.59248">
        <ele>1258</ele>
        <time>2018-04-23T12:32:38Z</time>
      </trkpt>
      <trkpt lat="44.77895" lon="5.59277">
        <ele>1248</ele>
        <time>2018-04-23T12:32:57Z</time>
      </trkpt>
      <trkpt lat="44.77894" lon="5.59302">
        <ele>1246</ele>
        <time>2018-04-23T12:33:10Z</time>
      </trkpt>
      <trkpt lat="44.77905" lon="5.59325">
        <ele>1249</ele>
        <time>2018-04-23T12:33:12Z</time>
      </trkpt>
      <trkpt lat="44.77914" lon="5.59348">
        <ele>1245</ele>
        <time>2018-04-23T12:33:14Z</time>
      </trkpt>
      <trkpt lat="44.77916" lon="5.59373">
        <ele>1241</ele>
        <time>2018-04-23T12:33:32Z</time>
      </trkpt>
      <trkpt lat="44.77913" lon="5.59402">
        <ele>1242</ele>
        <time>2018-04-23T12:33:48Z</time>
      </trkpt>
      <trkpt lat="44.77914" lon="5.59437">
        <ele>1237</ele>
        <time>2018-04-23T12:33:57Z</time>
      </trkpt>
      <trkpt lat="44.7793" lon="5.59514">
        <ele>1240</ele>
        <time>2018-04-23T12:34:12Z</time>
      </trkpt>
      <trkpt lat="44.77946" lon="5.59603">
        <ele>1229</ele>
        <time>2018-04-23T12:34:20Z</time>
      </trkpt>
      <trkpt lat="44.77953" lon="5.59634">
        <ele>1228</ele>
        <time>2018-04-23T12:34:36Z</time>
      </trkpt>
      <trkpt lat="44.77962" lon="5.59647">
        <ele>1227</ele>
        <time>2018-04-23T12:34:56Z</time>
      </trkpt>
      <trkpt lat="44.77968" lon="5.5965">
        <ele>1228</ele>
        <time>2018-04-23T12:35:14Z</time>
      </trkpt>
      <trkpt lat="44.77975" lon="5.59648">
        <ele>1228</ele>
        <time>2018-04-23T12:35:32Z</time>
      </trkpt>
      <trkpt lat="44.77983" lon="5.59635">
        <ele>1229</ele>
        <time>2018-04-23T12:35:47Z</time>
      </trkpt>
      <trkpt lat="44.78012" lon="5.59516">
        <ele>1243</ele>
        <time>2018-04-23T12:36:04Z</time>
      </trkpt>
      <trkpt lat="44.78027" lon="5.59474">
        <ele>1247</ele>
        <time>2018-04-23T12:36:15Z</time>
      </trkpt>
      <trkpt lat="44.78043" lon="5.59442">
        <ele>1245</ele>
        <time>2018-04-23T12:36:33Z</time>
      </trkpt>
      <trkpt lat="44.78062" lon="5.594">
        <ele>1249</ele>
        <time>2018-04-23T12:36:52Z</time>
      </trkpt>
      <trkpt lat="44.78066" lon="5.59372">
        <ele>1253</ele>
        <time>2018-04-23T12:37:11Z</time>
      </trkpt>
      <trkpt lat="44.78072" lon="5.59351">
        <ele>1254</ele>
        <time>2018-04-23T12:37:14Z</time>
      </trkpt>
      <trkpt lat="44.78079" lon="5.59344">
        <ele>1254</ele>
        <time>2018-04-23T12:37:16Z</time>
      </trkpt>
      <trkpt lat="44.78086" lon="5.59346">
        <ele>1253</ele>
        <time>2018-04-23T12:37:29Z</time>
      </trkpt>
      <trkpt lat="44.78093" lon="5.5936">
        <ele>1252</ele>
        <time>2018-04-23T12:37:31Z</time>
      </trkpt>
      <trkpt lat="44.78114" lon="5.59448">
        <ele>1240</ele>
        <time>2018-04-23T12:37:49Z</time>
      </trkpt>
      <trkpt lat="44.78121" lon="5.59476">
        <ele>1239</ele>
        <time>2018-04-23T12:38:05Z</time>
      </trkpt>
      <trkpt lat="44.78125" lon="5.59495">
        <ele>1239</ele>
        <time>2018-04-23T12:38:10Z</time>
      </trkpt>
      <trkpt lat="44.78125" lon="5.5954">
        <ele>1229</ele>
        <time>2018-04-23T12:38:24Z</time>
      </trkpt>
      <trkpt lat="44.78129" lon="5.5957">
        <ele>1228</ele>
        <time>2018-04-23T12:38:35Z</time>
      </trkpt>
      <trkpt lat="44.78135" lon="5.59585">
        <ele>1219</ele>
        <time>2018-04-23T12:38:53Z</time>
      </trkpt>
      <trkpt lat="44.78144" lon="5.59594">
        <ele>1220</ele>
        <time>2018-04-23T12:39:10Z</time>
      </trkpt>
      <trkpt lat="44.78157" lon="5.59598">
        <ele>1221</ele>
        <time>2018-04-23T12:39:21Z</time>
      </trkpt>
      <trkpt lat="44.78167" lon="5.59595">
        <ele>1221</ele>
        <time>2018-04-23T12:39:36Z</time>
      </trkpt>
      <trkpt lat="44.78176" lon="5.59589">
        <ele>1221</ele>
        <time>2018-04-23T12:39:46Z</time>
      </trkpt>
      <trkpt lat="44.78201" lon="5.59567">
        <ele>1228</ele>
        <time>2018-04-23T12:39:54Z</time>
      </trkpt>
      <trkpt lat="44.78222" lon="5.59549">
        <ele>1228</ele>
        <time>2018-04-23T12:40:09Z</time>
      </trkpt>
      <trkpt lat="44.78244" lon="5.59531">
        <ele>1230</ele>
        <time>2018-04-23T12:40:27Z</time>
      </trkpt>
      <trkpt lat="44.7826" lon="5.5951">
        <ele>1231</ele>
        <time>2018-04-23T12:40:37Z</time>
      </trkpt>
      <trkpt lat="44.78285" lon="5.59476">
        <ele>1240</ele>
        <time>2018-04-23T12:40:57Z</time>
      </trkpt>
      <trkpt lat="44.78297" lon="5.5946">
        <ele>1241</ele>
        <time>2018-04-23T12:41:13Z</time>
      </trkpt>
      <trkpt lat="44.78307" lon="5.59453">
        <ele>1242</ele>
        <time>2018-04-23T12:41:32Z</time>
      </trkpt>
      <trkpt lat="44.78318" lon="5.59453">
        <ele>1241</ele>
        <time>2018-04-23T12:41:39Z</time>
      </trkpt>
      <trkpt lat="44.78325" lon="5.5946">
        <ele>1240</ele>
        <time>2018-04-23T12:41:53Z</time>
      </trkpt>
      <trkpt lat="44.78328" lon="5.59495">
        <ele>1233</ele>
        <time>2018-04-23T12:42:01Z</time>
      </trkpt>
      <trkpt lat="44.78324" lon="5.59545">
        <ele>1225</ele>
        <time>2018-04-23T12:42:15Z</time>
      </trkpt>
      <trkpt lat="44.78325" lon="5.59598">
        <ele>1215</ele>
        <time>2018-04-23T12:42:17Z</time>
      </trkpt>
      <trkpt lat="44.78349" lon="5.5969">
        <ele>1208</ele>
        <time>2018-04-23T12:42:23Z</time>
      </trkpt>
      <trkpt lat="44.78359" lon="5.59711">
        <ele>1207</ele>
        <time>2018-04-23T12:42:27Z</time>
      </trkpt>
      <trkpt lat="44.78374" lon="5.59729">
        <ele>1207</ele>
        <time>2018-04-23T12:42:40Z</time>
      </trkpt>
      <trkpt lat="44.78405" lon="5.5975">
        <ele>1202</ele>
        <time>2018-04-23T12:42:50Z</time>
      </trkpt>
      <trkpt lat="44.7844" lon="5.59771">
        <ele>1204</ele>
        <time>2018-04-23T12:43:09Z</time>
      </trkpt>
      <trkpt lat="44.78459" lon="5.5979">
        <ele>1204</ele>
        <time>2018-04-23T12:43:20Z</time>
      </trkpt>
      <trkpt lat="44.78482" lon="5.59825">
        <ele>1203</ele>
        <time>2018-04-23T12:43:31Z</time>
      </trkpt>
      <trkpt lat="44.78502" lon="5.59861">
        <ele>1201</ele>
        <time>2018-04-23T12:43:33Z</time>
      </trkpt>
      <trkpt lat="44.78514" lon="5.59871">
        <ele>1201</ele>
        <time>2018-04-23T12:43:47Z</time>
      </trkpt>
      <trkpt lat="44.78522" lon="5.59874">
        <ele>1201</ele>
        <time>2018-04-23T12:44:05Z</time>
      </trkpt>
      <trkpt lat="44.78544" lon="5.59875">
        <ele>1200</ele>
        <time>2018-04-23T12:44:10Z</time>
      </trkpt>
      <trkpt lat="44.7858" lon="5.59874">
        <ele>1200</ele>
        <time>2018-04-23T12:44:28Z</time>
      </trkpt>
      <trkpt lat="44.78645" lon="5.59876">
        <ele>1194</ele>
        <time>2018-04-23T12:44:36Z</time>
      </trkpt>
      <trkpt lat="44.7868" lon="5.59871">
        <ele>1192</ele>
        <time>2018-04-23T12:44:38Z</time>
      </trkpt>
      <trkpt lat="44.78713" lon="5.5986">
        <ele>1192</ele>
        <time>2018-04-23T12:44:54Z</time>
      </trkpt>
      <trkpt lat="44.78727" lon="5.59851">
        <ele>1191</ele>
        <time>2018-04-23T12:45:04Z</time>
      </trkpt>
      <trkpt lat="44.7876" lon="5.59824">
        <ele>1188</ele>
        <time>2018-04-23T12:45:13Z</time>
      </trkpt>
      <trkpt lat="44.7877" lon="5.59811">
        <ele>1187</ele>
        <time>2018-04-23T12:45:29Z</time>
      </trkpt>
      <trkpt lat="44.78776" lon="5.59795">
        <ele>1186</ele>
        <time>2018-04-23T12:45:36Z</time>
      </trkpt>
      <trkpt lat="44.78783" lon="5.59779">
        <ele>1185</ele>
        <time>2018-04-23T12:45:39Z</time>
      </trkpt>
      <trkpt lat="44.78798" lon="5.5976">
        <ele>1186</ele>
        <time>2018-04-23T12:45:43Z</time>
      </trkpt>
      <trkpt lat="44.7883" lon="5.59722">
        <ele>1177</ele>
        <time>2018-04-23T12:45:54Z</time>
      </trkpt>
      <trkpt lat="44.78843" lon="5.59702">
        <ele>1182</ele>
        <time>2018-04-23T12:46:02Z</time>
      </trkpt>
      <trkpt lat="44.78904" lon="5.59598">
        <ele>1164</ele>
        <time>2018-04-23T12:46:09Z</time>
      </trkpt>
      <trkpt lat="44.78925" lon="5.59576">
        <ele>1160</ele>
        <time>2018-04-23T12:46:17Z</time>
      </trkpt>
      <trkpt lat="44.78965" lon="5.59548">
        <ele>1158</ele>
        <time>2018-04-23T12:46:26Z</time>
      </trkpt>
      <trkpt lat="44.78976" lon="5.59536">
        <ele>1157</ele>
        <time>2018-04-23T12:46:37Z</time>
      </trkpt>
      <trkpt lat="44.78995" lon="5.59511">
        <ele>1153</ele>
        <time>2018-04-23T12:46:50Z</time>
      </trkpt>
      <trkpt lat="44.79003" lon="5.59504">
        <ele>1153</ele>
        <time>2018-04-23T12:47:02Z</time>
      </trkpt>
      <trkpt lat="44.7901" lon="5.59504">
        <ele>1155</ele>
        <time>2018-04-23T12:47:21Z</time>
      </trkpt>
      <trkpt lat="44.79025" lon="5.59505">
        <ele>1158</ele>
        <time>2018-04-23T12:47:38Z</time>
      </trkpt>
      <trkpt lat="44.79048" lon="5.59511">
        <ele>1160</ele>
        <time>2018-04-23T12:47:53Z</time>
      </trkpt>
      <trkpt lat="44.79061" lon="5.5951">
        <ele>1160</ele>
        <time>2018-04-23T12:48:11Z</time>
      </trkpt>
      <trkpt lat="44.79076" lon="5.59506">
        <ele>1158</ele>
        <time>2018-04-23T12:48:31Z</time>
      </trkpt>
      <trkpt lat="44.791" lon="5.59491">
        <ele>1151</ele>
        <time>2018-04-23T12:48:39Z</time>
      </trkpt>
      <trkpt lat="44.79155" lon="5.59447">
        <ele>1145</ele>
        <time>2018-04-23T12:48:49Z</time>
      </trkpt>
      <trkpt lat="44.79262" lon="5.59371">
        <ele>1135</ele>
        <time>2018-04-23T12:48:57Z</time>
      </trkpt>
      <trkpt lat="44.79305" lon="5.59346">
        <ele>1133</ele>
        <time>2018-04-23T12:49:06Z</time>
      </trkpt>
      <trkpt lat="44.79348" lon="5.59327">
        <ele>1122</ele>
        <time>2018-04-23T12:49:15Z</time>
      </trkpt>
      <trkpt lat="44.79367" lon="5.59325">
        <ele>1118</ele>
        <time>2018-04-23T12:49:20Z</time>
      </trkpt>
      <trkpt lat="44.79379" lon="5.59331">
        <ele>1118</ele>
        <time>2018-04-23T12:49:39Z</time>
      </trkpt>
      <trkpt lat="44.79394" lon="5.5935">
        <ele>1131</ele>
        <time>2018-04-23T12:49:44Z</time>
      </trkpt>
      <trkpt lat="44.79405" lon="5.5936">
        <ele>1131</ele>
        <time>2018-04-23T12:49:47Z</time>
      </trkpt>
      <trkpt lat="44.79415" lon="5.59364">
        <ele>1132</ele>
        <time>2018-04-23T12:50:07Z</time>
      </trkpt>
      <trkpt lat="44.79428" lon="5.59366">
        <ele>1132</ele>
        <time>2018-04-23T12:50:27Z</time>
      </trkpt>
      <trkpt lat="44.79441" lon="5.59363">
        <ele>1132</ele>
        <time>2018-04-23T12:50:38Z</time>
      </trkpt>
      <trkpt lat="44.79454" lon="5.59356">
        <ele>1132</ele>
        <time>2018-04-23T12:50:57Z</time>
      </trkpt>
      <trkpt lat="44.79465" lon="5.59346">
        <ele>1131</ele>
        <time>2018-04-23T12:51:07Z</time>
      </trkpt>
      <trkpt lat="44.79485" lon="5.59325">
        <ele>1121</ele>
        <time>2018-04-23T12:51:22Z</time>
      </trkpt>
      <trkpt lat="44.79495" lon="5.59308">
        <ele>1119</ele>
        <time>2018-04-23T12:51:28Z</time>
      </trkpt>
      <trkpt lat="44.79502" lon="5.59292">
        <ele>1123</ele>
        <time>2018-04-23T12:51:32Z</time>
      </trkpt>
      <trkpt lat="44.79511" lon="5.59254">
        <ele>1116</ele>
        <time>2018-04-23T12:51:36Z</time>
      </trkpt>
      <trkpt lat="44.79519" lon="5.59238">
        <ele>1109</ele>
        <time>2018-04-23T12:51:42Z</time>
      </trkpt>
      <trkpt lat="44.79528" lon="5.59227">
        <ele>1108</ele>
        <time>2018-04-23T12:51:55Z</time>
      </trkpt>
      <trkpt lat="44.79563" lon="5.59189">
        <ele>1107</ele>
        <time>2018-04-23T12:52:08Z</time>
      </trkpt>
      <trkpt lat="44.79602" lon="5.59159">
        <ele>1102</ele>
        <time>2018-04-23T12:52:11Z</time>
      </trkpt>
      <trkpt lat="44.79657" lon="5.59119">
        <ele>1099</ele>
        <time>2018-04-23T12:52:17Z</time>
      </trkpt>
      <trkpt lat="44.79692" lon="5.59094">
        <ele>1104</ele>
        <time>2018-04-23T12:52:27Z</time>
      </trkpt>
      <trkpt lat="44.7971" lon="5.59073">
        <ele>1092</ele>
        <time>2018-04-23T12:52:33Z</time>
      </trkpt>
      <trkpt lat="44.79728" lon="5.59046">
        <ele>1090</ele>
        <time>2018-04-23T12:52:50Z</time>
      </trkpt>
      <trkpt lat="44.79743" lon="5.5903">
        <ele>1089</ele>
        <time>2018-04-23T12:53:03Z</time>
      </trkpt>
      <trkpt lat="44.79801" lon="5.58992">
        <ele>1084</ele>
        <time>2018-04-23T12:53:14Z</time>
      </trkpt>
      <trkpt lat="44.79831" lon="5.5896">
        <ele>1082</ele>
        <time>2018-04-23T12:53:17Z</time>
      </trkpt>
      <trkpt lat="44.79849" lon="5.58939">
        <ele>1082</ele>
        <time>2018-04-23T12:53:19Z</time>
      </trkpt>
      <trkpt lat="44.79861" lon="5.58929">
        <ele>1082</ele>
        <time>2018-04-23T12:53:38Z</time>
      </trkpt>
      <trkpt lat="44.79901" lon="5.5891">
        <ele>1073</ele>
        <time>2018-04-23T12:53:54Z</time>
      </trkpt>
      <trkpt lat="44.79914" lon="5.58909">
        <ele>1075</ele>
        <time>2018-04-23T12:54:04Z</time>
      </trkpt>
      <trkpt lat="44.7993" lon="5.58916">
        <ele>1072</ele>
        <time>2018-04-23T12:54:14Z</time>
      </trkpt>
      <trkpt lat="44.7994" lon="5.58927">
        <ele>1075</ele>
        <time>2018-04-23T12:54:19Z</time>
      </trkpt>
      <trkpt lat="44.79947" lon="5.5894">
        <ele>1074</ele>
        <time>2018-04-23T12:54:33Z</time>
      </trkpt>
      <trkpt lat="44.79965" lon="5.5898">
        <ele>1074</ele>
        <time>2018-04-23T12:54:53Z</time>
      </trkpt>
      <trkpt lat="44.7998" lon="5.59008">
        <ele>1079</ele>
        <time>2018-04-23T12:55:05Z</time>
      </trkpt>
      <trkpt lat="44.79994" lon="5.59029">
        <ele>1080</ele>
        <time>2018-04-23T12:55:20Z</time>
      </trkpt>
      <trkpt lat="44.80008" lon="5.59054">
        <ele>1067</ele>
        <time>2018-04-23T12:55:30Z</time>
      </trkpt>
      <trkpt lat="44.80012" lon="5.59077">
        <ele>1072</ele>
        <time>2018-04-23T12:55:49Z</time>
      </trkpt>
      <trkpt lat="44.80017" lon="5.59092">
        <ele>1076</ele>
        <time>2018-04-23T12:55:59Z</time>
      </trkpt>
      <trkpt lat="44.80025" lon="5.59102">
        <ele>1074</ele>
        <time>2018-04-23T12:56:08Z</time>
      </trkpt>
      <trkpt lat="44.80035" lon="5.59107">
        <ele>1073</ele>
        <time>2018-04-23T12:56:28Z</time>
      </trkpt>
      <trkpt lat="44.80051" lon="5.59109">
        <ele>1070</ele>
        <time>2018-04-23T12:56:46Z</time>
      </trkpt>
      <trkpt lat="44.80084" lon="5.59107">
        <ele>1062</ele>
        <time>2018-04-23T12:56:57Z</time>
      </trkpt>
      <trkpt lat="44.80104" lon="5.59094">
        <ele>1062</ele>
        <time>2018-04-23T12:57:11Z</time>
      </trkpt>
      <trkpt lat="44.80113" lon="5.59083">
        <ele>1054</ele>
        <time>2018-04-23T12:57:28Z</time>
      </trkpt>
      <trkpt lat="44.80132" lon="5.59062">
        <ele>1053</ele>
        <time>2018-04-23T12:57:42Z</time>
      </trkpt>
      <trkpt lat="44.80145" lon="5.59053">
        <ele>1053</ele>
        <time>2018-04-23T12:57:53Z</time>
      </trkpt>
      <trkpt lat="44.80189" lon="5.59027">
        <ele>1052</ele>
        <time>2018-04-23T12:58:10Z</time>
      </trkpt>
      <trkpt lat="44.80217" lon="5.59003">
        <ele>1052</ele>
        <time>2018-04-23T12:58:15Z</time>
      </trkpt>
      <trkpt lat="44.80243" lon="5.58972">
        <ele>1039</ele>
        <time>2018-04-23T12:58:22Z</time>
      </trkpt>
      <trkpt lat="44.80257" lon="5.58956">
        <ele>1041</ele>
        <time>2018-04-23T12:58:27Z</time>
      </trkpt>
      <trkpt lat="44.80271" lon="5.58947">
        <ele>1041</ele>
        <time>2018-04-23T12:58:35Z</time>
      </trkpt>
      <trkpt lat="44.80306" lon="5.58926">
        <ele>1040</ele>
        <time>2018-04-23T12:58:42Z</time>
      </trkpt>
      <trkpt lat="44.80332" lon="5.5891">
        <ele>1034</ele>
        <time>2018-04-23T12:58:45Z</time>
      </trkpt>
      <trkpt lat="44.80377" lon="5.58881">
        <ele>1032</ele>
        <time>2018-04-23T12:58:53Z</time>
      </trkpt>
      <trkpt lat="44.80404" lon="5.5886">
        <ele>1031</ele>
        <time>2018-04-23T12:59:02Z</time>
      </trkpt>
      <trkpt lat="44.80413" lon="5.5885">
        <ele>1030</ele>
        <time>2018-04-23T12:59:05Z</time>
      </trkpt>
      <trkpt lat="44.80422" lon="5.58831">
        <ele>1026</ele>
        <time>2018-04-23T12:59:19Z</time>
      </trkpt>
      <trkpt lat="44.80437" lon="5.58796">
        <ele>1023</ele>
        <time>2018-04-23T12:59:36Z</time>
      </trkpt>
      <trkpt lat="44.80445" lon="5.58783">
        <ele>1021</ele>
        <time>2018-04-23T12:59:45Z</time>
      </trkpt>
      <trkpt lat="44.80457" lon="5.5877">
        <ele>1021</ele>
        <time>2018-04-23T13:00:02Z</time>
      </trkpt>
      <trkpt lat="44.80481" lon="5.58754">
        <ele>1020</ele>
        <time>2018-04-23T13:00:13Z</time>
      </trkpt>
      <trkpt lat="44.80511" lon="5.5874">
        <ele>1013</ele>
        <time>2018-04-23T13:00:31Z</time>
      </trkpt>
      <trkpt lat="44.80532" lon="5.58734">
        <ele>1010</ele>
        <time>2018-04-23T13:00:40Z</time>
      </trkpt>
      <trkpt lat="44.80555" lon="5.58732">
        <ele>1011</ele>
        <time>2018-04-23T13:00:55Z</time>
      </trkpt>
      <trkpt lat="44.80581" lon="5.58728">
        <ele>1012</ele>
        <time>2018-04-23T13:01:15Z</time>
      </trkpt>
      <trkpt lat="44.80629" lon="5.58719">
        <ele>1010</ele>
        <time>2018-04-23T13:01:28Z</time>
      </trkpt>
      <trkpt lat="44.80682" lon="5.58701">
        <ele>1010</ele>
        <time>2018-04-23T13:01:44Z</time>
      </trkpt>
      <trkpt lat="44.80726" lon="5.58682">
        <ele>1008</ele>
        <time>2018-04-23T13:02:03Z</time>
      </trkpt>
      <trkpt lat="44.80756" lon="5.58659">
        <ele>999</ele>
        <time>2018-04-23T13:02:11Z</time>
      </trkpt>
      <trkpt lat="44.80797" lon="5.58622">
        <ele>995</ele>
        <time>2018-04-23T13:02:29Z</time>
      </trkpt>
      <trkpt lat="44.80857" lon="5.58569">
        <ele>987</ele>
        <time>2018-04-23T13:02:36Z</time>
      </trkpt>
      <trkpt lat="44.80904" lon="5.58532">
        <ele>986</ele>
        <time>2018-04-23T13:02:45Z</time>
      </trkpt>
      <trkpt lat="44.8094" lon="5.5851">
        <ele>990</ele>
        <time>2018-04-23T13:03:00Z</time>
      </trkpt>
      <trkpt lat="44.80957" lon="5.58495">
        <ele>981</ele>
        <time>2018-04-23T13:03:17Z</time>
      </trkpt>
      <trkpt lat="44.80967" lon="5.5848">
        <ele>980</ele>
        <time>2018-04-23T13:03:21Z</time>
      </trkpt>
      <trkpt lat="44.81002" lon="5.58426">
        <ele>975</ele>
        <time>2018-04-23T13:03:40Z</time>
      </trkpt>
      <trkpt lat="44.81046" lon="5.58357">
        <ele>971</ele>
        <time>2018-04-23T13:03:50Z</time>
      </trkpt>
      <trkpt lat="44.81078" lon="5.58306">
        <ele>969</ele>
        <time>2018-04-23T13:04:00Z</time>
      </trkpt>
      <trkpt lat="44.81092" lon="5.5829">
        <ele>967</ele>
        <time>2018-04-23T13:04:16Z</time>
      </trkpt>
      <trkpt lat="44.81116" lon="5.5827">
        <ele>967</ele>
        <time>2018-04-23T13:04:23Z</time>
      </trkpt>
      <trkpt lat="44.8114" lon="5.5826">
        <ele>966</ele>
        <time>2018-04-23T13:04:33Z</time>
      </trkpt>
      <trkpt lat="44.81157" lon="5.58259">
        <ele>965</ele>
        <time>2018-04-23T13:04:48Z</time>
      </trkpt>
      <trkpt lat="44.81208" lon="5.5825">
        <ele>964</ele>
        <time>2018-04-23T13:04:55Z</time>
      </trkpt>
      <trkpt lat="44.81301" lon="5.5823">
        <ele>960</ele>
        <time>2018-04-23T13:05:02Z</time>
      </trkpt>
      <trkpt lat="44.81347" lon="5.58214">
        <ele>957</ele>
        <time>2018-04-23T13:05:16Z</time>
      </trkpt>
      <trkpt lat="44.8138" lon="5.582">
        <ele>956</ele>
        <time>2018-04-23T13:05:25Z</time>
      </trkpt>
      <trkpt lat="44.81407" lon="5.58188">
        <ele>956</ele>
        <time>2018-04-23T13:05:39Z</time>
      </trkpt>
      <trkpt lat="44.81436" lon="5.5817">
        <ele>954</ele>
        <time>2018-04-23T13:05:51Z</time>
      </trkpt>
      <trkpt lat="44.81456" lon="5.58148">
        <ele>957</ele>
        <time>2018-04-23T13:06:09Z</time>
      </trkpt>
      <trkpt lat="44.81465" lon="5.5814">
        <ele>957</ele>
        <time>2018-04-23T13:06:18Z</time>
      </trkpt>
      <trkpt lat="44.81474" lon="5.58136">
        <ele>957</ele>
        <time>2018-04-23T13:06:33Z</time>
      </trkpt>
      <trkpt lat="44.81489" lon="5.5814">
        <ele>956</ele>
        <time>2018-04-23T13:06:49Z</time>
      </trkpt>
      <trkpt lat="44.81512" lon="5.5815">
        <ele>955</ele>
        <time>2018-04-23T13:07:06Z</time>
      </trkpt>
      <trkpt lat="44.81536" lon="5.58154">
        <ele>956</ele>
        <time>2018-04-23T13:07:20Z</time>
      </trkpt>
      <trkpt lat="44.81582" lon="5.58156">
        <ele>952</ele>
        <time>2018-04-23T13:07:38Z</time>
      </trkpt>
      <trkpt lat="44.81602" lon="5.5816">
        <ele>952</ele>
        <time>2018-04-23T13:07:54Z</time>
      </trkpt>
      <trkpt lat="44.81632" lon="5.58173">
        <ele>947</ele>
        <time>2018-04-23T13:08:12Z</time>
      </trkpt>
      <trkpt lat="44.81716" lon="5.58233">
        <ele>948</ele>
        <time>2018-04-23T13:08:16Z</time>
      </trkpt>
      <trkpt lat="44.81757" lon="5.58261">
        <ele>947</ele>
        <time>2018-04-23T13:08:18Z</time>
      </trkpt>
      <trkpt lat="44.81772" lon="5.58267">
        <ele>946</ele>
        <time>2018-04-23T13:08:22Z</time>
      </trkpt>
      <trkpt lat="44.81803" lon="5.58271">
        <ele>946</ele>
        <time>2018-04-23T13:08:39Z</time>
      </trkpt>
      <trkpt lat="44.81846" lon="5.58276">
        <ele>947</ele>
        <time>2018-04-23T13:08:59Z</time>
      </trkpt>
      <trkpt lat="44.8191" lon="5.58291">
        <ele>947</ele>
        <time>2018-04-23T13:09:19Z</time>
      </trkpt>
      <trkpt lat="44.81952" lon="5.58301">
        <ele>943</ele>
        <time>2018-04-23T13:09:32Z</time>
      </trkpt>
      <trkpt lat="44.81976" lon="5.58303">
        <ele>941</ele>
        <time>2018-04-23T13:09:50Z</time>
      </trkpt>
      <trkpt lat="44.81986" lon="5.58301">
        <ele>941</ele>
        <time>2018-04-23T13:09:59Z</time>
      </trkpt>
      <trkpt lat="44.81996" lon="5.58295">
        <ele>941</ele>
        <time>2018-04-23T13:10:16Z</time>
      </trkpt>
      <trkpt lat="44.82" lon="5.58288">
        <ele>939</ele>
        <time>2018-04-23T13:10:33Z</time>
      </trkpt>
      <trkpt lat="44.82012" lon="5.58263">
        <ele>938</ele>
        <time>2018-04-23T13:10:42Z</time>
      </trkpt>
      <trkpt lat="44.82024" lon="5.5822">
        <ele>938</ele>
        <time>2018-04-23T13:10:47Z</time>
      </trkpt>
      <trkpt lat="44.82036" lon="5.5819">
        <ele>938</ele>
        <time>2018-04-23T13:11:04Z</time>
      </trkpt>
      <trkpt lat="44.82042" lon="5.58183">
        <ele>938</ele>
        <time>2018-04-23T13:11:12Z</time>
      </trkpt>
      <trkpt lat="44.82052" lon="5.58176">
        <ele>936</ele>
        <time>2018-04-23T13:11:29Z</time>
      </trkpt>
      <trkpt lat="44.82061" lon="5.58175">
        <ele>934</ele>
        <time>2018-04-23T13:11:31Z</time>
      </trkpt>
      <trkpt lat="44.82062" lon="5.58175">
        <ele>934</ele>
        <time>2018-04-23T13:11:48Z</time>
      </trkpt>
      <trkpt lat="44.82077" lon="5.58178">
        <ele>932</ele>
        <time>2018-04-23T13:12:04Z</time>
      </trkpt>
      <trkpt lat="44.82135" lon="5.58207">
        <ele>928</ele>
        <time>2018-04-23T13:12:07Z</time>
      </trkpt>
      <trkpt lat="44.82181" lon="5.58229">
        <ele>926</ele>
        <time>2018-04-23T13:12:23Z</time>
      </trkpt>
      <trkpt lat="44.82196" lon="5.58238">
        <ele>925</ele>
        <time>2018-04-23T13:12:28Z</time>
      </trkpt>
      <trkpt lat="44.82206" lon="5.5825">
        <ele>925</ele>
        <time>2018-04-23T13:12:41Z</time>
      </trkpt>
      <trkpt lat="44.82229" lon="5.5829">
        <ele>934</ele>
        <time>2018-04-23T13:12:57Z</time>
      </trkpt>
      <trkpt lat="44.82242" lon="5.58305">
        <ele>935</ele>
        <time>2018-04-23T13:13:09Z</time>
      </trkpt>
      <trkpt lat="44.82256" lon="5.58315">
        <ele>928</ele>
        <time>2018-04-23T13:13:23Z</time>
      </trkpt>
      <trkpt lat="44.82278" lon="5.58329">
        <ele>926</ele>
        <time>2018-04-23T13:13:33Z</time>
      </trkpt>
      <trkpt lat="44.82293" lon="5.58338">
        <ele>933</ele>
        <time>2018-04-23T13:13:51Z</time>
      </trkpt>
      <trkpt lat="44.82308" lon="5.58354">
        <ele>932</ele>
        <time>2018-04-23T13:13:58Z</time>
      </trkpt>
      <trkpt lat="44.82323" lon="5.58379">
        <ele>933</ele>
        <time>2018-04-23T13:14:09Z</time>
      </trkpt>
      <trkpt lat="44.82347" lon="5.58432">
        <ele>923</ele>
        <time>2018-04-23T13:14:11Z</time>
      </trkpt>
      <trkpt lat="44.82358" lon="5.58459">
        <ele>923</ele>
        <time>2018-04-23T13:14:23Z</time>
      </trkpt>
      <trkpt lat="44.82383" lon="5.58539">
        <ele>926</ele>
        <time>2018-04-23T13:14:43Z</time>
      </trkpt>
      <trkpt lat="44.82412" lon="5.58628">
        <ele>932</ele>
        <time>2018-04-23T13:14:45Z</time>
      </trkpt>
      <trkpt lat="44.82434" lon="5.58723">
        <ele>912</ele>
        <time>2018-04-23T13:14:51Z</time>
      </trkpt>
      <trkpt lat="44.82442" lon="5.58763">
        <ele>924</ele>
        <time>2018-04-23T13:14:59Z</time>
      </trkpt>
      <trkpt lat="44.82448" lon="5.58775">
        <ele>922</ele>
        <time>2018-04-23T13:15:07Z</time>
      </trkpt>
      <trkpt lat="44.82457" lon="5.58786">
        <ele>920</ele>
        <time>2018-04-23T13:15:18Z</time>
      </trkpt>
      <trkpt lat="44.8247" lon="5.58798">
        <ele>918</ele>
        <time>2018-04-23T13:15:31Z</time>
      </trkpt>
      <trkpt lat="44.82487" lon="5.58816">
        <ele>915</ele>
        <time>2018-04-23T13:15:38Z</time>
      </trkpt>
      <trkpt lat="44.82523" lon="5.58864">
        <ele>905</ele>
        <time>2018-04-23T13:15:52Z</time>
      </trkpt>
      <trkpt lat="44.82584" lon="5.58976">
        <ele>899</ele>
        <time>2018-04-23T13:15:56Z</time>
      </trkpt>
      <trkpt lat="44.82625" lon="5.5905">
        <ele>906</ele>
        <time>2018-04-23T13:16:01Z</time>
      </trkpt>
      <trkpt lat="44.82637" lon="5.59085">
        <ele>914</ele>
        <time>2018-04-23T13:16:09Z</time>
      </trkpt>
      <trkpt lat="44.82652" lon="5.59143">
        <ele>915</ele>
        <time>2018-04-23T13:16:27Z</time>
      </trkpt>
      <trkpt lat="44.82666" lon="5.59206">
        <ele>924</ele>
        <time>2018-04-23T13:16:46Z</time>
      </trkpt>
      <trkpt lat="44.82674" lon="5.59272">
        <ele>903</ele>
        <time>2018-04-23T13:16:59Z</time>
      </trkpt>
      <trkpt lat="44.82689" lon="5.5941">
        <ele>903</ele>
        <time>2018-04-23T13:17:17Z</time>
      </trkpt>
      <trkpt lat="44.82694" lon="5.5946">
        <ele>899</ele>
        <time>2018-04-23T13:17:30Z</time>
      </trkpt>
      <trkpt lat="44.82706" lon="5.59556">
        <ele>892</ele>
        <time>2018-04-23T13:17:35Z</time>
      </trkpt>
      <trkpt lat="44.82718" lon="5.59591">
        <ele>888</ele>
        <time>2018-04-23T13:17:37Z</time>
      </trkpt>
      <trkpt lat="44.82729" lon="5.59614">
        <ele>887</ele>
        <time>2018-04-23T13:17:53Z</time>
      </trkpt>
      <trkpt lat="44.82786" lon="5.59731">
        <ele>876</ele>
        <time>2018-04-23T13:18:02Z</time>
      </trkpt>
      <trkpt lat="44.82855" lon="5.59878">
        <ele>866</ele>
        <time>2018-04-23T13:18:04Z</time>
      </trkpt>
      <trkpt lat="44.82865" lon="5.5991">
        <ele>866</ele>
        <time>2018-04-23T13:18:07Z</time>
      </trkpt>
      <trkpt lat="44.82873" lon="5.59944">
        <ele>863</ele>
        <time>2018-04-23T13:18:13Z</time>
      </trkpt>
      <trkpt lat="44.82877" lon="5.59989">
        <ele>862</ele>
        <time>2018-04-23T13:18:16Z</time>
      </trkpt>
      <trkpt lat="44.82875" lon="5.60054">
        <ele>858</ele>
        <time>2018-04-23T13:18:31Z</time>
      </trkpt>
      <trkpt lat="44.82855" lon="5.60149">
        <ele>854</ele>
        <time>2018-04-23T13:18:40Z</time>
      </trkpt>
      <trkpt lat="44.82852" lon="5.60184">
        <ele>852</ele>
        <time>2018-04-23T13:18:42Z</time>
      </trkpt>
      <trkpt lat="44.82854" lon="5.60214">
        <ele>851</ele>
        <time>2018-04-23T13:18:55Z</time>
      </trkpt>
      <trkpt lat="44.8287" lon="5.6027">
        <ele>847</ele>
        <time>2018-04-23T13:19:10Z</time>
      </trkpt>
      <trkpt lat="44.82917" lon="5.6042">
        <ele>840</ele>
        <time>2018-04-23T13:19:14Z</time>
      </trkpt>
      <trkpt lat="44.82946" lon="5.60513">
        <ele>836</ele>
        <time>2018-04-23T13:19:32Z</time>
      </trkpt>
      <trkpt lat="44.82989" lon="5.6065">
        <ele>832</ele>
        <time>2018-04-23T13:19:35Z</time>
      </trkpt>
      <trkpt lat="44.83002" lon="5.60691">
        <ele>831</ele>
        <time>2018-04-23T13:19:37Z</time>
      </trkpt>
      <trkpt lat="44.83009" lon="5.60722">
        <ele>830</ele>
        <time>2018-04-23T13:19:57Z</time>
      </trkpt>
      <trkpt lat="44.82983" lon="5.60728">
        <ele>829</ele>
        <time>2018-04-23T13:20:08Z</time>
      </trkpt>
      <trkpt lat="44.82944" lon="5.60741">
        <ele>829</ele>
        <time>2018-04-23T13:20:26Z</time>
      </trkpt>
      <trkpt lat="44.82923" lon="5.60752">
        <ele>827</ele>
        <time>2018-04-23T13:20:40Z</time>
      </trkpt>
      <trkpt lat="44.82887" lon="5.60775">
        <ele>825</ele>
        <time>2018-04-23T13:20:59Z</time>
      </trkpt>
      <trkpt lat="44.82866" lon="5.60792">
        <ele>824</ele>
        <time>2018-04-23T13:21:15Z</time>
      </trkpt>
      <trkpt lat="44.82845" lon="5.60812">
        <ele>823</ele>
        <time>2018-04-23T13:21:24Z</time>
      </trkpt>
      <trkpt lat="44.82812" lon="5.60847">
        <ele>820</ele>
        <time>2018-04-23T13:21:30Z</time>
      </trkpt>
      <trkpt lat="44.82792" lon="5.60877">
        <ele>820</ele>
        <time>2018-04-23T13:21:34Z</time>
      </trkpt>
      <trkpt lat="44.82764" lon="5.60926">
        <ele>819</ele>
        <time>2018-04-23T13:21:53Z</time>
      </trkpt>
      <trkpt lat="44.82741" lon="5.60976">
        <ele>823</ele>
        <time>2018-04-23T13:22:03Z</time>
      </trkpt>
      <trkpt lat="44.82732" lon="5.60997">
        <ele>822</ele>
        <time>2018-04-23T13:22:14Z</time>
      </trkpt>
      <trkpt lat="44.8272" lon="5.61036">
        <ele>825</ele>
        <time>2018-04-23T13:22:26Z</time>
      </trkpt>
      <trkpt lat="44.82742" lon="5.61053">
        <ele>825</ele>
        <time>2018-04-23T13:22:36Z</time>
      </trkpt>
      <trkpt lat="44.82753" lon="5.61052">
        <ele>821</ele>
        <time>2018-04-23T13:22:48Z</time>
      </trkpt>
      <trkpt lat="44.82774" lon="5.61057">
        <ele>821</ele>
        <time>2018-04-23T13:22:57Z</time>
      </trkpt>
      <trkpt lat="44.82786" lon="5.61065">
        <ele>820</ele>
        <time>2018-04-23T13:23:05Z</time>
      </trkpt>
      <trkpt lat="44.82795" lon="5.61077">
        <ele>820</ele>
        <time>2018-04-23T13:23:21Z</time>
      </trkpt>
      <trkpt lat="44.82808" lon="5.61101">
        <ele>822</ele>
        <time>2018-04-23T13:23:26Z</time>
      </trkpt>
      <trkpt lat="44.82828" lon="5.61168">
        <ele>822</ele>
        <time>2018-04-23T13:23:43Z</time>
      </trkpt>
      <trkpt lat="44.8285" lon="5.61251">
        <ele>816</ele>
        <time>2018-04-23T13:23:55Z</time>
      </trkpt>
      <trkpt lat="44.82875" lon="5.61344">
        <ele>811</ele>
        <time>2018-04-23T13:23:58Z</time>
      </trkpt>
      <trkpt lat="44.82881" lon="5.61374">
        <ele>810</ele>
        <time>2018-04-23T13:24:13Z</time>
      </trkpt>
      <trkpt lat="44.82881" lon="5.61401">
        <ele>810</ele>
        <time>2018-04-23T13:24:25Z</time>
      </trkpt>
      <trkpt lat="44.82879" lon="5.61429">
        <ele>806</ele>
        <time>2018-04-23T13:24:42Z</time>
      </trkpt>
      <trkpt lat="44.82876" lon="5.61449">
        <ele>806</ele>
        <time>2018-04-23T13:24:47Z</time>
      </trkpt>
      <trkpt lat="44.82869" lon="5.61468">
        <ele>805</ele>
        <time>2018-04-23T13:24:58Z</time>
      </trkpt>
      <trkpt lat="44.8285" lon="5.61505">
        <ele>800</ele>
        <time>2018-04-23T13:25:11Z</time>
      </trkpt>
      <trkpt lat="44.82815" lon="5.61551">
        <ele>799</ele>
        <time>2018-04-23T13:25:31Z</time>
      </trkpt>
      <trkpt lat="44.82752" lon="5.61632">
        <ele>793</ele>
        <time>2018-04-23T13:25:36Z</time>
      </trkpt>
      <trkpt lat="44.82735" lon="5.61673">
        <ele>791</ele>
        <time>2018-04-23T13:25:39Z</time>
      </trkpt>
      <trkpt lat="44.82724" lon="5.61711">
        <ele>791</ele>
        <time>2018-04-23T13:25:55Z</time>
      </trkpt>
      <trkpt lat="44.82718" lon="5.61734">
        <ele>790</ele>
        <time>2018-04-23T13:26:08Z</time>
      </trkpt>
      <trkpt lat="44.82717" lon="5.61748">
        <ele>789</ele>
        <time>2018-04-23T13:26:22Z</time>
      </trkpt>
      <trkpt lat="44.82716" lon="5.6177">
        <ele>786</ele>
        <time>2018-04-23T13:26:31Z</time>
      </trkpt>
      <trkpt lat="44.82718" lon="5.618">
        <ele>785</ele>
        <time>2018-04-23T13:26:42Z</time>
      </trkpt>
      <trkpt lat="44.8273" lon="5.61859">
        <ele>782</ele>
        <time>2018-04-23T13:27:00Z</time>
      </trkpt>
      <trkpt lat="44.82765" lon="5.62018">
        <ele>773</ele>
        <time>2018-04-23T13:27:11Z</time>
      </trkpt>
      <trkpt lat="44.82772" lon="5.62067">
        <ele>772</ele>
        <time>2018-04-23T13:27:15Z</time>
      </trkpt>
      <trkpt lat="44.82776" lon="5.62102">
        <ele>770</ele>
        <time>2018-04-23T13:27:35Z</time>
      </trkpt>
      <trkpt lat="44.82774" lon="5.62122">
        <ele>769</ele>
        <time>2018-04-23T13:27:43Z</time>
      </trkpt>
      <trkpt lat="44.82757" lon="5.62194">
        <ele>767</ele>
        <time>2018-04-23T13:27:50Z</time>
      </trkpt>
      <trkpt lat="44.82745" lon="5.62239">
        <ele>769</ele>
        <time>2018-04-23T13:28:03Z</time>
      </trkpt>
      <trkpt lat="44.82745" lon="5.62254">
        <ele>768</ele>
        <time>2018-04-23T13:28:07Z</time>
      </trkpt>
      <trkpt lat="44.82754" lon="5.6231">
        <ele>763</ele>
        <time>2018-04-23T13:28:14Z</time>
      </trkpt>
      <trkpt lat="44.82754" lon="5.62352">
        <ele>761</ele>
        <time>2018-04-23T13:28:18Z</time>
      </trkpt>
      <trkpt lat="44.82757" lon="5.62416">
        <ele>760</ele>
        <time>2018-04-23T13:28:24Z</time>
      </trkpt>
      <trkpt lat="44.82759" lon="5.6245">
        <ele>758</ele>
        <time>2018-04-23T13:28:31Z</time>
      </trkpt>
      <trkpt lat="44.82758" lon="5.6248">
        <ele>758</ele>
        <time>2018-04-23T13:28:38Z</time>
      </trkpt>
      <trkpt lat="44.82755" lon="5.62487">
        <ele>758</ele>
        <time>2018-04-23T13:28:54Z</time>
      </trkpt>
      <trkpt lat="44.82743" lon="5.62502">
        <ele>758</ele>
        <time>2018-04-23T13:29:04Z</time>
      </trkpt>
      <trkpt lat="44.82727" lon="5.6252">
        <ele>757</ele>
        <time>2018-04-23T13:29:08Z</time>
      </trkpt>
      <trkpt lat="44.82709" lon="5.62563">
        <ele>756</ele>
        <time>2018-04-23T13:29:11Z</time>
      </trkpt>
      <trkpt lat="44.82703" lon="5.62596">
        <ele>754</ele>
        <time>2018-04-23T13:29:18Z</time>
      </trkpt>
      <trkpt lat="44.82702" lon="5.62623">
        <ele>754</ele>
        <time>2018-04-23T13:29:31Z</time>
      </trkpt>
      <trkpt lat="44.82712" lon="5.62762">
        <ele>746</ele>
        <time>2018-04-23T13:29:47Z</time>
      </trkpt>
      <trkpt lat="44.82713" lon="5.62781">
        <ele>745</ele>
        <time>2018-04-23T13:29:54Z</time>
      </trkpt>
      <trkpt lat="44.82712" lon="5.62799">
        <ele>745</ele>
        <time>2018-04-23T13:29:59Z</time>
      </trkpt>
      <trkpt lat="44.82705" lon="5.62828">
        <ele>744</ele>
        <time>2018-04-23T13:30:01Z</time>
      </trkpt>
      <trkpt lat="44.82697" lon="5.62852">
        <ele>743</ele>
        <time>2018-04-23T13:30:18Z</time>
      </trkpt>
      <trkpt lat="44.82685" lon="5.62893">
        <ele>744</ele>
        <time>2018-04-23T13:30:31Z</time>
      </trkpt>
      <trkpt lat="44.82661" lon="5.62994">
        <ele>750</ele>
        <time>2018-04-23T13:30:33Z</time>
      </trkpt>
      <trkpt lat="44.8266" lon="5.63012">
        <ele>753</ele>
        <time>2018-04-23T13:30:43Z</time>
      </trkpt>
      <trkpt lat="44.82662" lon="5.63039">
        <ele>756</ele>
        <time>2018-04-23T13:30:54Z</time>
      </trkpt>
      <trkpt lat="44.82664" lon="5.631">
        <ele>750</ele>
        <time>2018-04-23T13:31:08Z</time>
      </trkpt>
      <trkpt lat="44.82662" lon="5.63123">
        <ele>750</ele>
        <time>2018-04-23T13:31:25Z</time>
      </trkpt>
      <trkpt lat="44.82656" lon="5.63149">
        <ele>747</ele>
        <time>2018-04-23T13:31:34Z</time>
      </trkpt>
      <trkpt lat="44.82636" lon="5.63208">
        <ele>742</ele>
        <time>2018-04-23T13:31:41Z</time>
      </trkpt>
      <trkpt lat="44.82618" lon="5.6326">
        <ele>736</ele>
        <time>2018-04-23T13:31:56Z</time>
      </trkpt>
      <trkpt lat="44.82609" lon="5.63305">
        <ele>734</ele>
        <time>2018-04-23T13:31:59Z</time>
      </trkpt>
      <trkpt lat="44.82583" lon="5.63429">
        <ele>733</ele>
        <time>2018-04-23T13:32:06Z</time>
      </trkpt>
      <trkpt lat="44.82571" lon="5.63481">
        <ele>731</ele>
        <time>2018-04-23T13:32:18Z</time>
      </trkpt>
      <trkpt lat="44.82567" lon="5.63509">
        <ele>728</ele>
        <time>2018-04-23T13:32:30Z</time>
      </trkpt>
      <trkpt lat="44.82565" lon="5.63538">
        <ele>727</ele>
        <time>2018-04-23T13:32:39Z</time>
      </trkpt>
      <trkpt lat="44.82568" lon="5.63578">
        <ele>725</ele>
        <time>2018-04-23T13:32:51Z</time>
      </trkpt>
      <trkpt lat="44.82573" lon="5.63629">
        <ele>724</ele>
        <time>2018-04-23T13:32:58Z</time>
      </trkpt>
      <trkpt lat="44.82582" lon="5.63745">
        <ele>726</ele>
        <time>2018-04-23T13:33:02Z</time>
      </trkpt>
      <trkpt lat="44.82586" lon="5.63784">
        <ele>729</ele>
        <time>2018-04-23T13:33:20Z</time>
      </trkpt>
      <trkpt lat="44.82594" lon="5.63803">
        <ele>731</ele>
        <time>2018-04-23T13:33:37Z</time>
      </trkpt>
      <trkpt lat="44.8261" lon="5.63829">
        <ele>732</ele>
        <time>2018-04-23T13:33:43Z</time>
      </trkpt>
      <trkpt lat="44.82631" lon="5.63844">
        <ele>739</ele>
        <time>2018-04-23T13:34:01Z</time>
      </trkpt>
      <trkpt lat="44.82645" lon="5.6385">
        <ele>737</ele>
        <time>2018-04-23T13:34:07Z</time>
      </trkpt>
      <trkpt lat="44.82754" lon="5.63881">
        <ele>720</ele>
        <time>2018-04-23T13:34:18Z</time>
      </trkpt>
      <trkpt lat="44.82816" lon="5.63899">
        <ele>717</ele>
        <time>2018-04-23T13:34:37Z</time>
      </trkpt>
      <trkpt lat="44.82828" lon="5.63908">
        <ele>717</ele>
        <time>2018-04-23T13:34:44Z</time>
      </trkpt>
      <trkpt lat="44.82836" lon="5.6392">
        <ele>715</ele>
        <time>2018-04-23T13:34:59Z</time>
      </trkpt>
      <trkpt lat="44.82839" lon="5.63931">
        <ele>711</ele>
        <time>2018-04-23T13:35:15Z</time>
      </trkpt>
      <trkpt lat="44.8284" lon="5.63943">
        <ele>709</ele>
        <time>2018-04-23T13:35:21Z</time>
      </trkpt>
      <trkpt lat="44.82839" lon="5.63956">
        <ele>708</ele>
        <time>2018-04-23T13:35:37Z</time>
      </trkpt>
      <trkpt lat="44.82833" lon="5.63973">
        <ele>722</ele>
        <time>2018-04-23T13:35:49Z</time>
      </trkpt>
      <trkpt lat="44.82823" lon="5.63994">
        <ele>719</ele>
        <time>2018-04-23T13:35:59Z</time>
      </trkpt>
      <trkpt lat="44.8282" lon="5.64012">
        <ele>720</ele>
        <time>2018-04-23T13:36:19Z</time>
      </trkpt>
      <trkpt lat="44.82823" lon="5.64031">
        <ele>721</ele>
        <time>2018-04-23T13:36:36Z</time>
      </trkpt>
      <trkpt lat="44.82837" lon="5.64068">
        <ele>705</ele>
        <time>2018-04-23T13:36:56Z</time>
      </trkpt>
      <trkpt lat="44.82836" lon="5.64097">
        <ele>703</ele>
        <time>2018-04-23T13:37:10Z</time>
      </trkpt>
      <trkpt lat="44.82831" lon="5.64114">
        <ele>715</ele>
        <time>2018-04-23T13:37:22Z</time>
      </trkpt>
      <trkpt lat="44.82822" lon="5.64127">
        <ele>715</ele>
        <time>2018-04-23T13:37:35Z</time>
      </trkpt>
      <trkpt lat="44.8279" lon="5.64155">
        <ele>719</ele>
        <time>2018-04-23T13:37:46Z</time>
      </trkpt>
      <trkpt lat="44.82781" lon="5.64171">
        <ele>715</ele>
        <time>2018-04-23T13:37:48Z</time>
      </trkpt>
      <trkpt lat="44.82776" lon="5.64189">
        <ele>714</ele>
        <time>2018-04-23T13:38:03Z</time>
      </trkpt>
      <trkpt lat="44.82774" lon="5.64222">
        <ele>711</ele>
        <time>2018-04-23T13:38:11Z</time>
      </trkpt>
      <trkpt lat="44.82772" lon="5.64248">
        <ele>711</ele>
        <time>2018-04-23T13:38:23Z</time>
      </trkpt>
      <trkpt lat="44.82766" lon="5.64265">
        <ele>705</ele>
        <time>2018-04-23T13:38:32Z</time>
      </trkpt>
      <trkpt lat="44.82755" lon="5.64278">
        <ele>704</ele>
        <time>2018-04-23T13:38:47Z</time>
      </trkpt>
      <trkpt lat="44.82734" lon="5.64292">
        <ele>711</ele>
        <time>2018-04-23T13:38:53Z</time>
      </trkpt>
      <trkpt lat="44.82712" lon="5.64308">
        <ele>711</ele>
        <time>2018-04-23T13:39:04Z</time>
      </trkpt>
      <trkpt lat="44.82702" lon="5.64325">
        <ele>711</ele>
        <time>2018-04-23T13:39:18Z</time>
      </trkpt>
      <trkpt lat="44.82682" lon="5.64404">
        <ele>703</ele>
        <time>2018-04-23T13:39:35Z</time>
      </trkpt>
      <trkpt lat="44.82674" lon="5.6445">
        <ele>698</ele>
        <time>2018-04-23T13:39:41Z</time>
      </trkpt>
      <trkpt lat="44.82675" lon="5.64468">
        <ele>697</ele>
        <time>2018-04-23T13:39:51Z</time>
      </trkpt>
      <trkpt lat="44.82679" lon="5.64486">
        <ele>697</ele>
        <time>2018-04-23T13:39:53Z</time>
      </trkpt>
      <trkpt lat="44.82695" lon="5.64524">
        <ele>694</ele>
        <time>2018-04-23T13:40:03Z</time>
      </trkpt>
      <trkpt lat="44.82715" lon="5.64567">
        <ele>692</ele>
        <time>2018-04-23T13:40:11Z</time>
      </trkpt>
      <trkpt lat="44.8272" lon="5.64588">
        <ele>692</ele>
        <time>2018-04-23T13:40:23Z</time>
      </trkpt>
      <trkpt lat="44.82722" lon="5.6461">
        <ele>692</ele>
        <time>2018-04-23T13:40:43Z</time>
      </trkpt>
      <trkpt lat="44.8272" lon="5.64635">
        <ele>693</ele>
        <time>2018-04-23T13:40:50Z</time>
      </trkpt>
      <trkpt lat="44.82711" lon="5.64683">
        <ele>693</ele>
        <time>2018-04-23T13:40:57Z</time>
      </trkpt>
      <trkpt lat="44.827" lon="5.64739">
        <ele>693</ele>
        <time>2018-04-23T13:41:00Z</time>
      </trkpt>
      <trkpt lat="44.82694" lon="5.64758">
        <ele>689</ele>
        <time>2018-04-23T13:41:13Z</time>
      </trkpt>
      <trkpt lat="44.82686" lon="5.64771">
        <ele>689</ele>
        <time>2018-04-23T13:41:18Z</time>
      </trkpt>
      <trkpt lat="44.82673" lon="5.64782">
        <ele>689</ele>
        <time>2018-04-23T13:41:36Z</time>
      </trkpt>
      <trkpt lat="44.82657" lon="5.64794">
        <ele>701</ele>
        <time>2018-04-23T13:41:47Z</time>
      </trkpt>
      <trkpt lat="44.82644" lon="5.64808">
        <ele>701</ele>
        <time>2018-04-23T13:41:49Z</time>
      </trkpt>
      <trkpt lat="44.82637" lon="5.64821">
        <ele>701</ele>
        <time>2018-04-23T13:41:53Z</time>
      </trkpt>
      <trkpt lat="44.82634" lon="5.64836">
        <ele>698</ele>
        <time>2018-04-23T13:42:12Z</time>
      </trkpt>
      <trkpt lat="44.82633" lon="5.6485">
        <ele>699</ele>
        <time>2018-04-23T13:42:14Z</time>
      </trkpt>
      <trkpt lat="44.8264" lon="5.64878">
        <ele>698</ele>
        <time>2018-04-23T13:42:29Z</time>
      </trkpt>
      <trkpt lat="44.82681" lon="5.65009">
        <ele>686</ele>
        <time>2018-04-23T13:42:40Z</time>
      </trkpt>
      <trkpt lat="44.82689" lon="5.65042">
        <ele>683</ele>
        <time>2018-04-23T13:42:52Z</time>
      </trkpt>
      <trkpt lat="44.82693" lon="5.65078">
        <ele>684</ele>
        <time>2018-04-23T13:42:56Z</time>
      </trkpt>
      <trkpt lat="44.82694" lon="5.65126">
        <ele>683</ele>
        <time>2018-04-23T13:43:06Z</time>
      </trkpt>
      <trkpt lat="44.82691" lon="5.65216">
        <ele>680</ele>
        <time>2018-04-23T13:43:20Z</time>
      </trkpt>
      <trkpt lat="44.8269" lon="5.65248">
        <ele>681</ele>
        <time>2018-04-23T13:43:37Z</time>
      </trkpt>
      <trkpt lat="44.82692" lon="5.65275">
        <ele>676</ele>
        <time>2018-04-23T13:43:54Z</time>
      </trkpt>
      <trkpt lat="44.82706" lon="5.65343">
        <ele>671</ele>
        <time>2018-04-23T13:44:07Z</time>
      </trkpt>
      <trkpt lat="44.82707" lon="5.65365">
        <ele>671</ele>
        <time>2018-04-23T13:44:14Z</time>
      </trkpt>
      <trkpt lat="44.82704" lon="5.65393">
        <ele>672</ele>
        <time>2018-04-23T13:44:27Z</time>
      </trkpt>
      <trkpt lat="44.82691" lon="5.6548">
        <ele>673</ele>
        <time>2018-04-23T13:44:42Z</time>
      </trkpt>
      <trkpt lat="44.82692" lon="5.65501">
        <ele>674</ele>
        <time>2018-04-23T13:45:00Z</time>
      </trkpt>
      <trkpt lat="44.82698" lon="5.6552">
        <ele>673</ele>
        <time>2018-04-23T13:45:05Z</time>
      </trkpt>
      <trkpt lat="44.82711" lon="5.6554">
        <ele>672</ele>
        <time>2018-04-23T13:45:13Z</time>
      </trkpt>
      <trkpt lat="44.82736" lon="5.65561">
        <ele>671</ele>
        <time>2018-04-23T13:45:29Z</time>
      </trkpt>
      <trkpt lat="44.82776" lon="5.6559">
        <ele>667</ele>
        <time>2018-04-23T13:45:35Z</time>
      </trkpt>
      <trkpt lat="44.82837" lon="5.65625">
        <ele>657</ele>
        <time>2018-04-23T13:45:46Z</time>
      </trkpt>
      <trkpt lat="44.82852" lon="5.65642">
        <ele>657</ele>
        <time>2018-04-23T13:46:00Z</time>
      </trkpt>
      <trkpt lat="44.82867" lon="5.65665">
        <ele>657</ele>
        <time>2018-04-23T13:46:18Z</time>
      </trkpt>
      <trkpt lat="44.829" lon="5.65712">
        <ele>660</ele>
        <time>2018-04-23T13:46:34Z</time>
      </trkpt>
      <trkpt lat="44.8292" lon="5.65733">
        <ele>654</ele>
        <time>2018-04-23T13:46:45Z</time>
      </trkpt>
      <trkpt lat="44.82987" lon="5.65777">
        <ele>651</ele>
        <time>2018-04-23T13:46:55Z</time>
      </trkpt>
      <trkpt lat="44.83015" lon="5.65801">
        <ele>644</ele>
        <time>2018-04-23T13:47:06Z</time>
      </trkpt>
      <trkpt lat="44.83027" lon="5.65815">
        <ele>644</ele>
        <time>2018-04-23T13:47:18Z</time>
      </trkpt>
      <trkpt lat="44.83045" lon="5.65847">
        <ele>645</ele>
        <time>2018-04-23T13:47:34Z</time>
      </trkpt>
      <trkpt lat="44.83049" lon="5.65866">
        <ele>645</ele>
        <time>2018-04-23T13:47:54Z</time>
      </trkpt>
      <trkpt lat="44.83051" lon="5.6589">
        <ele>645</ele>
        <time>2018-04-23T13:48:06Z</time>
      </trkpt>
      <trkpt lat="44.8305" lon="5.6595">
        <ele>643</ele>
        <time>2018-04-23T13:48:19Z</time>
      </trkpt>
      <trkpt lat="44.83045" lon="5.65974">
        <ele>643</ele>
        <time>2018-04-23T13:48:39Z</time>
      </trkpt>
      <trkpt lat="44.83036" lon="5.65993">
        <ele>643</ele>
        <time>2018-04-23T13:48:53Z</time>
      </trkpt>
      <trkpt lat="44.83022" lon="5.6601">
        <ele>640</ele>
        <time>2018-04-23T13:49:13Z</time>
      </trkpt>
      <trkpt lat="44.82994" lon="5.66036">
        <ele>646</ele>
        <time>2018-04-23T13:49:24Z</time>
      </trkpt>
      <trkpt lat="44.82984" lon="5.6605">
        <ele>645</ele>
        <time>2018-04-23T13:49:27Z</time>
      </trkpt>
      <trkpt lat="44.82973" lon="5.66082">
        <ele>643</ele>
        <time>2018-04-23T13:49:44Z</time>
      </trkpt>
      <trkpt lat="44.82963" lon="5.66108">
        <ele>637</ele>
        <time>2018-04-23T13:49:47Z</time>
      </trkpt>
      <trkpt lat="44.82955" lon="5.6612">
        <ele>637</ele>
        <time>2018-04-23T13:50:07Z</time>
      </trkpt>
      <trkpt lat="44.82941" lon="5.66135">
        <ele>637</ele>
        <time>2018-04-23T13:50:22Z</time>
      </trkpt>
      <trkpt lat="44.82924" lon="5.66153">
        <ele>636</ele>
        <time>2018-04-23T13:50:24Z</time>
      </trkpt>
      <trkpt lat="44.82909" lon="5.66174">
        <ele>637</ele>
        <time>2018-04-23T13:50:28Z</time>
      </trkpt>
      <trkpt lat="44.82904" lon="5.66187">
        <ele>637</ele>
        <time>2018-04-23T13:50:42Z</time>
      </trkpt>
      <trkpt lat="44.829" lon="5.66205">
        <ele>637</ele>
        <time>2018-04-23T13:50:59Z</time>
      </trkpt>
      <trkpt lat="44.82901" lon="5.66244">
        <ele>632</ele>
        <time>2018-04-23T13:51:06Z</time>
      </trkpt>
      <trkpt lat="44.82901" lon="5.66263">
        <ele>628</ele>
        <time>2018-04-23T13:51:25Z</time>
      </trkpt>
      <trkpt lat="44.82899" lon="5.6628">
        <ele>628</ele>
        <time>2018-04-23T13:51:43Z</time>
      </trkpt>
      <trkpt lat="44.82892" lon="5.66307">
        <ele>627</ele>
        <time>2018-04-23T13:52:00Z</time>
      </trkpt>
      <trkpt lat="44.82863" lon="5.66366">
        <ele>620</ele>
        <time>2018-04-23T13:52:03Z</time>
      </trkpt>
      <trkpt lat="44.82853" lon="5.66376">
        <ele>619</ele>
        <time>2018-04-23T13:52:19Z</time>
      </trkpt>
      <trkpt lat="44.82843" lon="5.66384">
        <ele>619</ele>
        <time>2018-04-23T13:52:24Z</time>
      </trkpt>
      <trkpt lat="44.82835" lon="5.66387">
        <ele>619</ele>
        <time>2018-04-23T13:52:37Z</time>
      </trkpt>
      <trkpt lat="44.8277" lon="5.66401">
        <ele>624</ele>
        <time>2018-04-23T13:52:47Z</time>
      </trkpt>
      <trkpt lat="44.82755" lon="5.66406">
        <ele>623</ele>
        <time>2018-04-23T13:53:05Z</time>
      </trkpt>
      <trkpt lat="44.82736" lon="5.66421">
        <ele>620</ele>
        <time>2018-04-23T13:53:19Z</time>
      </trkpt>
      <trkpt lat="44.8271" lon="5.66448">
        <ele>620</ele>
        <time>2018-04-23T13:53:39Z</time>
      </trkpt>
      <trkpt lat="44.82695" lon="5.66467">
        <ele>619</ele>
        <time>2018-04-23T13:53:54Z</time>
      </trkpt>
      <trkpt lat="44.82653" lon="5.6653">
        <ele>620</ele>
        <time>2018-04-23T13:53:59Z</time>
      </trkpt>
      <trkpt lat="44.82625" lon="5.66574">
        <ele>620</ele>
        <time>2018-04-23T13:54:14Z</time>
      </trkpt>
      <trkpt lat="44.82621" lon="5.66583">
        <ele>620</ele>
        <time>2018-04-23T13:54:22Z</time>
      </trkpt>
      <trkpt lat="44.8262" lon="5.66595">
        <ele>615</ele>
        <time>2018-04-23T13:54:40Z</time>
      </trkpt>
      <trkpt lat="44.82624" lon="5.6661">
        <ele>614</ele>
        <time>2018-04-23T13:54:58Z</time>
      </trkpt>
      <trkpt lat="44.82646" lon="5.66652">
        <ele>608</ele>
        <time>2018-04-23T13:55:02Z</time>
      </trkpt>
      <trkpt lat="44.8265" lon="5.66665">
        <ele>606</ele>
        <time>2018-04-23T13:55:12Z</time>
      </trkpt>
      <trkpt lat="44.82651" lon="5.66677">
        <ele>603</ele>
        <time>2018-04-23T13:55:32Z</time>
      </trkpt>
      <trkpt lat="44.82645" lon="5.66732">
        <ele>603</ele>
        <time>2018-04-23T13:55:46Z</time>
      </trkpt>
      <trkpt lat="44.82628" lon="5.66856">
        <ele>589</ele>
        <time>2018-04-23T13:56:06Z</time>
      </trkpt>
      <trkpt lat="44.82621" lon="5.66874">
        <ele>588</ele>
        <time>2018-04-23T13:56:12Z</time>
      </trkpt>
      <trkpt lat="44.82591" lon="5.66903">
        <ele>585</ele>
        <time>2018-04-23T13:56:18Z</time>
      </trkpt>
      <trkpt lat="44.8255" lon="5.66939">
        <ele>591</ele>
        <time>2018-04-23T13:56:21Z</time>
      </trkpt>
      <trkpt lat="44.82528" lon="5.6694">
        <ele>592</ele>
        <time>2018-04-23T13:56:23Z</time>
      </trkpt>
      <trkpt lat="44.82517" lon="5.66939">
        <ele>592</ele>
        <time>2018-04-23T13:56:41Z</time>
      </trkpt>
      <trkpt lat="44.82505" lon="5.66938">
        <ele>591</ele>
        <time>2018-04-23T13:56:43Z</time>
      </trkpt>
      <trkpt lat="44.82487" lon="5.66943">
        <ele>591</ele>
        <time>2018-04-23T13:56:52Z</time>
      </trkpt>
      <trkpt lat="44.82465" lon="5.66956">
        <ele>592</ele>
        <time>2018-04-23T13:57:01Z</time>
      </trkpt>
      <trkpt lat="44.82443" lon="5.66975">
        <ele>593</ele>
        <time>2018-04-23T13:57:04Z</time>
      </trkpt>
      <trkpt lat="44.82423" lon="5.67">
        <ele>594</ele>
        <time>2018-04-23T13:57:14Z</time>
      </trkpt>
      <trkpt lat="44.82399" lon="5.67035">
        <ele>594</ele>
        <time>2018-04-23T13:57:32Z</time>
      </trkpt>
      <trkpt lat="44.82343" lon="5.67114">
        <ele>600</ele>
        <time>2018-04-23T13:57:46Z</time>
      </trkpt>
      <trkpt lat="44.82298" lon="5.67174">
        <ele>595</ele>
        <time>2018-04-23T13:58:03Z</time>
      </trkpt>
      <trkpt lat="44.82265" lon="5.67214">
        <ele>593</ele>
        <time>2018-04-23T13:58:06Z</time>
      </trkpt>
      <trkpt lat="44.82253" lon="5.67235">
        <ele>592</ele>
        <time>2018-04-23T13:58:26Z</time>
      </trkpt>
      <trkpt lat="44.82249" lon="5.67249">
        <ele>589</ele>
        <time>2018-04-23T13:58:39Z</time>
      </trkpt>
      <trkpt lat="44.82248" lon="5.67272">
        <ele>590</ele>
        <time>2018-04-23T13:58:43Z</time>
      </trkpt>
      <trkpt lat="44.82252" lon="5.67295">
        <ele>599</ele>
        <time>2018-04-23T13:58:49Z</time>
      </trkpt>
      <trkpt lat="44.82252" lon="5.67314">
        <ele>598</ele>
        <time>2018-04-23T13:59:00Z</time>
      </trkpt>
      <trkpt lat="44.82247" lon="5.6733">
        <ele>593</ele>
        <time>2018-04-23T13:59:02Z</time>
      </trkpt>
      <trkpt lat="44.82238" lon="5.67342">
        <ele>595</ele>
        <time>2018-04-23T13:59:10Z</time>
      </trkpt>
      <trkpt lat="44.82193" lon="5.67373">
        <ele>594</ele>
        <time>2018-04-23T13:59:20Z</time>
      </trkpt>
      <trkpt lat="44.82154" lon="5.674">
        <ele>594</ele>
        <time>2018-04-23T13:59:36Z</time>
      </trkpt>
      <trkpt lat="44.82137" lon="5.67407">
        <ele>593</ele>
        <time>2018-04-23T13:59:50Z</time>
      </trkpt>
      <trkpt lat="44.82117" lon="5.67411">
        <ele>593</ele>
        <time>2018-04-23T13:59:54Z</time>
      </trkpt>
      <trkpt lat="44.821" lon="5.67414">
        <ele>593</ele>
        <time>2018-04-23T14:00:12Z</time>
      </trkpt>
      <trkpt lat="44.82085" lon="5.6742">
        <ele>594</ele>
        <time>2018-04-23T14:00:15Z</time>
      </trkpt>
      <trkpt lat="44.82074" lon="5.6743">
        <ele>596</ele>
        <time>2018-04-23T14:00:24Z</time>
      </trkpt>
      <trkpt lat="44.82053" lon="5.67457">
        <ele>598</ele>
        <time>2018-04-23T14:00:26Z</time>
      </trkpt>
      <trkpt lat="44.82026" lon="5.67498">
        <ele>597</ele>
        <time>2018-04-23T14:00:34Z</time>
      </trkpt>
      <trkpt lat="44.81998" lon="5.67537">
        <ele>597</ele>
        <time>2018-04-23T14:00:54Z</time>
      </trkpt>
      <trkpt lat="44.81956" lon="5.67602">
        <ele>598</ele>
        <time>2018-04-23T14:00:59Z</time>
      </trkpt>
      <trkpt lat="44.81939" lon="5.67631">
        <ele>598</ele>
        <time>2018-04-23T14:01:04Z</time>
      </trkpt>
      <trkpt lat="44.81933" lon="5.67647">
        <ele>598</ele>
        <time>2018-04-23T14:01:14Z</time>
      </trkpt>
      <trkpt lat="44.81925" lon="5.67678">
        <ele>599</ele>
        <time>2018-04-23T14:01:29Z</time>
      </trkpt>
      <trkpt lat="44.8192" lon="5.67723">
        <ele>601</ele>
        <time>2018-04-23T14:01:46Z</time>
      </trkpt>
      <trkpt lat="44.81914" lon="5.67755">
        <ele>596</ele>
        <time>2018-04-23T14:01:55Z</time>
      </trkpt>
      <trkpt lat="44.81893" lon="5.67809">
        <ele>595</ele>
        <time>2018-04-23T14:02:00Z</time>
      </trkpt>
      <trkpt lat="44.81879" lon="5.67843">
        <ele>598</ele>
        <time>2018-04-23T14:02:17Z</time>
      </trkpt>
      <trkpt lat="44.81827" lon="5.67967">
        <ele>600</ele>
        <time>2018-04-23T14:02:19Z</time>
      </trkpt>
      <trkpt lat="44.81815" lon="5.6799">
        <ele>601</ele>
        <time>2018-04-23T14:02:37Z</time>
      </trkpt>
      <trkpt lat="44.81791" lon="5.68018">
        <ele>604</ele>
        <time>2018-04-23T14:02:45Z</time>
      </trkpt>
      <trkpt lat="44.81759" lon="5.6805">
        <ele>603</ele>
        <time>2018-04-23T14:02:58Z</time>
      </trkpt>
      <trkpt lat="44.8172" lon="5.68085">
        <ele>600</ele>
        <time>2018-04-23T14:03:15Z</time>
      </trkpt>
      <trkpt lat="44.81673" lon="5.68123">
        <ele>598</ele>
        <time>2018-04-23T14:03:22Z</time>
      </trkpt>
      <trkpt lat="44.81655" lon="5.68138">
        <ele>596</ele>
        <time>2018-04-23T14:03:38Z</time>
      </trkpt>
      <trkpt lat="44.81635" lon="5.6816">
        <ele>596</ele>
        <time>2018-04-23T14:03:42Z</time>
      </trkpt>
      <trkpt lat="44.81619" lon="5.68181">
        <ele>597</ele>
        <time>2018-04-23T14:04:02Z</time>
      </trkpt>
      <trkpt lat="44.81608" lon="5.68203">
        <ele>597</ele>
        <time>2018-04-23T14:04:06Z</time>
      </trkpt>
      <trkpt lat="44.81593" lon="5.68246">
        <ele>598</ele>
        <time>2018-04-23T14:04:18Z</time>
      </trkpt>
      <trkpt lat="44.81588" lon="5.68271">
        <ele>599</ele>
        <time>2018-04-23T14:04:32Z</time>
      </trkpt>
      <trkpt lat="44.81562" lon="5.68462">
        <ele>605</ele>
        <time>2018-04-23T14:04:47Z</time>
      </trkpt>
      <trkpt lat="44.81548" lon="5.68575">
        <ele>607</ele>
        <time>2018-04-23T14:05:05Z</time>
      </trkpt>
      <trkpt lat="44.81541" lon="5.6862">
        <ele>609</ele>
        <time>2018-04-23T14:05:14Z</time>
      </trkpt>
      <trkpt lat="44.81535" lon="5.68647">
        <ele>610</ele>
        <time>2018-04-23T14:05:27Z</time>
      </trkpt>
      <trkpt lat="44.81528" lon="5.68668">
        <ele>612</ele>
        <time>2018-04-23T14:05:36Z</time>
      </trkpt>
      <trkpt lat="44.81505" lon="5.68713">
        <ele>611</ele>
        <time>2018-04-23T14:05:44Z</time>
      </trkpt>
      <trkpt lat="44.81465" lon="5.68785">
        <ele>616</ele>
        <time>2018-04-23T14:06:00Z</time>
      </trkpt>
      <trkpt lat="44.81429" lon="5.68846">
        <ele>616</ele>
        <time>2018-04-23T14:06:10Z</time>
      </trkpt>
      <trkpt lat="44.814" lon="5.68872">
        <ele>621</ele>
        <time>2018-04-23T14:06:16Z</time>
      </trkpt>
      <trkpt lat="44.81368" lon="5.68903">
        <ele>623</ele>
        <time>2018-04-23T14:06:23Z</time>
      </trkpt>
      <trkpt lat="44.81359" lon="5.68919">
        <ele>621</ele>
        <time>2018-04-23T14:06:27Z</time>
      </trkpt>
      <trkpt lat="44.81352" lon="5.68938">
        <ele>621</ele>
        <time>2018-04-23T14:06:41Z</time>
      </trkpt>
      <trkpt lat="44.81342" lon="5.68981">
        <ele>619</ele>
        <time>2018-04-23T14:06:56Z</time>
      </trkpt>
      <trkpt lat="44.81331" lon="5.69023">
        <ele>622</ele>
        <time>2018-04-23T14:06:59Z</time>
      </trkpt>
      <trkpt lat="44.8131" lon="5.6906">
        <ele>622</ele>
        <time>2018-04-23T14:07:11Z</time>
      </trkpt>
      <trkpt lat="44.81287" lon="5.691">
        <ele>620</ele>
        <time>2018-04-23T14:07:19Z</time>
      </trkpt>
      <trkpt lat="44.81274" lon="5.69135">
        <ele>619</ele>
        <time>2018-04-23T14:07:38Z</time>
      </trkpt>
      <trkpt lat="44.8126" lon="5.69168">
        <ele>618</ele>
        <time>2018-04-23T14:07:52Z</time>
      </trkpt>
      <trkpt lat="44.81241" lon="5.692">
        <ele>621</ele>
        <time>2018-04-23T14:08:03Z</time>
      </trkpt>
      <trkpt lat="44.81228" lon="5.69219">
        <ele>622</ele>
        <time>2018-04-23T14:08:22Z</time>
      </trkpt>
      <trkpt lat="44.81218" lon="5.6923">
        <ele>622</ele>
        <time>2018-04-23T14:08:36Z</time>
      </trkpt>
      <trkpt lat="44.81201" lon="5.69238">
        <ele>622</ele>
        <time>2018-04-23T14:08:48Z</time>
      </trkpt>
      <trkpt lat="44.81176" lon="5.69244">
        <ele>621</ele>
        <time>2018-04-23T14:09:05Z</time>
      </trkpt>
      <trkpt lat="44.81163" lon="5.69252">
        <ele>622</ele>
        <time>2018-04-23T14:09:18Z</time>
      </trkpt>
      <trkpt lat="44.81152" lon="5.69279">
        <ele>625</ele>
        <time>2018-04-23T14:09:29Z</time>
      </trkpt>
      <trkpt lat="44.81138" lon="5.69325">
        <ele>625</ele>
        <time>2018-04-23T14:09:49Z</time>
      </trkpt>
      <trkpt lat="44.81107" lon="5.69375">
        <ele>628</ele>
        <time>2018-04-23T14:09:56Z</time>
      </trkpt>
      <trkpt lat="44.81004" lon="5.69524">
        <ele>632</ele>
        <time>2018-04-23T14:10:00Z</time>
      </trkpt>
      <trkpt lat="44.80968" lon="5.6959">
        <ele>634</ele>
        <time>2018-04-23T14:10:03Z</time>
      </trkpt>
      <trkpt lat="44.80929" lon="5.69671">
        <ele>631</ele>
        <time>2018-04-23T14:10:14Z</time>
      </trkpt>
      <trkpt lat="44.80894" lon="5.6975">
        <ele>631</ele>
        <time>2018-04-23T14:10:19Z</time>
      </trkpt>
      <trkpt lat="44.80862" lon="5.69844">
        <ele>633</ele>
        <time>2018-04-23T14:10:34Z</time>
      </trkpt>
      <trkpt lat="44.80841" lon="5.6991">
        <ele>632</ele>
        <time>2018-04-23T14:10:40Z</time>
      </trkpt>
      <trkpt lat="44.80838" lon="5.69928">
        <ele>632</ele>
        <time>2018-04-23T14:10:52Z</time>
      </trkpt>
      <trkpt lat="44.80839" lon="5.69944">
        <ele>633</ele>
        <time>2018-04-23T14:11:10Z</time>
      </trkpt>
      <trkpt lat="44.80852" lon="5.69997">
        <ele>632</ele>
        <time>2018-04-23T14:11:16Z</time>
      </trkpt>
      <trkpt lat="44.80859" lon="5.70029">
        <ele>635</ele>
        <time>2018-04-23T14:11:28Z</time>
      </trkpt>
      <trkpt lat="44.80861" lon="5.70052">
        <ele>636</ele>
        <time>2018-04-23T14:11:37Z</time>
      </trkpt>
      <trkpt lat="44.8086" lon="5.70081">
        <ele>635</ele>
        <time>2018-04-23T14:11:48Z</time>
      </trkpt>
      <trkpt lat="44.80839" lon="5.70077">
        <ele>632</ele>
        <time>2018-04-23T14:11:50Z</time>
      </trkpt>
      <trkpt lat="44.80821" lon="5.70073">
        <ele>635</ele>
        <time>2018-04-23T14:12:09Z</time>
      </trkpt>
      <trkpt lat="44.80806" lon="5.70057">
        <ele>639</ele>
        <time>2018-04-23T14:12:26Z</time>
      </trkpt>
      <trkpt lat="44.80788" lon="5.7003">
        <ele>641</ele>
        <time>2018-04-23T14:12:33Z</time>
      </trkpt>
      <trkpt lat="44.80774" lon="5.69998">
        <ele>644</ele>
        <time>2018-04-23T14:12:47Z</time>
      </trkpt>
      <trkpt lat="44.80764" lon="5.69935">
        <ele>645</ele>
        <time>2018-04-23T14:13:06Z</time>
      </trkpt>
      <trkpt lat="44.8076" lon="5.69877">
        <ele>644</ele>
        <time>2018-04-23T14:13:19Z</time>
      </trkpt>
      <trkpt lat="44.80763" lon="5.69838">
        <ele>648</ele>
        <time>2018-04-23T14:13:34Z</time>
      </trkpt>
      <trkpt lat="44.80771" lon="5.69792">
        <ele>644</ele>
        <time>2018-04-23T14:13:49Z</time>
      </trkpt>
      <trkpt lat="44.80772" lon="5.69758">
        <ele>646</ele>
        <time>2018-04-23T14:13:57Z</time>
      </trkpt>
      <trkpt lat="44.80766" lon="5.69737">
        <ele>646</ele>
        <time>2018-04-23T14:14:06Z</time>
      </trkpt>
      <trkpt lat="44.80759" lon="5.69729">
        <ele>646</ele>
        <time>2018-04-23T14:14:19Z</time>
      </trkpt>
      <trkpt lat="44.80737" lon="5.69721">
        <ele>655</ele>
        <time>2018-04-23T14:14:35Z</time>
      </trkpt>
      <trkpt lat="44.80727" lon="5.69717">
        <ele>655</ele>
        <time>2018-04-23T14:14:42Z</time>
      </trkpt>
      <trkpt lat="44.80718" lon="5.6971">
        <ele>656</ele>
        <time>2018-04-23T14:14:48Z</time>
      </trkpt>
      <trkpt lat="44.80708" lon="5.69703">
        <ele>656</ele>
        <time>2018-04-23T14:14:59Z</time>
      </trkpt>
      <trkpt lat="44.80692" lon="5.69696">
        <ele>657</ele>
        <time>2018-04-23T14:15:07Z</time>
      </trkpt>
      <trkpt lat="44.80642" lon="5.69678">
        <ele>665</ele>
        <time>2018-04-23T14:15:13Z</time>
      </trkpt>
      <trkpt lat="44.80613" lon="5.69661">
        <ele>661</ele>
        <time>2018-04-23T14:15:30Z</time>
      </trkpt>
      <trkpt lat="44.80596" lon="5.69656">
        <ele>663</ele>
        <time>2018-04-23T14:15:33Z</time>
      </trkpt>
      <trkpt lat="44.80576" lon="5.69659">
        <ele>665</ele>
        <time>2018-04-23T14:15:48Z</time>
      </trkpt>
      <trkpt lat="44.80555" lon="5.69658">
        <ele>664</ele>
        <time>2018-04-23T14:15:56Z</time>
      </trkpt>
      <trkpt lat="44.80542" lon="5.69643">
        <ele>664</ele>
        <time>2018-04-23T14:16:05Z</time>
      </trkpt>
      <trkpt lat="44.80529" lon="5.69622">
        <ele>663</ele>
        <time>2018-04-23T14:16:15Z</time>
      </trkpt>
      <trkpt lat="44.80516" lon="5.69615">
        <ele>662</ele>
        <time>2018-04-23T14:16:35Z</time>
      </trkpt>
      <trkpt lat="44.80505" lon="5.69617">
        <ele>662</ele>
        <time>2018-04-23T14:16:53Z</time>
      </trkpt>
      <trkpt lat="44.80496" lon="5.69622">
        <ele>666</ele>
        <time>2018-04-23T14:17:13Z</time>
      </trkpt>
      <trkpt lat="44.80484" lon="5.69637">
        <ele>667</ele>
        <time>2018-04-23T14:17:32Z</time>
      </trkpt>
      <trkpt lat="44.80454" lon="5.69675">
        <ele>673</ele>
        <time>2018-04-23T14:17:43Z</time>
      </trkpt>
      <trkpt lat="44.80439" lon="5.69687">
        <ele>673</ele>
        <time>2018-04-23T14:17:58Z</time>
      </trkpt>
      <trkpt lat="44.80428" lon="5.69691">
        <ele>673</ele>
        <time>2018-04-23T14:18:03Z</time>
      </trkpt>
      <trkpt lat="44.80422" lon="5.69689">
        <ele>672</ele>
        <time>2018-04-23T14:18:20Z</time>
      </trkpt>
      <trkpt lat="44.80415" lon="5.69681">
        <ele>671</ele>
        <time>2018-04-23T14:18:33Z</time>
      </trkpt>
      <trkpt lat="44.80404" lon="5.69655">
        <ele>671</ele>
        <time>2018-04-23T14:18:48Z</time>
      </trkpt>
      <trkpt lat="44.80397" lon="5.69635">
        <ele>672</ele>
        <time>2018-04-23T14:18:53Z</time>
      </trkpt>
      <trkpt lat="44.80395" lon="5.69608">
        <ele>673</ele>
        <time>2018-04-23T14:19:00Z</time>
      </trkpt>
      <trkpt lat="44.80396" lon="5.69598">
        <ele>673</ele>
        <time>2018-04-23T14:19:19Z</time>
      </trkpt>
      <trkpt lat="44.80403" lon="5.6958">
        <ele>677</ele>
        <time>2018-04-23T14:19:33Z</time>
      </trkpt>
      <trkpt lat="44.8042" lon="5.69553">
        <ele>675</ele>
        <time>2018-04-23T14:19:50Z</time>
      </trkpt>
      <trkpt lat="44.80421" lon="5.69537">
        <ele>678</ele>
        <time>2018-04-23T14:20:02Z</time>
      </trkpt>
      <trkpt lat="44.80417" lon="5.6953">
        <ele>679</ele>
        <time>2018-04-23T14:20:20Z</time>
      </trkpt>
      <trkpt lat="44.80413" lon="5.69528">
        <ele>684</ele>
        <time>2018-04-23T14:20:38Z</time>
      </trkpt>
      <trkpt lat="44.80409" lon="5.69527">
        <ele>684</ele>
        <time>2018-04-23T14:20:42Z</time>
      </trkpt>
      <trkpt lat="44.80399" lon="5.69533">
        <ele>684</ele>
        <time>2018-04-23T14:20:52Z</time>
      </trkpt>
      <trkpt lat="44.80374" lon="5.69549">
        <ele>682</ele>
        <time>2018-04-23T14:21:00Z</time>
      </trkpt>
      <trkpt lat="44.80363" lon="5.69553">
        <ele>682</ele>
        <time>2018-04-23T14:21:03Z</time>
      </trkpt>
      <trkpt lat="44.80352" lon="5.69554">
        <ele>682</ele>
        <time>2018-04-23T14:21:11Z</time>
      </trkpt>
      <trkpt lat="44.80338" lon="5.69552">
        <ele>683</ele>
        <time>2018-04-23T14:21:15Z</time>
      </trkpt>
      <trkpt lat="44.80322" lon="5.69546">
        <ele>686</ele>
        <time>2018-04-23T14:21:35Z</time>
      </trkpt>
      <trkpt lat="44.80313" lon="5.69542">
        <ele>686</ele>
        <time>2018-04-23T14:21:45Z</time>
      </trkpt>
      <trkpt lat="44.80292" lon="5.69534">
        <ele>687</ele>
        <time>2018-04-23T14:21:47Z</time>
      </trkpt>
      <trkpt lat="44.80273" lon="5.69531">
        <ele>688</ele>
        <time>2018-04-23T14:22:01Z</time>
      </trkpt>
      <trkpt lat="44.80254" lon="5.69532">
        <ele>688</ele>
        <time>2018-04-23T14:22:14Z</time>
      </trkpt>
      <trkpt lat="44.80209" lon="5.69536">
        <ele>692</ele>
        <time>2018-04-23T14:22:29Z</time>
      </trkpt>
      <trkpt lat="44.80153" lon="5.69544">
        <ele>698</ele>
        <time>2018-04-23T14:22:37Z</time>
      </trkpt>
      <trkpt lat="44.80015" lon="5.69564">
        <ele>707</ele>
        <time>2018-04-23T14:22:39Z</time>
      </trkpt>
      <trkpt lat="44.79967" lon="5.69571">
        <ele>712</ele>
        <time>2018-04-23T14:22:47Z</time>
      </trkpt>
      <trkpt lat="44.79898" lon="5.69578">
        <ele>717</ele>
        <time>2018-04-23T14:23:01Z</time>
      </trkpt>
      <trkpt lat="44.7985" lon="5.69579">
        <ele>719</ele>
        <time>2018-04-23T14:23:06Z</time>
      </trkpt>
      <trkpt lat="44.79828" lon="5.69575">
        <ele>721</ele>
        <time>2018-04-23T14:23:09Z</time>
      </trkpt>
      <trkpt lat="44.79802" lon="5.69564">
        <ele>722</ele>
        <time>2018-04-23T14:23:12Z</time>
      </trkpt>
      <trkpt lat="44.79769" lon="5.69544">
        <ele>723</ele>
        <time>2018-04-23T14:23:26Z</time>
      </trkpt>
      <trkpt lat="44.79739" lon="5.69525">
        <ele>725</ele>
        <time>2018-04-23T14:23:35Z</time>
      </trkpt>
      <trkpt lat="44.79712" lon="5.69512">
        <ele>726</ele>
        <time>2018-04-23T14:23:51Z</time>
      </trkpt>
      <trkpt lat="44.79645" lon="5.69487">
        <ele>732</ele>
        <time>2018-04-23T14:24:00Z</time>
      </trkpt>
      <trkpt lat="44.7959" lon="5.69464">
        <ele>733</ele>
        <time>2018-04-23T14:24:08Z</time>
      </trkpt>
      <trkpt lat="44.79568" lon="5.69451">
        <ele>734</ele>
        <time>2018-04-23T14:24:27Z</time>
      </trkpt>
      <trkpt lat="44.79485" lon="5.69389">
        <ele>741</ele>
        <time>2018-04-23T14:24:34Z</time>
      </trkpt>
      <trkpt lat="44.79455" lon="5.69377">
        <ele>742</ele>
        <time>2018-04-23T14:24:51Z</time>
      </trkpt>
      <trkpt lat="44.79376" lon="5.69353">
        <ele>742</ele>
        <time>2018-04-23T14:25:11Z</time>
      </trkpt>
      <trkpt lat="44.79343" lon="5.69343">
        <ele>743</ele>
        <time>2018-04-23T14:25:20Z</time>
      </trkpt>
      <trkpt lat="44.79335" lon="5.69343">
        <ele>743</ele>
        <time>2018-04-23T14:25:22Z</time>
      </trkpt>
      <trkpt lat="44.79324" lon="5.69347">
        <ele>744</ele>
        <time>2018-04-23T14:25:41Z</time>
      </trkpt>
      <trkpt lat="44.79292" lon="5.69358">
        <ele>744</ele>
        <time>2018-04-23T14:25:44Z</time>
      </trkpt>
      <trkpt lat="44.7927" lon="5.69366">
        <ele>744</ele>
        <time>2018-04-23T14:25:49Z</time>
      </trkpt>
      <trkpt lat="44.79196" lon="5.69391">
        <ele>748</ele>
        <time>2018-04-23T14:25:58Z</time>
      </trkpt>
      <trkpt lat="44.79136" lon="5.69414">
        <ele>752</ele>
        <time>2018-04-23T14:26:10Z</time>
      </trkpt>
      <trkpt lat="44.79109" lon="5.69426">
        <ele>754</ele>
        <time>2018-04-23T14:26:27Z</time>
      </trkpt>
      <trkpt lat="44.7909" lon="5.69439">
        <ele>755</ele>
        <time>2018-04-23T14:26:35Z</time>
      </trkpt>
      <trkpt lat="44.79071" lon="5.69451">
        <ele>756</ele>
        <time>2018-04-23T14:26:46Z</time>
      </trkpt>
      <trkpt lat="44.79056" lon="5.69466">
        <ele>756</ele>
        <time>2018-04-23T14:27:05Z</time>
      </trkpt>
      <trkpt lat="44.7903" lon="5.69483">
        <ele>756</ele>
        <time>2018-04-23T14:27:07Z</time>
      </trkpt>
      <trkpt lat="44.79009" lon="5.69492">
        <ele>756</ele>
        <time>2018-04-23T14:27:26Z</time>
      </trkpt>
      <trkpt lat="44.7896" lon="5.69497">
        <ele>758</ele>
        <time>2018-04-23T14:27:42Z</time>
      </trkpt>
      <trkpt lat="44.78912" lon="5.69505">
        <ele>763</ele>
        <time>2018-04-23T14:28:00Z</time>
      </trkpt>
      <trkpt lat="44.78889" lon="5.69504">
        <ele>763</ele>
        <time>2018-04-23T14:28:16Z</time>
      </trkpt>
      <trkpt lat="44.78875" lon="5.69507">
        <ele>764</ele>
        <time>2018-04-23T14:28:18Z</time>
      </trkpt>
      <trkpt lat="44.78857" lon="5.69522">
        <ele>764</ele>
        <time>2018-04-23T14:28:22Z</time>
      </trkpt>
      <trkpt lat="44.78848" lon="5.69536">
        <ele>764</ele>
        <time>2018-04-23T14:28:37Z</time>
      </trkpt>
      <trkpt lat="44.78839" lon="5.69544">
        <ele>764</ele>
        <time>2018-04-23T14:28:56Z</time>
      </trkpt>
      <trkpt lat="44.78814" lon="5.69554">
        <ele>767</ele>
        <time>2018-04-23T14:29:04Z</time>
      </trkpt>
      <trkpt lat="44.78793" lon="5.69561">
        <ele>767</ele>
        <time>2018-04-23T14:29:21Z</time>
      </trkpt>
      <trkpt lat="44.78717" lon="5.69581">
        <ele>770</ele>
        <time>2018-04-23T14:29:40Z</time>
      </trkpt>
      <trkpt lat="44.78595" lon="5.6959">
        <ele>772</ele>
        <time>2018-04-23T14:29:48Z</time>
      </trkpt>
      <trkpt lat="44.78521" lon="5.69599">
        <ele>772</ele>
        <time>2018-04-23T14:30:08Z</time>
      </trkpt>
      <trkpt lat="44.78497" lon="5.69628">
        <ele>773</ele>
        <time>2018-04-23T14:30:20Z</time>
      </trkpt>
      <trkpt lat="44.78427" lon="5.69708">
        <ele>772</ele>
        <time>2018-04-23T14:30:38Z</time>
      </trkpt>
      <trkpt lat="44.78403" lon="5.69742">
        <ele>774</ele>
        <time>2018-04-23T14:30:49Z</time>
      </trkpt>
      <trkpt lat="44.78393" lon="5.69758">
        <ele>774</ele>
        <time>2018-04-23T14:30:58Z</time>
      </trkpt>
      <trkpt lat="44.78378" lon="5.69798">
        <ele>775</ele>
        <time>2018-04-23T14:31:12Z</time>
      </trkpt>
      <trkpt lat="44.78337" lon="5.69915">
        <ele>779</ele>
        <time>2018-04-23T14:31:27Z</time>
      </trkpt>
      <trkpt lat="44.78321" lon="5.69975">
        <ele>781</ele>
        <time>2018-04-23T14:31:34Z</time>
      </trkpt>
      <trkpt lat="44.78311" lon="5.70041">
        <ele>783</ele>
        <time>2018-04-23T14:31:41Z</time>
      </trkpt>
      <trkpt lat="44.78306" lon="5.70119">
        <ele>785</ele>
        <time>2018-04-23T14:32:00Z</time>
      </trkpt>
      <trkpt lat="44.78305" lon="5.70167">
        <ele>787</ele>
        <time>2018-04-23T14:32:06Z</time>
      </trkpt>
      <trkpt lat="44.78313" lon="5.7022">
        <ele>788</ele>
        <time>2018-04-23T14:32:10Z</time>
      </trkpt>
      <trkpt lat="44.78316" lon="5.70261">
        <ele>790</ele>
        <time>2018-04-23T14:32:12Z</time>
      </trkpt>
      <trkpt lat="44.78311" lon="5.70288">
        <ele>791</ele>
        <time>2018-04-23T14:32:28Z</time>
      </trkpt>
      <trkpt lat="44.78306" lon="5.70303">
        <ele>792</ele>
        <time>2018-04-23T14:32:37Z</time>
      </trkpt>
      <trkpt lat="44.78298" lon="5.70319">
        <ele>792</ele>
        <time>2018-04-23T14:32:45Z</time>
      </trkpt>
      <trkpt lat="44.7827" lon="5.70364">
        <ele>796</ele>
        <time>2018-04-23T14:33:05Z</time>
      </trkpt>
      <trkpt lat="44.78246" lon="5.70431">
        <ele>802</ele>
        <time>2018-04-23T14:33:13Z</time>
      </trkpt>
      <trkpt lat="44.78218" lon="5.70514">
        <ele>808</ele>
        <time>2018-04-23T14:33:27Z</time>
      </trkpt>
      <trkpt lat="44.78196" lon="5.7058">
        <ele>808</ele>
        <time>2018-04-23T14:33:30Z</time>
      </trkpt>
      <trkpt lat="44.78191" lon="5.70604">
        <ele>808</ele>
        <time>2018-04-23T14:33:32Z</time>
      </trkpt>
      <trkpt lat="44.78189" lon="5.70622">
        <ele>808</ele>
        <time>2018-04-23T14:33:45Z</time>
      </trkpt>
      <trkpt lat="44.7819" lon="5.70642">
        <ele>808</ele>
        <time>2018-04-23T14:33:59Z</time>
      </trkpt>
      <trkpt lat="44.78199" lon="5.70695">
        <ele>808</ele>
        <time>2018-04-23T14:34:15Z</time>
      </trkpt>
      <trkpt lat="44.78208" lon="5.70737">
        <ele>808</ele>
        <time>2018-04-23T14:34:20Z</time>
      </trkpt>
      <trkpt lat="44.78218" lon="5.70766">
        <ele>810</ele>
        <time>2018-04-23T14:34:33Z</time>
      </trkpt>
      <trkpt lat="44.78264" lon="5.70861">
        <ele>814</ele>
        <time>2018-04-23T14:34:40Z</time>
      </trkpt>
      <trkpt lat="44.78298" lon="5.70927">
        <ele>817</ele>
        <time>2018-04-23T14:34:46Z</time>
      </trkpt>
      <trkpt lat="44.78307" lon="5.7095">
        <ele>817</ele>
        <time>2018-04-23T14:34:55Z</time>
      </trkpt>
      <trkpt lat="44.78314" lon="5.7098">
        <ele>816</ele>
        <time>2018-04-23T14:35:11Z</time>
      </trkpt>
      <trkpt lat="44.78315" lon="5.7101">
        <ele>817</ele>
        <time>2018-04-23T14:35:27Z</time>
      </trkpt>
      <trkpt lat="44.78312" lon="5.71029">
        <ele>818</ele>
        <time>2018-04-23T14:35:32Z</time>
      </trkpt>
      <trkpt lat="44.78271" lon="5.71156">
        <ele>821</ele>
        <time>2018-04-23T14:35:50Z</time>
      </trkpt>
      <trkpt lat="44.7824" lon="5.71247">
        <ele>829</ele>
        <time>2018-04-23T14:36:05Z</time>
      </trkpt>
      <trkpt lat="44.78233" lon="5.71281">
        <ele>832</ele>
        <time>2018-04-23T14:36:22Z</time>
      </trkpt>
      <trkpt lat="44.78234" lon="5.71309">
        <ele>833</ele>
        <time>2018-04-23T14:36:30Z</time>
      </trkpt>
      <trkpt lat="44.78237" lon="5.71349">
        <ele>834</ele>
        <time>2018-04-23T14:36:36Z</time>
      </trkpt>
      <trkpt lat="44.78238" lon="5.7157">
        <ele>840</ele>
        <time>2018-04-23T14:36:54Z</time>
      </trkpt>
      <trkpt lat="44.78237" lon="5.71648">
        <ele>842</ele>
        <time>2018-04-23T14:36:59Z</time>
      </trkpt>
      <trkpt lat="44.78233" lon="5.71672">
        <ele>842</ele>
        <time>2018-04-23T14:37:15Z</time>
      </trkpt>
      <trkpt lat="44.78222" lon="5.71707">
        <ele>841</ele>
        <time>2018-04-23T14:37:24Z</time>
      </trkpt>
      <trkpt lat="44.7818" lon="5.71814">
        <ele>837</ele>
        <time>2018-04-23T14:37:28Z</time>
      </trkpt>
      <trkpt lat="44.78159" lon="5.71866">
        <ele>837</ele>
        <time>2018-04-23T14:37:37Z</time>
      </trkpt>
      <trkpt lat="44.78145" lon="5.71894">
        <ele>836</ele>
        <time>2018-04-23T14:37:39Z</time>
      </trkpt>
      <trkpt lat="44.78109" lon="5.71968">
        <ele>830</ele>
        <time>2018-04-23T14:37:50Z</time>
      </trkpt>
      <trkpt lat="44.78096" lon="5.71984">
        <ele>830</ele>
        <time>2018-04-23T14:38:08Z</time>
      </trkpt>
      <trkpt lat="44.78048" lon="5.72022">
        <ele>827</ele>
        <time>2018-04-23T14:38:28Z</time>
      </trkpt>
      <trkpt lat="44.77996" lon="5.72066">
        <ele>827</ele>
        <time>2018-04-23T14:38:38Z</time>
      </trkpt>
      <trkpt lat="44.77986" lon="5.72079">
        <ele>826</ele>
        <time>2018-04-23T14:38:48Z</time>
      </trkpt>
      <trkpt lat="44.77982" lon="5.72093">
        <ele>825</ele>
        <time>2018-04-23T14:39:01Z</time>
      </trkpt>
      <trkpt lat="44.77975" lon="5.72129">
        <ele>826</ele>
        <time>2018-04-23T14:39:03Z</time>
      </trkpt>
      <trkpt lat="44.77976" lon="5.72143">
        <ele>825</ele>
        <time>2018-04-23T14:39:15Z</time>
      </trkpt>
      <trkpt lat="44.77982" lon="5.72161">
        <ele>823</ele>
        <time>2018-04-23T14:39:23Z</time>
      </trkpt>
      <trkpt lat="44.7801" lon="5.72214">
        <ele>816</ele>
        <time>2018-04-23T14:39:31Z</time>
      </trkpt>
      <trkpt lat="44.78017" lon="5.72223">
        <ele>816</ele>
        <time>2018-04-23T14:39:46Z</time>
      </trkpt>
      <trkpt lat="44.78029" lon="5.72232">
        <ele>816</ele>
        <time>2018-04-23T14:39:54Z</time>
      </trkpt>
      <trkpt lat="44.78053" lon="5.72245">
        <ele>814</ele>
        <time>2018-04-23T14:40:12Z</time>
      </trkpt>
      <trkpt lat="44.78064" lon="5.72253">
        <ele>813</ele>
        <time>2018-04-23T14:40:17Z</time>
      </trkpt>
      <trkpt lat="44.78073" lon="5.72264">
        <ele>813</ele>
        <time>2018-04-23T14:40:28Z</time>
      </trkpt>
      <trkpt lat="44.78081" lon="5.72284">
        <ele>814</ele>
        <time>2018-04-23T14:40:39Z</time>
      </trkpt>
      <trkpt lat="44.78088" lon="5.72312">
        <ele>808</ele>
        <time>2018-04-23T14:40:58Z</time>
      </trkpt>
      <trkpt lat="44.78098" lon="5.72358">
        <ele>809</ele>
        <time>2018-04-23T14:41:07Z</time>
      </trkpt>
      <trkpt lat="44.78112" lon="5.72388">
        <ele>809</ele>
        <time>2018-04-23T14:41:26Z</time>
      </trkpt>
      <trkpt lat="44.78119" lon="5.72406">
        <ele>809</ele>
        <time>2018-04-23T14:41:32Z</time>
      </trkpt>
      <trkpt lat="44.78123" lon="5.72421">
        <ele>810</ele>
        <time>2018-04-23T14:41:52Z</time>
      </trkpt>
      <trkpt lat="44.78124" lon="5.7247">
        <ele>811</ele>
        <time>2018-04-23T14:41:56Z</time>
      </trkpt>
      <trkpt lat="44.78126" lon="5.72481">
        <ele>811</ele>
        <time>2018-04-23T14:41:58Z</time>
      </trkpt>
      <trkpt lat="44.7813" lon="5.7249">
        <ele>810</ele>
        <time>2018-04-23T14:42:18Z</time>
      </trkpt>
      <trkpt lat="44.78186" lon="5.72565">
        <ele>803</ele>
        <time>2018-04-23T14:42:20Z</time>
      </trkpt>
      <trkpt lat="44.782" lon="5.72584">
        <ele>802</ele>
        <time>2018-04-23T14:42:29Z</time>
      </trkpt>
      <trkpt lat="44.78207" lon="5.72597">
        <ele>801</ele>
        <time>2018-04-23T14:42:47Z</time>
      </trkpt>
      <trkpt lat="44.78213" lon="5.72618">
        <ele>800</ele>
        <time>2018-04-23T14:42:51Z</time>
      </trkpt>
      <trkpt lat="44.78214" lon="5.72628">
        <ele>800</ele>
        <time>2018-04-23T14:43:03Z</time>
      </trkpt>
      <trkpt lat="44.78212" lon="5.72643">
        <ele>799</ele>
        <time>2018-04-23T14:43:10Z</time>
      </trkpt>
      <trkpt lat="44.78206" lon="5.72665">
        <ele>799</ele>
        <time>2018-04-23T14:43:17Z</time>
      </trkpt>
      <trkpt lat="44.78194" lon="5.72692">
        <ele>795</ele>
        <time>2018-04-23T14:43:20Z</time>
      </trkpt>
      <trkpt lat="44.78184" lon="5.72707">
        <ele>795</ele>
        <time>2018-04-23T14:43:26Z</time>
      </trkpt>
      <trkpt lat="44.78171" lon="5.72721">
        <ele>794</ele>
        <time>2018-04-23T14:43:39Z</time>
      </trkpt>
      <trkpt lat="44.78142" lon="5.72748">
        <ele>800</ele>
        <time>2018-04-23T14:43:58Z</time>
      </trkpt>
      <trkpt lat="44.7813" lon="5.72764">
        <ele>796</ele>
        <time>2018-04-23T14:44:15Z</time>
      </trkpt>
      <trkpt lat="44.78119" lon="5.72785">
        <ele>796</ele>
        <time>2018-04-23T14:44:17Z</time>
      </trkpt>
      <trkpt lat="44.7809" lon="5.72862">
        <ele>790</ele>
        <time>2018-04-23T14:44:32Z</time>
      </trkpt>
      <trkpt lat="44.78083" lon="5.72883">
        <ele>794</ele>
        <time>2018-04-23T14:44:52Z</time>
      </trkpt>
      <trkpt lat="44.78072" lon="5.72923">
        <ele>790</ele>
        <time>2018-04-23T14:44:56Z</time>
      </trkpt>
      <trkpt lat="44.78065" lon="5.72951">
        <ele>791</ele>
        <time>2018-04-23T14:45:03Z</time>
      </trkpt>
      <trkpt lat="44.78062" lon="5.72976">
        <ele>791</ele>
        <time>2018-04-23T14:45:12Z</time>
      </trkpt>
      <trkpt lat="44.78061" lon="5.73006">
        <ele>790</ele>
        <time>2018-04-23T14:45:18Z</time>
      </trkpt>
      <trkpt lat="44.78064" lon="5.73031">
        <ele>791</ele>
        <time>2018-04-23T14:45:37Z</time>
      </trkpt>
      <trkpt lat="44.7807" lon="5.73057">
        <ele>790</ele>
        <time>2018-04-23T14:45:48Z</time>
      </trkpt>
      <trkpt lat="44.78094" lon="5.73146">
        <ele>790</ele>
        <time>2018-04-23T14:46:06Z</time>
      </trkpt>
      <trkpt lat="44.78107" lon="5.7319">
        <ele>793</ele>
        <time>2018-04-23T14:46:11Z</time>
      </trkpt>
      <trkpt lat="44.78108" lon="5.73204">
        <ele>793</ele>
        <time>2018-04-23T14:46:19Z</time>
      </trkpt>
      <trkpt lat="44.78099" lon="5.73257">
        <ele>797</ele>
        <time>2018-04-23T14:46:26Z</time>
      </trkpt>
      <trkpt lat="44.78097" lon="5.73291">
        <ele>797</ele>
        <time>2018-04-23T14:46:44Z</time>
      </trkpt>
      <trkpt lat="44.78111" lon="5.73288">
        <ele>797</ele>
        <time>2018-04-23T14:46:56Z</time>
      </trkpt>
      <trkpt lat="44.78148" lon="5.73279">
        <ele>797</ele>
        <time>2018-04-23T14:47:04Z</time>
      </trkpt>
      <trkpt lat="44.78154" lon="5.73277">
        <ele>797</ele>
        <time>2018-04-23T14:47:18Z</time>
      </trkpt>
      <trkpt lat="44.78153" lon="5.73293">
        <ele>797</ele>
        <time>2018-04-23T14:47:24Z</time>
      </trkpt>
      <trkpt lat="44.78136" lon="5.73397">
        <ele>800</ele>
        <time>2018-04-23T14:47:38Z</time>
      </trkpt>
      <trkpt lat="44.78122" lon="5.73475">
        <ele>802</ele>
        <time>2018-04-23T14:47:51Z</time>
      </trkpt>
      <trkpt lat="44.78107" lon="5.73535">
        <ele>803</ele>
        <time>2018-04-23T14:47:55Z</time>
      </trkpt>
      <trkpt lat="44.78098" lon="5.73552">
        <ele>803</ele>
        <time>2018-04-23T14:48:00Z</time>
      </trkpt>
      <trkpt lat="44.78083" lon="5.73571">
        <ele>805</ele>
        <time>2018-04-23T14:48:07Z</time>
      </trkpt>
      <trkpt lat="44.78043" lon="5.73619">
        <ele>810</ele>
        <time>2018-04-23T14:48:27Z</time>
      </trkpt>
      <trkpt lat="44.78024" lon="5.73647">
        <ele>811</ele>
        <time>2018-04-23T14:48:29Z</time>
      </trkpt>
      <trkpt lat="44.78017" lon="5.73667">
        <ele>814</ele>
        <time>2018-04-23T14:48:36Z</time>
      </trkpt>
      <trkpt lat="44.77996" lon="5.73801">
        <ele>822</ele>
        <time>2018-04-23T14:48:51Z</time>
      </trkpt>
      <trkpt lat="44.77984" lon="5.73861">
        <ele>823</ele>
        <time>2018-04-23T14:49:04Z</time>
      </trkpt>
      <trkpt lat="44.77972" lon="5.73894">
        <ele>823</ele>
        <time>2018-04-23T14:49:09Z</time>
      </trkpt>
      <trkpt lat="44.77926" lon="5.74013">
        <ele>825</ele>
        <time>2018-04-23T14:49:17Z</time>
      </trkpt>
      <trkpt lat="44.77907" lon="5.74058">
        <ele>829</ele>
        <time>2018-04-23T14:49:32Z</time>
      </trkpt>
      <trkpt lat="44.77899" lon="5.74077">
        <ele>829</ele>
        <time>2018-04-23T14:49:51Z</time>
      </trkpt>
      <trkpt lat="44.77911" lon="5.74101">
        <ele>830</ele>
        <time>2018-04-23T14:50:00Z</time>
      </trkpt>
      <trkpt lat="44.77924" lon="5.7412">
        <ele>830</ele>
        <time>2018-04-23T14:50:15Z</time>
      </trkpt>
      <trkpt lat="44.77936" lon="5.74129">
        <ele>830</ele>
        <time>2018-04-23T14:50:33Z</time>
      </trkpt>
      <trkpt lat="44.77949" lon="5.74134">
        <ele>830</ele>
        <time>2018-04-23T14:50:50Z</time>
      </trkpt>
      <trkpt lat="44.77963" lon="5.74136">
        <ele>830</ele>
        <time>2018-04-23T14:51:01Z</time>
      </trkpt>
      <trkpt lat="44.77998" lon="5.74141">
        <ele>831</ele>
        <time>2018-04-23T14:51:04Z</time>
      </trkpt>
      <trkpt lat="44.78049" lon="5.74157">
        <ele>834</ele>
        <time>2018-04-23T14:51:08Z</time>
      </trkpt>
      <trkpt lat="44.78077" lon="5.74164">
        <ele>838</ele>
        <time>2018-04-23T14:51:24Z</time>
      </trkpt>
      <trkpt lat="44.78088" lon="5.74165">
        <ele>840</ele>
        <time>2018-04-23T14:51:42Z</time>
      </trkpt>
      <trkpt lat="44.78103" lon="5.74162">
        <ele>841</ele>
        <time>2018-04-23T14:51:45Z</time>
      </trkpt>
      <trkpt lat="44.78127" lon="5.74151">
        <ele>843</ele>
        <time>2018-04-23T14:52:05Z</time>
      </trkpt>
      <trkpt lat="44.78153" lon="5.74134">
        <ele>844</ele>
        <time>2018-04-23T14:52:15Z</time>
      </trkpt>
      <trkpt lat="44.78192" lon="5.74101">
        <ele>848</ele>
        <time>2018-04-23T14:52:23Z</time>
      </trkpt>
      <trkpt lat="44.78223" lon="5.74075">
        <ele>846</ele>
        <time>2018-04-23T14:52:28Z</time>
      </trkpt>
      <trkpt lat="44.78243" lon="5.74054">
        <ele>846</ele>
        <time>2018-04-23T14:52:46Z</time>
      </trkpt>
      <trkpt lat="44.78266" lon="5.74014">
        <ele>849</ele>
        <time>2018-04-23T14:53:00Z</time>
      </trkpt>
      <trkpt lat="44.78271" lon="5.74011">
        <ele>849</ele>
        <time>2018-04-23T14:53:16Z</time>
      </trkpt>
      <trkpt lat="44.78277" lon="5.74012">
        <ele>849</ele>
        <time>2018-04-23T14:53:35Z</time>
      </trkpt>
      <trkpt lat="44.78283" lon="5.74019">
        <ele>850</ele>
        <time>2018-04-23T14:53:39Z</time>
      </trkpt>
      <trkpt lat="44.78288" lon="5.74033">
        <ele>850</ele>
        <time>2018-04-23T14:53:49Z</time>
      </trkpt>
      <trkpt lat="44.78307" lon="5.74201">
        <ele>854</ele>
        <time>2018-04-23T14:54:05Z</time>
      </trkpt>
      <trkpt lat="44.78346" lon="5.74505">
        <ele>852</ele>
        <time>2018-04-23T14:54:07Z</time>
      </trkpt>
      <trkpt lat="44.78354" lon="5.74581">
        <ele>851</ele>
        <time>2018-04-23T14:54:14Z</time>
      </trkpt>
      <trkpt lat="44.78354" lon="5.74607">
        <ele>850</ele>
        <time>2018-04-23T14:54:27Z</time>
      </trkpt>
      <trkpt lat="44.78351" lon="5.74633">
        <ele>849</ele>
        <time>2018-04-23T14:54:32Z</time>
      </trkpt>
      <trkpt lat="44.78346" lon="5.74658">
        <ele>850</ele>
        <time>2018-04-23T14:54:37Z</time>
      </trkpt>
      <trkpt lat="44.78339" lon="5.74683">
        <ele>848</ele>
        <time>2018-04-23T14:54:40Z</time>
      </trkpt>
      <trkpt lat="44.78325" lon="5.7472">
        <ele>850</ele>
        <time>2018-04-23T14:54:44Z</time>
      </trkpt>
      <trkpt lat="44.78301" lon="5.74763">
        <ele>848</ele>
        <time>2018-04-23T14:55:04Z</time>
      </trkpt>
      <trkpt lat="44.78268" lon="5.7481">
        <ele>849</ele>
        <time>2018-04-23T14:55:21Z</time>
      </trkpt>
      <trkpt lat="44.78213" lon="5.74882">
        <ele>852</ele>
        <time>2018-04-23T14:55:30Z</time>
      </trkpt>
      <trkpt lat="44.78207" lon="5.74899">
        <ele>852</ele>
        <time>2018-04-23T14:55:39Z</time>
      </trkpt>
      <trkpt lat="44.78203" lon="5.74927">
        <ele>852</ele>
        <time>2018-04-23T14:55:49Z</time>
      </trkpt>
      <trkpt lat="44.78208" lon="5.74952">
        <ele>851</ele>
        <time>2018-04-23T14:56:06Z</time>
      </trkpt>
      <trkpt lat="44.78214" lon="5.74973">
        <ele>851</ele>
        <time>2018-04-23T14:56:11Z</time>
      </trkpt>
      <trkpt lat="44.78243" lon="5.75053">
        <ele>850</ele>
        <time>2018-04-23T14:56:13Z</time>
      </trkpt>
      <trkpt lat="44.78267" lon="5.75111">
        <ele>845</ele>
        <time>2018-04-23T14:56:24Z</time>
      </trkpt>
      <trkpt lat="44.78294" lon="5.75165">
        <ele>844</ele>
        <time>2018-04-23T14:56:42Z</time>
      </trkpt>
      <trkpt lat="44.78325" lon="5.75227">
        <ele>846</ele>
        <time>2018-04-23T14:56:45Z</time>
      </trkpt>
      <trkpt lat="44.78327" lon="5.75244">
        <ele>846</ele>
        <time>2018-04-23T14:56:58Z</time>
      </trkpt>
      <trkpt lat="44.78327" lon="5.7526">
        <ele>847</ele>
        <time>2018-04-23T14:57:04Z</time>
      </trkpt>
      <trkpt lat="44.78321" lon="5.75288">
        <ele>848</ele>
        <time>2018-04-23T14:57:15Z</time>
      </trkpt>
      <trkpt lat="44.78323" lon="5.75304">
        <ele>849</ele>
        <time>2018-04-23T14:57:17Z</time>
      </trkpt>
      <trkpt lat="44.78331" lon="5.75314">
        <ele>849</ele>
        <time>2018-04-23T14:57:32Z</time>
      </trkpt>
      <trkpt lat="44.78348" lon="5.75318">
        <ele>847</ele>
        <time>2018-04-23T14:57:51Z</time>
      </trkpt>
      <trkpt lat="44.78385" lon="5.75319">
        <ele>846</ele>
        <time>2018-04-23T14:57:55Z</time>
      </trkpt>
      <trkpt lat="44.78401" lon="5.75318">
        <ele>845</ele>
        <time>2018-04-23T14:58:07Z</time>
      </trkpt>
      <trkpt lat="44.78422" lon="5.75313">
        <ele>844</ele>
        <time>2018-04-23T14:58:26Z</time>
      </trkpt>
      <trkpt lat="44.78476" lon="5.75278">
        <ele>841</ele>
        <time>2018-04-23T14:58:33Z</time>
      </trkpt>
      <trkpt lat="44.78495" lon="5.75269">
        <ele>840</ele>
        <time>2018-04-23T14:58:36Z</time>
      </trkpt>
      <trkpt lat="44.78514" lon="5.75264">
        <ele>838</ele>
        <time>2018-04-23T14:58:40Z</time>
      </trkpt>
      <trkpt lat="44.78527" lon="5.75265">
        <ele>839</ele>
        <time>2018-04-23T14:58:59Z</time>
      </trkpt>
      <trkpt lat="44.78538" lon="5.7527">
        <ele>839</ele>
        <time>2018-04-23T14:59:18Z</time>
      </trkpt>
      <trkpt lat="44.78548" lon="5.75279">
        <ele>839</ele>
        <time>2018-04-23T14:59:24Z</time>
      </trkpt>
      <trkpt lat="44.78557" lon="5.75291">
        <ele>839</ele>
        <time>2018-04-23T14:59:36Z</time>
      </trkpt>
      <trkpt lat="44.78584" lon="5.7536">
        <ele>838</ele>
        <time>2018-04-23T14:59:42Z</time>
      </trkpt>
      <trkpt lat="44.78605" lon="5.75397">
        <ele>838</ele>
        <time>2018-04-23T14:59:49Z</time>
      </trkpt>
      <trkpt lat="44.78619" lon="5.75415">
        <ele>837</ele>
        <time>2018-04-23T15:00:07Z</time>
      </trkpt>
      <trkpt lat="44.78639" lon="5.75432">
        <ele>838</ele>
        <time>2018-04-23T15:00:27Z</time>
      </trkpt>
      <trkpt lat="44.78682" lon="5.75465">
        <ele>831</ele>
        <time>2018-04-23T15:00:37Z</time>
      </trkpt>
      <trkpt lat="44.78725" lon="5.75509">
        <ele>832</ele>
        <time>2018-04-23T15:00:55Z</time>
      </trkpt>
      <trkpt lat="44.78744" lon="5.75525">
        <ele>832</ele>
        <time>2018-04-23T15:01:10Z</time>
      </trkpt>
      <trkpt lat="44.78761" lon="5.75534">
        <ele>827</ele>
        <time>2018-04-23T15:01:16Z</time>
      </trkpt>
      <trkpt lat="44.78782" lon="5.75543">
        <ele>827</ele>
        <time>2018-04-23T15:01:34Z</time>
      </trkpt>
      <trkpt lat="44.78794" lon="5.7555">
        <ele>827</ele>
        <time>2018-04-23T15:01:51Z</time>
      </trkpt>
      <trkpt lat="44.78806" lon="5.7556">
        <ele>826</ele>
        <time>2018-04-23T15:01:54Z</time>
      </trkpt>
      <trkpt lat="44.78811" lon="5.75572">
        <ele>826</ele>
        <time>2018-04-23T15:01:56Z</time>
      </trkpt>
      <trkpt lat="44.78812" lon="5.75586">
        <ele>827</ele>
        <time>2018-04-23T15:02:08Z</time>
      </trkpt>
      <trkpt lat="44.78809" lon="5.75609">
        <ele>827</ele>
        <time>2018-04-23T15:02:27Z</time>
      </trkpt>
      <trkpt lat="44.78797" lon="5.75664">
        <ele>828</ele>
        <time>2018-04-23T15:02:40Z</time>
      </trkpt>
      <trkpt lat="44.78783" lon="5.75707">
        <ele>827</ele>
        <time>2018-04-23T15:02:47Z</time>
      </trkpt>
      <trkpt lat="44.78754" lon="5.7577">
        <ele>825</ele>
        <time>2018-04-23T15:03:03Z</time>
      </trkpt>
      <trkpt lat="44.78732" lon="5.75814">
        <ele>830</ele>
        <time>2018-04-23T15:03:07Z</time>
      </trkpt>
      <trkpt lat="44.78729" lon="5.75825">
        <ele>830</ele>
        <time>2018-04-23T15:03:25Z</time>
      </trkpt>
      <trkpt lat="44.78731" lon="5.75832">
        <ele>829</ele>
        <time>2018-04-23T15:03:37Z</time>
      </trkpt>
      <trkpt lat="44.78735" lon="5.75835">
        <ele>822</ele>
        <time>2018-04-23T15:03:45Z</time>
      </trkpt>
      <trkpt lat="44.78742" lon="5.75837">
        <ele>822</ele>
        <time>2018-04-23T15:03:48Z</time>
      </trkpt>
      <trkpt lat="44.78752" lon="5.75834">
        <ele>820</ele>
        <time>2018-04-23T15:03:59Z</time>
      </trkpt>
      <trkpt lat="44.78765" lon="5.75827">
        <ele>820</ele>
        <time>2018-04-23T15:04:12Z</time>
      </trkpt>
      <trkpt lat="44.788" lon="5.75811">
        <ele>817</ele>
        <time>2018-04-23T15:04:29Z</time>
      </trkpt>
      <trkpt lat="44.78812" lon="5.75804">
        <ele>816</ele>
        <time>2018-04-23T15:04:41Z</time>
      </trkpt>
      <trkpt lat="44.78825" lon="5.75791">
        <ele>817</ele>
        <time>2018-04-23T15:04:48Z</time>
      </trkpt>
      <trkpt lat="44.78848" lon="5.75765">
        <ele>811</ele>
        <time>2018-04-23T15:04:50Z</time>
      </trkpt>
      <trkpt lat="44.78884" lon="5.75739">
        <ele>812</ele>
        <time>2018-04-23T15:05:03Z</time>
      </trkpt>
      <trkpt lat="44.78905" lon="5.75723">
        <ele>811</ele>
        <time>2018-04-23T15:05:17Z</time>
      </trkpt>
      <trkpt lat="44.78912" lon="5.7572">
        <ele>811</ele>
        <time>2018-04-23T15:05:21Z</time>
      </trkpt>
      <trkpt lat="44.78918" lon="5.75722">
        <ele>803</ele>
        <time>2018-04-23T15:05:38Z</time>
      </trkpt>
      <trkpt lat="44.78921" lon="5.75728">
        <ele>803</ele>
        <time>2018-04-23T15:05:42Z</time>
      </trkpt>
      <trkpt lat="44.7892" lon="5.75736">
        <ele>803</ele>
        <time>2018-04-23T15:05:58Z</time>
      </trkpt>
      <trkpt lat="44.78916" lon="5.75744">
        <ele>805</ele>
        <time>2018-04-23T15:06:13Z</time>
      </trkpt>
      <trkpt lat="44.78884" lon="5.75768">
        <ele>805</ele>
        <time>2018-04-23T15:06:22Z</time>
      </trkpt>
      <trkpt lat="44.78856" lon="5.75798">
        <ele>806</ele>
        <time>2018-04-23T15:06:24Z</time>
      </trkpt>
      <trkpt lat="44.7884" lon="5.75826">
        <ele>805</ele>
        <time>2018-04-23T15:06:39Z</time>
      </trkpt>
      <trkpt lat="44.78827" lon="5.75853">
        <ele>807</ele>
        <time>2018-04-23T15:06:58Z</time>
      </trkpt>
      <trkpt lat="44.78826" lon="5.75867">
        <ele>807</ele>
        <time>2018-04-23T15:07:12Z</time>
      </trkpt>
      <trkpt lat="44.78827" lon="5.75881">
        <ele>806</ele>
        <time>2018-04-23T15:07:31Z</time>
      </trkpt>
      <trkpt lat="44.78832" lon="5.75896">
        <ele>805</ele>
        <time>2018-04-23T15:07:48Z</time>
      </trkpt>
      <trkpt lat="44.78838" lon="5.75904">
        <ele>801</ele>
        <time>2018-04-23T15:07:58Z</time>
      </trkpt>
      <trkpt lat="44.78847" lon="5.7591">
        <ele>801</ele>
        <time>2018-04-23T15:08:02Z</time>
      </trkpt>
      <trkpt lat="44.78859" lon="5.75913">
        <ele>800</ele>
        <time>2018-04-23T15:08:20Z</time>
      </trkpt>
      <trkpt lat="44.78884" lon="5.7591">
        <ele>800</ele>
        <time>2018-04-23T15:08:32Z</time>
      </trkpt>
      <trkpt lat="44.78916" lon="5.75912">
        <ele>800</ele>
        <time>2018-04-23T15:08:50Z</time>
      </trkpt>
      <trkpt lat="44.78952" lon="5.75922">
        <ele>804</ele>
        <time>2018-04-23T15:09:01Z</time>
      </trkpt>
      <trkpt lat="44.78979" lon="5.75929">
        <ele>805</ele>
        <time>2018-04-23T15:09:14Z</time>
      </trkpt>
      <trkpt lat="44.78996" lon="5.75931">
        <ele>804</ele>
        <time>2018-04-23T15:09:33Z</time>
      </trkpt>
      <trkpt lat="44.79012" lon="5.75929">
        <ele>805</ele>
        <time>2018-04-23T15:09:46Z</time>
      </trkpt>
      <trkpt lat="44.79026" lon="5.75924">
        <ele>806</ele>
        <time>2018-04-23T15:09:52Z</time>
      </trkpt>
      <trkpt lat="44.79041" lon="5.75917">
        <ele>806</ele>
        <time>2018-04-23T15:09:54Z</time>
      </trkpt>
      <trkpt lat="44.79054" lon="5.75913">
        <ele>800</ele>
        <time>2018-04-23T15:09:58Z</time>
      </trkpt>
      <trkpt lat="44.79075" lon="5.75916">
        <ele>803</ele>
        <time>2018-04-23T15:10:06Z</time>
      </trkpt>
      <trkpt lat="44.79145" lon="5.75942">
        <ele>809</ele>
        <time>2018-04-23T15:10:08Z</time>
      </trkpt>
      <trkpt lat="44.79214" lon="5.75965">
        <ele>815</ele>
        <time>2018-04-23T15:10:25Z</time>
      </trkpt>
      <trkpt lat="44.79233" lon="5.75968">
        <ele>816</ele>
        <time>2018-04-23T15:10:43Z</time>
      </trkpt>
      <trkpt lat="44.79253" lon="5.75966">
        <ele>825</ele>
        <time>2018-04-23T15:10:56Z</time>
      </trkpt>
      <trkpt lat="44.79271" lon="5.75961">
        <ele>825</ele>
        <time>2018-04-23T15:11:06Z</time>
      </trkpt>
      <trkpt lat="44.79288" lon="5.75952">
        <ele>826</ele>
        <time>2018-04-23T15:11:19Z</time>
      </trkpt>
      <trkpt lat="44.79303" lon="5.75944">
        <ele>827</ele>
        <time>2018-04-23T15:11:35Z</time>
      </trkpt>
      <trkpt lat="44.79339" lon="5.75918">
        <ele>830</ele>
        <time>2018-04-23T15:11:46Z</time>
      </trkpt>
      <trkpt lat="44.79377" lon="5.75885">
        <ele>826</ele>
        <time>2018-04-23T15:12:04Z</time>
      </trkpt>
      <trkpt lat="44.79406" lon="5.75855">
        <ele>824</ele>
        <time>2018-04-23T15:12:16Z</time>
      </trkpt>
      <trkpt lat="44.79456" lon="5.75785">
        <ele>824</ele>
        <time>2018-04-23T15:12:18Z</time>
      </trkpt>
      <trkpt lat="44.79497" lon="5.75732">
        <ele>816</ele>
        <time>2018-04-23T15:12:21Z</time>
      </trkpt>
      <trkpt lat="44.79529" lon="5.75699">
        <ele>818</ele>
        <time>2018-04-23T15:12:36Z</time>
      </trkpt>
      <trkpt lat="44.79545" lon="5.75686">
        <ele>818</ele>
        <time>2018-04-23T15:12:42Z</time>
      </trkpt>
      <trkpt lat="44.79562" lon="5.75675">
        <ele>819</ele>
        <time>2018-04-23T15:12:51Z</time>
      </trkpt>
      <trkpt lat="44.79599" lon="5.75659">
        <ele>815</ele>
        <time>2018-04-23T15:12:53Z</time>
      </trkpt>
      <trkpt lat="44.79612" lon="5.75651">
        <ele>814</ele>
        <time>2018-04-23T15:13:10Z</time>
      </trkpt>
      <trkpt lat="44.79625" lon="5.75639">
        <ele>813</ele>
        <time>2018-04-23T15:13:12Z</time>
      </trkpt>
      <trkpt lat="44.79653" lon="5.75601">
        <ele>812</ele>
        <time>2018-04-23T15:13:14Z</time>
      </trkpt>
      <trkpt lat="44.79667" lon="5.75584">
        <ele>813</ele>
        <time>2018-04-23T15:13:18Z</time>
      </trkpt>
      <trkpt lat="44.79683" lon="5.7557">
        <ele>808</ele>
        <time>2018-04-23T15:13:22Z</time>
      </trkpt>
      <trkpt lat="44.7972" lon="5.75545">
        <ele>806</ele>
        <time>2018-04-23T15:13:37Z</time>
      </trkpt>
      <trkpt lat="44.79764" lon="5.7551">
        <ele>805</ele>
        <time>2018-04-23T15:13:56Z</time>
      </trkpt>
      <trkpt lat="44.79781" lon="5.75501">
        <ele>806</ele>
        <time>2018-04-23T15:14:10Z</time>
      </trkpt>
      <trkpt lat="44.79799" lon="5.75495">
        <ele>807</ele>
        <time>2018-04-23T15:14:21Z</time>
      </trkpt>
      <trkpt lat="44.79838" lon="5.7549">
        <ele>810</ele>
        <time>2018-04-23T15:14:36Z</time>
      </trkpt>
      <trkpt lat="44.79977" lon="5.7547">
        <ele>808</ele>
        <time>2018-04-23T15:14:50Z</time>
      </trkpt>
      <trkpt lat="44.80021" lon="5.75457">
        <ele>803</ele>
        <time>2018-04-23T15:15:01Z</time>
      </trkpt>
      <trkpt lat="44.80041" lon="5.75455">
        <ele>802</ele>
        <time>2018-04-23T15:15:04Z</time>
      </trkpt>
      <trkpt lat="44.80061" lon="5.75455">
        <ele>801</ele>
        <time>2018-04-23T15:15:18Z</time>
      </trkpt>
      <trkpt lat="44.80101" lon="5.75462">
        <ele>798</ele>
        <time>2018-04-23T15:15:25Z</time>
      </trkpt>
      <trkpt lat="44.80115" lon="5.75463">
        <ele>797</ele>
        <time>2018-04-23T15:15:45Z</time>
      </trkpt>
      <trkpt lat="44.80142" lon="5.7546">
        <ele>796</ele>
        <time>2018-04-23T15:15:49Z</time>
      </trkpt>
      <trkpt lat="44.80175" lon="5.75451">
        <ele>794</ele>
        <time>2018-04-23T15:15:52Z</time>
      </trkpt>
      <trkpt lat="44.80192" lon="5.75444">
        <ele>794</ele>
        <time>2018-04-23T15:16:01Z</time>
      </trkpt>
      <trkpt lat="44.80209" lon="5.75431">
        <ele>795</ele>
        <time>2018-04-23T15:16:14Z</time>
      </trkpt>
      <trkpt lat="44.80252" lon="5.7539">
        <ele>800</ele>
        <time>2018-04-23T15:16:19Z</time>
      </trkpt>
      <trkpt lat="44.80276" lon="5.75359">
        <ele>802</ele>
        <time>2018-04-23T15:16:27Z</time>
      </trkpt>
      <trkpt lat="44.80301" lon="5.75302">
        <ele>802</ele>
        <time>2018-04-23T15:16:46Z</time>
      </trkpt>
      <trkpt lat="44.80334" lon="5.75218">
        <ele>810</ele>
        <time>2018-04-23T15:16:50Z</time>
      </trkpt>
      <trkpt lat="44.80357" lon="5.75168">
        <ele>808</ele>
        <time>2018-04-23T15:17:00Z</time>
      </trkpt>
      <trkpt lat="44.80371" lon="5.75148">
        <ele>805</ele>
        <time>2018-04-23T15:17:06Z</time>
      </trkpt>
      <trkpt lat="44.80386" lon="5.75129">
        <ele>806</ele>
        <time>2018-04-23T15:17:19Z</time>
      </trkpt>
      <trkpt lat="44.80401" lon="5.7511">
        <ele>807</ele>
        <time>2018-04-23T15:17:30Z</time>
      </trkpt>
      <trkpt lat="44.80413" lon="5.75087">
        <ele>809</ele>
        <time>2018-04-23T15:17:46Z</time>
      </trkpt>
      <trkpt lat="44.80437" lon="5.75031">
        <ele>810</ele>
        <time>2018-04-23T15:17:54Z</time>
      </trkpt>
      <trkpt lat="44.80449" lon="5.75014">
        <ele>810</ele>
        <time>2018-04-23T15:18:02Z</time>
      </trkpt>
      <trkpt lat="44.80462" lon="5.75">
        <ele>806</ele>
        <time>2018-04-23T15:18:16Z</time>
      </trkpt>
      <trkpt lat="44.8049" lon="5.74977">
        <ele>809</ele>
        <time>2018-04-23T15:18:36Z</time>
      </trkpt>
      <trkpt lat="44.80504" lon="5.74969">
        <ele>815</ele>
        <time>2018-04-23T15:18:43Z</time>
      </trkpt>
      <trkpt lat="44.80518" lon="5.74966">
        <ele>815</ele>
        <time>2018-04-23T15:18:49Z</time>
      </trkpt>
      <trkpt lat="44.80531" lon="5.74966">
        <ele>815</ele>
        <time>2018-04-23T15:18:59Z</time>
      </trkpt>
      <trkpt lat="44.80544" lon="5.74969">
        <ele>815</ele>
        <time>2018-04-23T15:19:19Z</time>
      </trkpt>
      <trkpt lat="44.8057" lon="5.7498">
        <ele>817</ele>
        <time>2018-04-23T15:19:28Z</time>
      </trkpt>
      <trkpt lat="44.80582" lon="5.74985">
        <ele>817</ele>
        <time>2018-04-23T15:19:46Z</time>
      </trkpt>
      <trkpt lat="44.80591" lon="5.74987">
        <ele>818</ele>
        <time>2018-04-23T15:20:00Z</time>
      </trkpt>
      <trkpt lat="44.80604" lon="5.74984">
        <ele>818</ele>
        <time>2018-04-23T15:20:09Z</time>
      </trkpt>
      <trkpt lat="44.80624" lon="5.74969">
        <ele>818</ele>
        <time>2018-04-23T15:20:19Z</time>
      </trkpt>
      <trkpt lat="44.80668" lon="5.74921">
        <ele>818</ele>
        <time>2018-04-23T15:20:38Z</time>
      </trkpt>
      <trkpt lat="44.80699" lon="5.74891">
        <ele>817</ele>
        <time>2018-04-23T15:20:42Z</time>
      </trkpt>
      <trkpt lat="44.80748" lon="5.74851">
        <ele>815</ele>
        <time>2018-04-23T15:20:49Z</time>
      </trkpt>
      <trkpt lat="44.80762" lon="5.74843">
        <ele>815</ele>
        <time>2018-04-23T15:20:56Z</time>
      </trkpt>
      <trkpt lat="44.80793" lon="5.74829">
        <ele>810</ele>
        <time>2018-04-23T15:21:13Z</time>
      </trkpt>
      <trkpt lat="44.80821" lon="5.7482">
        <ele>810</ele>
        <time>2018-04-23T15:21:23Z</time>
      </trkpt>
      <trkpt lat="44.80857" lon="5.74811">
        <ele>807</ele>
        <time>2018-04-23T15:21:38Z</time>
      </trkpt>
      <trkpt lat="44.80892" lon="5.74808">
        <ele>806</ele>
        <time>2018-04-23T15:21:43Z</time>
      </trkpt>
      <trkpt lat="44.80907" lon="5.74808">
        <ele>806</ele>
        <time>2018-04-23T15:22:02Z</time>
      </trkpt>
      <trkpt lat="44.80923" lon="5.74813">
        <ele>802</ele>
        <time>2018-04-23T15:22:19Z</time>
      </trkpt>
      <trkpt lat="44.80938" lon="5.74822">
        <ele>802</ele>
        <time>2018-04-23T15:22:35Z</time>
      </trkpt>
      <trkpt lat="44.8101" lon="5.74872">
        <ele>799</ele>
        <time>2018-04-23T15:22:55Z</time>
      </trkpt>
      <trkpt lat="44.81036" lon="5.74892">
        <ele>799</ele>
        <time>2018-04-23T15:23:15Z</time>
      </trkpt>
      <trkpt lat="44.81049" lon="5.74902">
        <ele>798</ele>
        <time>2018-04-23T15:23:18Z</time>
      </trkpt>
      <trkpt lat="44.81063" lon="5.74909">
        <ele>798</ele>
        <time>2018-04-23T15:23:34Z</time>
      </trkpt>
      <trkpt lat="44.81077" lon="5.7491">
        <ele>797</ele>
        <time>2018-04-23T15:23:49Z</time>
      </trkpt>
      <trkpt lat="44.81092" lon="5.74905">
        <ele>795</ele>
        <time>2018-04-23T15:23:53Z</time>
      </trkpt>
      <trkpt lat="44.81115" lon="5.74885">
        <ele>794</ele>
        <time>2018-04-23T15:24:06Z</time>
      </trkpt>
      <trkpt lat="44.81148" lon="5.74864">
        <ele>792</ele>
        <time>2018-04-23T15:24:17Z</time>
      </trkpt>
      <trkpt lat="44.81183" lon="5.74849">
        <ele>791</ele>
        <time>2018-04-23T15:24:21Z</time>
      </trkpt>
      <trkpt lat="44.81215" lon="5.74833">
        <ele>787</ele>
        <time>2018-04-23T15:24:31Z</time>
      </trkpt>
      <trkpt lat="44.81247" lon="5.74816">
        <ele>787</ele>
        <time>2018-04-23T15:24:37Z</time>
      </trkpt>
      <trkpt lat="44.81253" lon="5.74815">
        <ele>785</ele>
        <time>2018-04-23T15:24:47Z</time>
      </trkpt>
      <trkpt lat="44.81264" lon="5.74818">
        <ele>785</ele>
        <time>2018-04-23T15:24:49Z</time>
      </trkpt>
      <trkpt lat="44.81278" lon="5.7483">
        <ele>784</ele>
        <time>2018-04-23T15:25:03Z</time>
      </trkpt>
      <trkpt lat="44.81288" lon="5.74845">
        <ele>786</ele>
        <time>2018-04-23T15:25:06Z</time>
      </trkpt>
      <trkpt lat="44.81304" lon="5.74875">
        <ele>786</ele>
        <time>2018-04-23T15:25:11Z</time>
      </trkpt>
      <trkpt lat="44.81314" lon="5.74899">
        <ele>785</ele>
        <time>2018-04-23T15:25:31Z</time>
      </trkpt>
      <trkpt lat="44.81337" lon="5.74971">
        <ele>780</ele>
        <time>2018-04-23T15:25:50Z</time>
      </trkpt>
      <trkpt lat="44.81368" lon="5.75072">
        <ele>779</ele>
        <time>2018-04-23T15:26:04Z</time>
      </trkpt>
      <trkpt lat="44.81376" lon="5.75085">
        <ele>779</ele>
        <time>2018-04-23T15:26:11Z</time>
      </trkpt>
      <trkpt lat="44.81387" lon="5.75095">
        <ele>778</ele>
        <time>2018-04-23T15:26:14Z</time>
      </trkpt>
      <trkpt lat="44.814" lon="5.75102">
        <ele>777</ele>
        <time>2018-04-23T15:26:32Z</time>
      </trkpt>
      <trkpt lat="44.81412" lon="5.75104">
        <ele>777</ele>
        <time>2018-04-23T15:26:47Z</time>
      </trkpt>
      <trkpt lat="44.81434" lon="5.75105">
        <ele>775</ele>
        <time>2018-04-23T15:26:52Z</time>
      </trkpt>
      <trkpt lat="44.81472" lon="5.75099">
        <ele>775</ele>
        <time>2018-04-23T15:27:08Z</time>
      </trkpt>
      <trkpt lat="44.81453" lon="5.75038">
        <ele>773</ele>
        <time>2018-04-23T15:27:14Z</time>
      </trkpt>
      <trkpt lat="44.81444" lon="5.74992">
        <ele>772</ele>
        <time>2018-04-23T15:27:32Z</time>
      </trkpt>
      <trkpt lat="44.81442" lon="5.74965">
        <ele>772</ele>
        <time>2018-04-23T15:27:42Z</time>
      </trkpt>
      <trkpt lat="44.81439" lon="5.74915">
        <ele>771</ele>
        <time>2018-04-23T15:27:47Z</time>
      </trkpt>
      <trkpt lat="44.81472" lon="5.74912">
        <ele>770</ele>
        <time>2018-04-23T15:28:07Z</time>
      </trkpt>
      <trkpt lat="44.81482" lon="5.74907">
        <ele>769</ele>
        <time>2018-04-23T15:28:21Z</time>
      </trkpt>
      <trkpt lat="44.81496" lon="5.74888">
        <ele>769</ele>
        <time>2018-04-23T15:28:33Z</time>
      </trkpt>
      <trkpt lat="44.81507" lon="5.74872">
        <ele>769</ele>
        <time>2018-04-23T15:28:38Z</time>
      </trkpt>
      <trkpt lat="44.81501" lon="5.74869">
        <ele>769</ele>
        <time>2018-04-23T15:28:54Z</time>
      </trkpt>
    </trkseg>
  </trk>
</gpx>